Darstellungsparameter: Aktuell verwendete Einstellungen:
Skalierung der Graphiken ... ?
xyx+y,   Skalierungsfaktor:      Skalierung: Modus: x, Faktor: 1
Darstellungszeitraum ... ?
Vom - - bis: - -   Zeitraum: 06.12.2019 - 03.01.2020
Min/Max/Avg-Anzeige ... ?
Zeige MMA aktuell
Zeige MMA Monat
Zeige MMA alles
Zeige --A aktuell
Zeige --A Monat
Zeige --A alles
Keine MMA-Anzeige
MMA:
Average (ber die Originaldaten)
MMA-Basis: 06.12.2019 - 03.01.2020
Quicknavigation für Darstellung... ?
Tage:      1T, 2T, 3T, 5T -1T -2T -3T -5T +1T +2T +3T +5T
Wochen: 1W, 2W, 3W -1W -2W -3W +1W +2W +3W
Monate: 1M, 3M, 6M -1M -3M -6M +1M +3M +6M
Jahre:    1J, 3J, 5J, 10J -1J -3J -5J -10J +1J +3J +5J +10J
Nutze für die Darstellung ... ?
Originaldaten oder Mittelwerte auf ...
Stundenbasis Tagesbasis Wochenbasis
Monatsbasis Jahresbasis      Datenbasis: Original-Daten
Darstellen als:
Statistik (Auto) Statistik J:M      Darstellung:
Zur Graphik,    zurück zur Übersicht aller Sensoren.
 
Tabellarische Datenbersicht: ?
 
Sensor: Nr:Datum:Temp:Feuchte:
Aussen-T/F 1 06-12-2019 00:01:18 -2.9 C 42 %
2 06-12-2019 00:11:18 -3.4 C 40 %
3 06-12-2019 00:21:17 -3.8 C 40 %
4 06-12-2019 00:31:17 -3.4 C 42 %
5 06-12-2019 00:41:17 -3.2 C 42 %
6 06-12-2019 00:51:17 -2.7 C 43 %
7 06-12-2019 01:01:17 -2.4 C 43 %
8 06-12-2019 01:11:17 -2.1 C 43 %
9 06-12-2019 01:21:17 -2 C 41 %
10 06-12-2019 01:31:18 -1.8 C 42 %
11 06-12-2019 01:41:18 -1.6 C 43 %
12 06-12-2019 01:51:17 -1.6 C 43 %
13 06-12-2019 02:01:17 -1.4 C 42 %
14 06-12-2019 02:11:17 -1.4 C 40 %
15 06-12-2019 02:21:17 -1.6 C 40 %
16 06-12-2019 02:31:17 -1.5 C 40 %
17 06-12-2019 02:41:17 -1.7 C 39 %
18 06-12-2019 02:51:17 -1.6 C 40 %
19 06-12-2019 03:01:18 -1.4 C 39 %
20 06-12-2019 03:11:18 -1.2 C 39 %
21 06-12-2019 03:21:17 -1 C 38 %
22 06-12-2019 03:31:17 -1 C 37 %
23 06-12-2019 03:41:17 -1 C 38 %
24 06-12-2019 03:51:17 -1.1 C 37 %
25 06-12-2019 04:01:17 -1.2 C 38 %
Sensor: Nr:Datum:Temp:Feuchte:
Aussen-T/F 26 06-12-2019 04:11:17 -1.3 C 37 %
27 06-12-2019 04:21:17 -1.3 C 38 %
28 06-12-2019 04:31:17 -1.1 C 38 %
29 06-12-2019 04:41:17 -1.1 C 38 %
30 06-12-2019 04:51:17 -0.8 C 38 %
31 06-12-2019 05:01:17 -1 C 38 %
32 06-12-2019 05:11:17 -0.8 C 37 %
33 06-12-2019 05:21:17 -0.9 C 36 %
34 06-12-2019 05:31:18 -1 C 37 %
35 06-12-2019 05:41:18 -0.8 C 38 %
36 06-12-2019 05:51:17 -0.6 C 36 %
37 06-12-2019 06:01:17 -0.6 C 35 %
38 06-12-2019 06:11:17 -0.6 C 36 %
39 06-12-2019 06:21:17 -0.5 C 36 %
40 06-12-2019 06:31:17 -0.5 C 35 %
41 06-12-2019 06:41:17 -0.4 C 36 %
42 06-12-2019 06:51:18 -0.4 C 37 %
43 06-12-2019 07:01:17 -0.4 C 38 %
44 06-12-2019 07:11:17 -0.4 C 38 %
45 06-12-2019 07:21:17 -0.1 C 37 %
46 06-12-2019 07:31:17 0 C 36 %
47 06-12-2019 07:41:17 0.2 C 34 %
48 06-12-2019 07:51:18 0.4 C 32 %
49 06-12-2019 08:01:17 0.4 C 32 %
50 06-12-2019 08:11:17 0.4 C 32 %
Sensor: Nr:Datum:Temp:Feuchte:
Aussen-T/F 51 06-12-2019 08:21:17 0.4 C 35 %
52 06-12-2019 08:31:17 0.6 C 32 %
53 06-12-2019 08:41:17 0.5 C 35 %
54 06-12-2019 08:51:18 0.5 C 35 %
55 06-12-2019 09:01:17 0.6 C 36 %
56 06-12-2019 09:11:17 0.8 C 36 %
57 06-12-2019 09:21:17 1.2 C 33 %
58 06-12-2019 09:31:17 1.4 C 33 %
59 06-12-2019 09:41:17 1.5 C 33 %
60 06-12-2019 09:51:17 1.7 C 34 %
61 06-12-2019 10:01:17 1.8 C 33 %
62 06-12-2019 10:11:17 1.8 C 35 %
63 06-12-2019 10:21:18 1.9 C 36 %
64 06-12-2019 10:31:17 1.9 C 36 %
65 06-12-2019 10:41:17 2.4 C 35 %
66 06-12-2019 10:51:17 2.5 C 35 %
67 06-12-2019 11:01:18 2.7 C 35 %
68 06-12-2019 11:11:18 3.2 C 32 %
69 06-12-2019 11:21:17 3.3 C 32 %
70 06-12-2019 11:31:17 3.5 C 32 %
71 06-12-2019 11:41:17 3.5 C 32 %
72 06-12-2019 11:51:17 3.5 C 33 %
73 06-12-2019 12:01:17 3.6 C 33 %
74 06-12-2019 12:11:17 3.6 C 33 %
75 06-12-2019 12:21:17 3.6 C 35 %
Sensor: Nr:Datum:Temp:Feuchte:
Aussen-T/F 76 06-12-2019 12:31:18 3.7 C 37 %
77 06-12-2019 12:41:18 3.7 C 39 %
78 06-12-2019 12:51:17 3.7 C 40 %
79 06-12-2019 13:01:17 3.8 C 39 %
80 06-12-2019 13:11:17 3.9 C 38 %
81 06-12-2019 13:21:17 4 C 36 %
82 06-12-2019 13:31:18 4.2 C 35 %
83 06-12-2019 13:41:18 4.2 C 35 %
84 06-12-2019 13:51:17 4.1 C 36 %
85 06-12-2019 14:01:17 4.1 C 39 %
86 06-12-2019 14:11:17 4.2 C 40 %
87 06-12-2019 14:21:17 4.2 C 38 %
88 06-12-2019 14:31:18 4.2 C 38 %
89 06-12-2019 14:41:18 4.4 C 38 %
90 06-12-2019 14:51:17 4.4 C 39 %
91 06-12-2019 15:01:17 4.3 C 38 %
92 06-12-2019 15:11:17 4.4 C 38 %
93 06-12-2019 15:21:17 4.7 C 36 %
94 06-12-2019 15:31:17 4.5 C 37 %
95 06-12-2019 15:41:17 4.5 C 37 %
96 06-12-2019 15:51:18 4.6 C 37 %
97 06-12-2019 16:01:18 4.8 C 38 %
98 06-12-2019 16:11:18 5 C 34 %
99 06-12-2019 16:21:17 5.2 C 32 %
100 06-12-2019 16:31:17 5.1 C 32 %
Sensor: Nr:Datum:Temp:Feuchte:
Aussen-T/F 101 06-12-2019 16:41:17 5.3 C 32 %
102 06-12-2019 16:51:17 5.2 C 31 %
103 06-12-2019 17:01:17 5.2 C 31 %
104 06-12-2019 17:11:17 5.3 C 31 %
105 06-12-2019 17:21:17 5.3 C 30 %
106 06-12-2019 17:31:18 5.5 C 30 %
107 06-12-2019 17:41:18 5.6 C 29 %
108 06-12-2019 17:51:17 5.5 C 30 %
109 06-12-2019 18:01:17 5.9 C 29 %
110 06-12-2019 18:11:17 6 C 28 %
111 06-12-2019 18:21:18 6.2 C 29 %
112 06-12-2019 18:31:17 6.1 C 28 %
113 06-12-2019 18:41:17 6.1 C 29 %
114 06-12-2019 18:51:17 5.9 C 30 %
115 06-12-2019 19:01:17 5.6 C 31 %
116 06-12-2019 19:11:17 5.8 C 32 %
117 06-12-2019 19:21:17 5.9 C 31 %
118 06-12-2019 19:31:17 6.2 C 30 %
119 06-12-2019 19:41:17 6.5 C 28 %
120 06-12-2019 19:51:17 6.5 C 28 %
121 06-12-2019 20:01:17 6.8 C 28 %
122 06-12-2019 20:11:17 6.7 C 28 %
123 06-12-2019 20:21:17 6.8 C 28 %
124 06-12-2019 20:31:17 6.7 C 28 %
125 06-12-2019 20:41:17 6.7 C 28 %
Sensor: Nr:Datum:Temp:Feuchte:
Aussen-T/F 126 06-12-2019 20:51:18 6.7 C 28 %
127 06-12-2019 21:01:17 6.8 C 27 %
128 06-12-2019 21:11:17 6.7 C 28 %
129 06-12-2019 21:21:17 6.7 C 28 %
130 06-12-2019 21:31:17 6.6 C 28 %
131 06-12-2019 21:41:17 6.5 C 28 %
132 06-12-2019 21:51:17 6.5 C 29 %
133 06-12-2019 22:01:17 6.6 C 29 %
134 06-12-2019 22:11:17 6.7 C 28 %
135 06-12-2019 22:21:17 6.7 C 28 %
136 06-12-2019 22:31:17 6.7 C 28 %
137 06-12-2019 22:41:17 6.9 C 28 %
138 06-12-2019 22:51:17 6.9 C 27 %
139 06-12-2019 23:01:18 7 C 27 %
140 06-12-2019 23:11:18 6.9 C 28 %
141 06-12-2019 23:21:17 6.8 C 29 %
142 06-12-2019 23:31:17 6.8 C 29 %
143 06-12-2019 23:41:17 6.9 C 29 %
144 06-12-2019 23:51:18 6.8 C 30 %
145 07-12-2019 00:01:17 6.9 C 30 %
146 07-12-2019 00:11:17 7 C 28 %
147 07-12-2019 00:21:17 7.2 C 28 %
148 07-12-2019 00:31:17 7.2 C 28 %
149 07-12-2019 00:41:17 7.2 C 28 %
150 07-12-2019 00:51:17 7.4 C 28 %
Sensor: Nr:Datum:Temp:Feuchte:
Aussen-T/F 151 07-12-2019 01:01:17 7.4 C 28 %
152 07-12-2019 01:11:17 7.6 C 28 %
153 07-12-2019 01:21:17 7.7 C 28 %
154 07-12-2019 01:31:18 7.8 C 28 %
155 07-12-2019 01:41:18 7.6 C 29 %
156 07-12-2019 01:51:17 7.6 C 29 %
157 07-12-2019 02:01:17 7.5 C 30 %
158 07-12-2019 02:11:17 7.7 C 31 %
159 07-12-2019 02:21:17 7.5 C 31 %
160 07-12-2019 02:31:17 7.1 C 35 %
161 07-12-2019 02:41:17 7.2 C 38 %
162 07-12-2019 02:51:17 7.3 C 35 %
163 07-12-2019 03:01:17 7.4 C 35 %
164 07-12-2019 03:11:17 7.6 C 33 %
165 07-12-2019 03:21:17 8.4 C 30 %
166 07-12-2019 03:31:17 8.5 C 29 %
167 07-12-2019 03:41:17 8.7 C 28 %
168 07-12-2019 03:51:17 9 C 27 %
169 07-12-2019 04:01:18 8.4 C 29 %
170 07-12-2019 04:11:18 8.5 C 29 %
171 07-12-2019 04:21:17 8 C 30 %
172 07-12-2019 04:31:17 7.9 C 30 %
173 07-12-2019 04:41:17 8 C 30 %
174 07-12-2019 04:51:17 8 C 30 %
175 07-12-2019 05:01:17 7.7 C 30 %
Sensor: Nr:Datum:Temp:Feuchte:
Aussen-T/F 176 07-12-2019 05:11:17 8 C 30 %
177 07-12-2019 05:21:17 8 C 30 %
178 07-12-2019 05:31:17 7.8 C 31 %
179 07-12-2019 05:41:17 8.2 C 30 %
180 07-12-2019 05:51:18 7.2 C 31 %
181 07-12-2019 06:01:18 7.6 C 30 %
182 07-12-2019 06:11:18 8.7 C 26 %
183 07-12-2019 06:21:17 8.6 C 26 %
184 07-12-2019 06:31:18 8.2 C 26 %
185 07-12-2019 06:41:18 8.1 C 26 %
186 07-12-2019 06:51:17 7.5 C 27 %
187 07-12-2019 07:01:17 6.8 C 30 %
188 07-12-2019 07:11:17 7.1 C 28 %
189 07-12-2019 07:21:17 7.3 C 27 %
190 07-12-2019 07:31:17 6.8 C 30 %
191 07-12-2019 07:41:17 6.3 C 31 %
192 07-12-2019 07:51:18 7.8 C 28 %
193 07-12-2019 08:01:18 8 C 27 %
194 07-12-2019 08:11:18 7.9 C 28 %
195 07-12-2019 08:21:17 8.1 C 28 %
196 07-12-2019 08:31:17 8.1 C 27 %
197 07-12-2019 08:41:17 8.3 C 28 %
198 07-12-2019 08:51:17 8.4 C 27 %
199 07-12-2019 09:01:17 8.4 C 27 %
200 07-12-2019 09:11:17 8.3 C 28 %
Sensor: Nr:Datum:Temp:Feuchte:
Aussen-T/F 201 07-12-2019 09:21:17 8.2 C 28 %
202 07-12-2019 09:31:17 8.1 C 29 %
203 07-12-2019 09:41:17 8.3 C 28 %
204 07-12-2019 09:51:18 8.6 C 27 %
205 07-12-2019 10:01:17 8.6 C 27 %
206 07-12-2019 10:11:17 8.8 C 27 %
207 07-12-2019 10:21:17 9 C 26 %
208 07-12-2019 10:31:17 9.1 C 25 %
209 07-12-2019 10:41:17 9.1 C 26 %
210 07-12-2019 10:51:18 9.2 C 25 %
211 07-12-2019 11:01:18 9 C 26 %
212 07-12-2019 11:11:18 8.4 C 29 %
213 07-12-2019 11:21:17 8.3 C 30 %
214 07-12-2019 11:31:17 8.4 C 30 %
215 07-12-2019 11:41:17 8.5 C 30 %
216 07-12-2019 11:51:17 8.6 C 28 %
217 07-12-2019 12:01:17 8.8 C 27 %
218 07-12-2019 12:11:17 8.9 C 27 %
219 07-12-2019 12:21:17 9.2 C 25 %
220 07-12-2019 12:31:18 9.4 C 25 %
221 07-12-2019 12:41:18 9.5 C 25 %
222 07-12-2019 12:51:17 9.5 C 25 %
223 07-12-2019 13:01:17 9.7 C 23 %
224 07-12-2019 13:11:17 10 C 20 %
225 07-12-2019 13:21:17 9.8 C 20 %
Sensor: Nr:Datum:Temp:Feuchte:
Aussen-T/F 226 07-12-2019 13:31:17 9.8 C 20 %
227 07-12-2019 13:41:17 9.9 C 20 %
228 07-12-2019 13:51:17 9.9 C 20 %
229 07-12-2019 14:01:17 9.8 C 20 %
230 07-12-2019 14:11:17 9.7 C 20 %
231 07-12-2019 14:21:17 9.9 C 20 %
232 07-12-2019 14:31:18 9.9 C 20 %
233 07-12-2019 14:41:18 9.9 C 20 %
234 07-12-2019 14:51:17 9.9 C 20 %
235 07-12-2019 15:01:17 9.9 C 20 %
236 07-12-2019 15:11:17 9.7 C 21 %
237 07-12-2019 15:21:17 9.6 C 21 %
238 07-12-2019 15:31:17 9.7 C 21 %
239 07-12-2019 15:41:17 9.6 C 20 %
240 07-12-2019 15:51:17 9.4 C 23 %
241 07-12-2019 16:01:17 9 C 25 %
242 07-12-2019 16:11:17 8.9 C 25 %
243 07-12-2019 16:21:18 8.8 C 25 %
244 07-12-2019 16:31:17 8.6 C 26 %
245 07-12-2019 16:41:18 8.5 C 26 %
246 07-12-2019 16:51:17 8.2 C 27 %
247 07-12-2019 17:01:17 8.1 C 29 %
248 07-12-2019 17:11:17 8.2 C 28 %
249 07-12-2019 17:21:17 8.1 C 28 %
250 07-12-2019 17:31:18 8.2 C 28 %
Sensor: Nr:Datum:Temp:Feuchte:
Aussen-T/F 251 07-12-2019 17:41:18 8.3 C 27 %
252 07-12-2019 17:51:17 8.1 C 27 %
253 07-12-2019 18:01:18 8 C 28 %
254 07-12-2019 18:11:18 8 C 27 %
255 07-12-2019 18:21:17 7.8 C 28 %
256 07-12-2019 18:31:17 7.7 C 29 %
257 07-12-2019 18:41:17 7.6 C 30 %
258 07-12-2019 18:51:17 7.6 C 30 %
259 07-12-2019 19:01:17 7.5 C 31 %
260 07-12-2019 19:11:17 7.5 C 31 %
261 07-12-2019 19:21:17 7.5 C 32 %
262 07-12-2019 19:31:17 7.7 C 31 %
263 07-12-2019 19:41:17 7.6 C 30 %
264 07-12-2019 19:51:17 7.7 C 30 %
265 07-12-2019 20:01:18 7.4 C 30 %
266 07-12-2019 20:11:18 7.3 C 31 %
267 07-12-2019 20:21:17 7.3 C 31 %
268 07-12-2019 20:31:17 7.4 C 30 %
269 07-12-2019 20:41:17 7.6 C 30 %
270 07-12-2019 20:51:17 7.6 C 30 %
271 07-12-2019 21:01:17 7.5 C 30 %
272 07-12-2019 21:11:17 7.6 C 30 %
273 07-12-2019 21:21:17 8 C 28 %
274 07-12-2019 21:31:17 8.1 C 28 %
275 07-12-2019 21:41:17 8.2 C 28 %
Sensor: Nr:Datum:Temp:Feuchte:
Aussen-T/F 276 07-12-2019 21:51:17 7.9 C 28 %
277 07-12-2019 22:01:17 8.2 C 28 %
278 07-12-2019 22:11:17 8.1 C 27 %
279 07-12-2019 22:21:17 7.8 C 28 %
280 07-12-2019 22:31:18 7.7 C 30 %
281 07-12-2019 22:41:18 7.6 C 30 %
282 07-12-2019 22:51:17 7.5 C 31 %
283 07-12-2019 23:01:17 7.4 C 32 %
284 07-12-2019 23:11:17 7.6 C 31 %
285 07-12-2019 23:21:17 7.6 C 32 %
286 07-12-2019 23:31:17 7.5 C 32 %
287 07-12-2019 23:41:17 7.7 C 31 %
288 07-12-2019 23:51:18 7.9 C 28 %
289 08-12-2019 00:01:17 8.1 C 27 %
290 08-12-2019 00:11:17 8.9 C 23 %
291 08-12-2019 00:21:17 8.9 C 21 %
292 08-12-2019 00:31:18 9 C 21 %
293 08-12-2019 00:41:18 8.9 C 23 %
294 08-12-2019 00:51:17 8.5 C 25 %
295 08-12-2019 01:01:18 8.3 C 25 %
296 08-12-2019 01:11:18 8.5 C 25 %
297 08-12-2019 01:21:17 8.4 C 26 %
298 08-12-2019 01:31:17 8.9 C 25 %
299 08-12-2019 01:41:17 8.8 C 25 %
300 08-12-2019 01:51:18 9.2 C 20 %
Sensor: Nr:Datum:Temp:Feuchte:
Aussen-T/F 301 08-12-2019 02:01:17 9.2 C 20 %
302 08-12-2019 02:11:17 8.9 C 20 %
303 08-12-2019 02:21:17 9 C 20 %
304 08-12-2019 02:31:17 9.1 C 20 %
305 08-12-2019 02:41:18 9 C 20 %
306 08-12-2019 02:51:17 9.1 C 20 %
307 08-12-2019 03:01:17 9 C 20 %
308 08-12-2019 03:11:17 9.1 C 20 %
309 08-12-2019 03:21:17 9.1 C 20 %
310 08-12-2019 03:31:17 9.3 C 20 %
311 08-12-2019 03:41:17 9.3 C 20 %
312 08-12-2019 03:51:17 9.4 C 20 %
313 08-12-2019 04:01:17 9.7 C 20 %
314 08-12-2019 04:11:18 9.6 C 20 %
315 08-12-2019 04:21:17 9.5 C 20 %
316 08-12-2019 04:31:17 9.6 C 20 %
317 08-12-2019 04:41:17 9.6 C 20 %
318 08-12-2019 04:51:17 9.5 C 20 %
319 08-12-2019 05:01:17 9.6 C 20 %
320 08-12-2019 05:11:17 9.5 C 21 %
321 08-12-2019 05:21:17 9.5 C 21 %
322 08-12-2019 05:31:17 9.4 C 23 %
323 08-12-2019 05:41:17 9.5 C 23 %
324 08-12-2019 05:51:17 9.2 C 25 %
325 08-12-2019 06:01:17 9.3 C 25 %
Sensor: Nr:Datum:Temp:Feuchte:
Aussen-T/F 326 08-12-2019 06:11:18 9.5 C 25 %
327 08-12-2019 06:21:17 9.9 C 21 %
328 08-12-2019 06:31:17 9.8 C 23 %
329 08-12-2019 06:41:17 9.7 C 25 %
330 08-12-2019 06:51:17 9.9 C 23 %
331 08-12-2019 07:01:18 10 C 21 %
332 08-12-2019 07:11:18 10.1 C 20 %
333 08-12-2019 07:21:17 9.9 C 21 %
334 08-12-2019 07:31:17 10 C 21 %
335 08-12-2019 07:41:17 10.1 C 20 %
336 08-12-2019 07:51:17 10 C 20 %
337 08-12-2019 08:01:17 10 C 20 %
338 08-12-2019 08:11:17 10.2 C 20 %
339 08-12-2019 08:21:17 10.1 C 20 %
340 08-12-2019 08:31:17 10.3 C 21 %
341 08-12-2019 08:41:17 10.1 C 21 %
342 08-12-2019 08:51:17 10.3 C 21 %
343 08-12-2019 09:01:17 10.3 C 21 %
344 08-12-2019 09:11:17 10.1 C 21 %
345 08-12-2019 09:21:17 10.2 C 21 %
346 08-12-2019 09:31:17 10.3 C 21 %
347 08-12-2019 09:41:17 10.4 C 21 %
348 08-12-2019 09:51:17 10.4 C 21 %
349 08-12-2019 10:01:17 10.4 C 21 %
350 08-12-2019 10:11:17 10.5 C 21 %
Sensor: Nr:Datum:Temp:Feuchte:
Aussen-T/F 351 08-12-2019 10:21:17 10.5 C 22 %
352 08-12-2019 10:31:17 10.5 C 22 %
353 08-12-2019 10:41:17 10.1 C 25 %
354 08-12-2019 10:51:17 10.2 C 25 %
355 08-12-2019 11:01:17 10.5 C 25 %
356 08-12-2019 11:11:17 10.6 C 23 %
357 08-12-2019 11:21:17 10.8 C 23 %
358 08-12-2019 11:31:17 10.8 C 23 %
359 08-12-2019 11:41:17 10.8 C 22 %
360 08-12-2019 11:51:17 11 C 22 %
361 08-12-2019 12:01:18 11.1 C 22 %
362 08-12-2019 12:11:18 11.3 C 22 %
363 08-12-2019 12:21:17 11.4 C 22 %
364 08-12-2019 12:31:17 11.4 C 22 %
365 08-12-2019 12:41:17 11.4 C 23 %
366 08-12-2019 12:51:17 11.3 C 24 %
367 08-12-2019 13:01:18 11.5 C 24 %
368 08-12-2019 13:11:18 11.5 C 22 %
369 08-12-2019 13:21:17 11.3 C 25 %
370 08-12-2019 13:31:17 11.1 C 25 %
371 08-12-2019 13:41:17 11.4 C 25 %
372 08-12-2019 13:51:17 11.4 C 25 %
373 08-12-2019 14:01:17 11.5 C 25 %
374 08-12-2019 14:11:17 11.5 C 25 %
375 08-12-2019 14:21:17 11.5 C 25 %
Sensor: Nr:Datum:Temp:Feuchte:
Aussen-T/F 376 08-12-2019 14:31:18 11.7 C 25 %
377 08-12-2019 14:41:18 11.7 C 25 %
378 08-12-2019 14:51:17 11.7 C 25 %
379 08-12-2019 15:01:18 11.8 C 25 %
380 08-12-2019 15:11:18 11.8 C 25 %
381 08-12-2019 15:21:18 11.7 C 25 %
382 08-12-2019 15:31:18 11.7 C 25 %
383 08-12-2019 15:41:18 11.8 C 25 %
384 08-12-2019 15:51:17 11.8 C 25 %
385 08-12-2019 16:01:17 11.7 C 25 %
386 08-12-2019 16:11:17 11.8 C 25 %
387 08-12-2019 16:21:18 11.7 C 25 %
388 08-12-2019 16:31:18 11.6 C 26 %
389 08-12-2019 16:41:18 11.4 C 27 %
390 08-12-2019 16:51:17 9.4 C 31 %
391 08-12-2019 17:01:17 8.9 C 33 %
392 08-12-2019 17:11:17 8.8 C 33 %
393 08-12-2019 17:21:17 8.7 C 34 %
394 08-12-2019 17:31:17 9.2 C 27 %
395 08-12-2019 17:41:17 8.5 C 33 %
396 08-12-2019 17:51:17 8.5 C 33 %
397 08-12-2019 18:01:17 8.5 C 32 %
398 08-12-2019 18:11:17 8.6 C 31 %
399 08-12-2019 18:21:17 8.2 C 33 %
400 08-12-2019 18:31:18 8.5 C 29 %
Sensor: Nr:Datum:Temp:Feuchte:
Aussen-T/F 401 08-12-2019 18:41:18 8.5 C 29 %
402 08-12-2019 18:51:17 8.6 C 28 %
403 08-12-2019 19:01:17 8.9 C 27 %
404 08-12-2019 19:11:17 8.5 C 28 %
405 08-12-2019 19:21:17 8.5 C 28 %
406 08-12-2019 19:31:17 8.6 C 27 %
407 08-12-2019 19:41:17 8 C 31 %
408 08-12-2019 19:51:18 7.8 C 33 %
409 08-12-2019 20:01:17 7.5 C 36 %
410 08-12-2019 20:11:17 8.1 C 33 %
411 08-12-2019 20:21:17 8.2 C 30 %
412 08-12-2019 20:31:17 8.3 C 29 %
413 08-12-2019 20:41:17 8.5 C 28 %
414 08-12-2019 20:51:17 8.6 C 26 %
415 08-12-2019 21:01:18 8.8 C 26 %
416 08-12-2019 21:11:18 8.9 C 25 %
417 08-12-2019 21:21:17 8.4 C 26 %
418 08-12-2019 21:31:17 8.7 C 26 %
419 08-12-2019 21:41:17 8.4 C 26 %
420 08-12-2019 21:51:18 8.4 C 26 %
421 08-12-2019 22:01:17 8.5 C 26 %
422 08-12-2019 22:11:17 7.9 C 27 %
423 08-12-2019 22:21:17 8.1 C 26 %
424 08-12-2019 22:31:17 8.6 C 26 %
425 08-12-2019 22:41:17 8.8 C 26 %
Sensor: Nr:Datum:Temp:Feuchte:
Aussen-T/F 426 08-12-2019 22:51:17 8.7 C 25 %
427 08-12-2019 23:01:17 8.8 C 25 %
428 08-12-2019 23:11:17 8.7 C 26 %
429 08-12-2019 23:21:17 8.8 C 25 %
430 08-12-2019 23:31:18 8.7 C 25 %
431 08-12-2019 23:41:18 8.5 C 25 %
432 08-12-2019 23:51:17 8.4 C 21 %
433 09-12-2019 00:01:18 8.7 C 20 %
434 09-12-2019 00:11:18 8.1 C 21 %
435 09-12-2019 00:21:17 8.4 C 21 %
436 09-12-2019 00:31:17 8.4 C 21 %
437 09-12-2019 00:41:17 8.5 C 20 %
438 09-12-2019 00:51:17 8.4 C 20 %
439 09-12-2019 01:01:17 8.4 C 20 %
440 09-12-2019 01:11:17 8.5 C 20 %
441 09-12-2019 01:21:18 8.1 C 20 %
442 09-12-2019 01:31:17 8 C 20 %
443 09-12-2019 01:41:17 8.3 C 20 %
444 09-12-2019 01:51:17 8.2 C 20 %
445 09-12-2019 02:01:17 7.8 C 20 %
446 09-12-2019 02:11:17 7.6 C 20 %
447 09-12-2019 02:21:17 7.4 C 21 %
448 09-12-2019 02:31:18 7.4 C 21 %
449 09-12-2019 02:41:18 7.1 C 23 %
450 09-12-2019 02:51:18 7.5 C 20 %
Sensor: Nr:Datum:Temp:Feuchte:
Aussen-T/F 451 09-12-2019 03:01:17 7.5 C 20 %
452 09-12-2019 03:11:17 7.5 C 20 %
453 09-12-2019 03:21:17 7.5 C 20 %
454 09-12-2019 03:31:17 7.3 C 20 %
455 09-12-2019 03:41:17 6.8 C 23 %
456 09-12-2019 03:51:17 7.3 C 21 %
457 09-12-2019 04:01:17 7.3 C 20 %
458 09-12-2019 04:11:17 7.9 C 20 %
459 09-12-2019 04:21:18 8 C 20 %
460 09-12-2019 04:31:18 7.6 C 20 %
461 09-12-2019 04:41:18 7.4 C 21 %
462 09-12-2019 04:51:17 6.9 C 25 %
463 09-12-2019 05:01:17 6.9 C 25 %
464 09-12-2019 05:11:17 7.4 C 20 %
465 09-12-2019 05:21:17 7.5 C 20 %
466 09-12-2019 05:31:17 7.4 C 20 %
467 09-12-2019 05:41:18 7.1 C 20 %
468 09-12-2019 05:51:17 7.2 C 20 %
469 09-12-2019 06:01:17 7.4 C 20 %
470 09-12-2019 06:11:17 7.4 C 20 %
471 09-12-2019 06:21:17 7.4 C 20 %
472 09-12-2019 06:31:17 7.6 C 20 %
473 09-12-2019 06:41:17 7.8 C 20 %
474 09-12-2019 06:51:18 7.7 C 20 %
475 09-12-2019 07:01:17 7.6 C 20 %
Sensor: Nr:Datum:Temp:Feuchte:
Aussen-T/F 476 09-12-2019 07:11:18 7.5 C 20 %
477 09-12-2019 07:21:17 7.2 C 20 %
478 09-12-2019 07:31:17 7.2 C 20 %
479 09-12-2019 07:41:17 7.6 C 20 %
480 09-12-2019 07:51:18 7.5 C 20 %
481 09-12-2019 08:01:17 7.9 C 20 %
482 09-12-2019 08:11:17 7.8 C 20 %
483 09-12-2019 08:21:17 7.9 C 20 %
484 09-12-2019 08:31:17 8 C 20 %
485 09-12-2019 08:41:17 7.9 C 20 %
486 09-12-2019 08:51:17 7.9 C 20 %
487 09-12-2019 09:01:17 7.8 C 20 %
488 09-12-2019 09:11:17 7.9 C 20 %
489 09-12-2019 09:21:17 7.5 C 20 %
490 09-12-2019 09:31:17 7.4 C 23 %
491 09-12-2019 09:41:17 7.5 C 21 %
492 09-12-2019 09:51:17 7.7 C 21 %
493 09-12-2019 10:01:17 7.9 C 21 %
494 09-12-2019 10:11:17 7.9 C 21 %
495 09-12-2019 10:21:17 7.9 C 20 %
496 09-12-2019 10:31:18 7.9 C 21 %
497 09-12-2019 10:41:18 7.9 C 21 %
498 09-12-2019 10:51:17 8.1 C 20 %
499 09-12-2019 11:01:17 8 C 20 %
500 09-12-2019 11:11:17 8.2 C 20 %
Sensor: Nr:Datum:Temp:Feuchte:
Aussen-T/F 501 09-12-2019 11:21:17 8.4 C 20 %
502 09-12-2019 11:31:18 8.4 C 20 %
503 09-12-2019 11:41:18 8.3 C 20 %
504 09-12-2019 11:51:17 8.1 C 20 %
505 09-12-2019 12:01:17 8.2 C 20 %
506 09-12-2019 12:11:17 8 C 20 %
507 09-12-2019 12:21:18 8.1 C 20 %
508 09-12-2019 12:31:17 8.3 C 20 %
509 09-12-2019 12:41:17 8.2 C 20 %
510 09-12-2019 12:51:17 8.3 C 20 %
511 09-12-2019 13:01:18 8.3 C 20 %
512 09-12-2019 13:11:18 8.3 C 20 %
513 09-12-2019 13:21:17 8.2 C 20 %
514 09-12-2019 13:31:17 8.1 C 20 %
515 09-12-2019 13:41:17 8.5 C 20 %
516 09-12-2019 13:51:17 8.8 C 20 %
517 09-12-2019 14:01:17 8.6 C 20 %
518 09-12-2019 14:11:17 8.5 C 20 %
519 09-12-2019 14:21:17 8.6 C 20 %
520 09-12-2019 14:31:17 8.4 C 20 %
521 09-12-2019 14:41:17 7.9 C 20 %
522 09-12-2019 14:51:18 8.4 C 20 %
523 09-12-2019 15:01:17 7.9 C 20 %
524 09-12-2019 15:11:17 7.3 C 25 %
525 09-12-2019 15:21:17 7 C 27 %
Sensor: Nr:Datum:Temp:Feuchte:
Aussen-T/F 526 09-12-2019 15:31:18 7.1 C 26 %
527 09-12-2019 15:41:18 7.1 C 25 %
528 09-12-2019 15:51:17 7.4 C 23 %
529 09-12-2019 16:01:18 7.5 C 20 %
530 09-12-2019 16:11:18 7.5 C 20 %
531 09-12-2019 16:21:17 7.6 C 20 %
532 09-12-2019 16:31:18 7.3 C 20 %
533 09-12-2019 16:41:18 7.4 C 20 %
534 09-12-2019 16:51:17 7.3 C 20 %
535 09-12-2019 17:01:18 7.1 C 20 %
536 09-12-2019 17:11:18 7.2 C 20 %
537 09-12-2019 17:21:17 6.7 C 25 %
538 09-12-2019 17:31:17 6.1 C 32 %
539 09-12-2019 17:41:17 5.9 C 36 %
540 09-12-2019 17:51:17 6 C 34 %
541 09-12-2019 18:01:18 6 C 30 %
542 09-12-2019 18:11:18 6.1 C 31 %
543 09-12-2019 18:21:17 6 C 33 %
544 09-12-2019 18:31:17 5.8 C 35 %
545 09-12-2019 18:41:17 5.7 C 37 %
546 09-12-2019 18:51:18 5.7 C 38 %
547 09-12-2019 19:01:17 5.6 C 35 %
548 09-12-2019 19:11:17 5.5 C 38 %
549 09-12-2019 19:21:17 5.6 C 39 %
550 09-12-2019 19:31:17 5.6 C 38 %
Sensor: Nr:Datum:Temp:Feuchte:
Aussen-T/F 551 09-12-2019 19:41:17 5.6 C 38 %
552 09-12-2019 19:51:17 5.6 C 37 %
553 09-12-2019 20:01:17 5.6 C 35 %
554 09-12-2019 20:11:17 5.6 C 34 %
555 09-12-2019 20:21:17 5.6 C 35 %
556 09-12-2019 20:31:17 5.6 C 32 %
557 09-12-2019 20:41:17 5.4 C 33 %
558 09-12-2019 20:51:17 5.3 C 34 %
559 09-12-2019 21:01:17 5.2 C 33 %
560 09-12-2019 21:11:18 5.1 C 34 %
561 09-12-2019 21:21:17 5.2 C 35 %
562 09-12-2019 21:31:17 5.3 C 32 %
563 09-12-2019 21:41:17 5.1 C 31 %
564 09-12-2019 21:51:17 5 C 31 %
565 09-12-2019 22:01:17 4.8 C 32 %
566 09-12-2019 22:11:17 4.7 C 31 %
567 09-12-2019 22:21:17 4.9 C 30 %
568 09-12-2019 22:31:17 4.9 C 30 %
569 09-12-2019 22:41:17 4.9 C 30 %
570 09-12-2019 22:51:18 4.7 C 30 %
571 09-12-2019 23:01:17 4.6 C 29 %
572 09-12-2019 23:11:17 4.5 C 29 %
573 09-12-2019 23:21:17 4.1 C 30 %
574 09-12-2019 23:31:18 4 C 30 %
575 09-12-2019 23:41:18 4.1 C 29 %
Sensor: Nr:Datum:Temp:Feuchte:
Aussen-T/F 576 09-12-2019 23:51:17 4.1 C 29 %
577 10-12-2019 00:01:17 3.7 C 30 %
578 10-12-2019 00:11:17 4.1 C 28 %
579 10-12-2019 00:21:17 3.4 C 30 %
580 10-12-2019 00:31:17 3.6 C 30 %
581 10-12-2019 00:41:17 3.1 C 31 %
582 10-12-2019 00:51:17 3 C 31 %
583 10-12-2019 01:01:17 2.4 C 33 %
584 10-12-2019 01:11:17 2.4 C 36 %
585 10-12-2019 01:21:17 2.5 C 36 %
586 10-12-2019 01:31:18 2.8 C 34 %
587 10-12-2019 01:41:18 2.4 C 34 %
588 10-12-2019 01:51:17 2.4 C 33 %
589 10-12-2019 02:01:18 2.7 C 33 %
590 10-12-2019 02:11:18 2.9 C 32 %
591 10-12-2019 02:21:17 2.3 C 33 %
592 10-12-2019 02:31:17 2.1 C 35 %
593 10-12-2019 02:41:17 1.7 C 37 %
594 10-12-2019 02:51:17 1.6 C 39 %
595 10-12-2019 03:01:17 1.8 C 40 %
596 10-12-2019 03:11:17 1.8 C 40 %
597 10-12-2019 03:21:17 1.8 C 40 %
598 10-12-2019 03:31:17 2 C 40 %
599 10-12-2019 03:41:17 1.4 C 41 %
600 10-12-2019 03:51:17 1.4 C 43 %
Sensor: Nr:Datum:Temp:Feuchte:
Aussen-T/F 601 10-12-2019 04:01:17 1.1 C 43 %
602 10-12-2019 04:11:17 1.3 C 41 %
603 10-12-2019 04:21:17 0.6 C 41 %
604 10-12-2019 04:31:18 0.6 C 44 %
605 10-12-2019 04:41:18 0.7 C 45 %
606 10-12-2019 04:51:17 0.9 C 46 %
607 10-12-2019 05:01:17 1.1 C 44 %
608 10-12-2019 05:11:17 1.8 C 41 %
609 10-12-2019 05:21:18 2.2 C 35 %
610 10-12-2019 05:31:18 2 C 35 %
611 10-12-2019 05:41:18 2 C 35 %
612 10-12-2019 05:51:17 1.8 C 36 %
613 10-12-2019 06:01:17 1.5 C 36 %
614 10-12-2019 06:11:17 1.6 C 37 %
615 10-12-2019 06:21:18 1.4 C 36 %
616 10-12-2019 06:31:17 1.1 C 38 %
617 10-12-2019 06:41:17 0.9 C 42 %
618 10-12-2019 06:51:17 1.2 C 42 %
619 10-12-2019 07:01:18 1.3 C 40 %
620 10-12-2019 07:11:18 1.5 C 40 %
621 10-12-2019 07:21:17 1.7 C 36 %
622 10-12-2019 07:31:17 1.2 C 37 %
623 10-12-2019 07:41:17 0.8 C 41 %
624 10-12-2019 07:51:17 0.8 C 41 %
625 10-12-2019 08:01:17 0.7 C 41 %
Sensor: Nr:Datum:Temp:Feuchte:
Aussen-T/F 626 10-12-2019 08:11:17 0.8 C 41 %
627 10-12-2019 08:21:17 0.4 C 42 %
628 10-12-2019 08:31:18 0.6 C 42 %
629 10-12-2019 08:41:18 0.4 C 42 %
630 10-12-2019 08:51:17 0.4 C 43 %
631 10-12-2019 09:01:17 0.1 C 42 %
632 10-12-2019 09:11:17 0.5 C 44 %
633 10-12-2019 09:21:17 0.8 C 44 %
634 10-12-2019 09:31:17 1.4 C 42 %
635 10-12-2019 09:41:17 1.7 C 39 %
636 10-12-2019 09:51:17 1.8 C 39 %
637 10-12-2019 10:01:17 2.2 C 36 %
638 10-12-2019 10:11:17 2.5 C 35 %
639 10-12-2019 10:21:17 2.7 C 33 %
640 10-12-2019 10:31:17 2.7 C 33 %
641 10-12-2019 10:41:17 2.5 C 33 %
642 10-12-2019 10:51:17 2.4 C 35 %
643 10-12-2019 11:01:17 2.4 C 34 %
644 10-12-2019 11:11:17 2.5 C 34 %
645 10-12-2019 11:21:17 2.3 C 35 %
646 10-12-2019 11:31:18 2.2 C 36 %
647 10-12-2019 11:41:18 2.9 C 34 %
648 10-12-2019 11:51:17 3.5 C 30 %
649 10-12-2019 12:01:17 3.7 C 30 %
650 10-12-2019 12:11:17 3.8 C 30 %
Sensor: Nr:Datum:Temp:Feuchte:
Aussen-T/F 651 10-12-2019 12:21:17 3.9 C 30 %
652 10-12-2019 12:31:17 3.9 C 30 %
653 10-12-2019 12:41:17 4.3 C 27 %
654 10-12-2019 12:51:17 4.5 C 27 %
655 10-12-2019 13:01:17 4.6 C 27 %
656 10-12-2019 13:11:17 4.7 C 27 %
657 10-12-2019 13:21:17 4.7 C 27 %
658 10-12-2019 13:31:17 4.9 C 27 %
659 10-12-2019 13:41:17 5.1 C 25 %
660 10-12-2019 13:51:17 5 C 25 %
661 10-12-2019 14:01:17 4.6 C 27 %
662 10-12-2019 14:11:17 4.2 C 28 %
663 10-12-2019 14:21:17 3.8 C 30 %
664 10-12-2019 14:31:18 3.9 C 30 %
665 10-12-2019 14:41:18 3.8 C 30 %
666 10-12-2019 14:51:17 3.5 C 30 %
667 10-12-2019 15:01:17 3.5 C 30 %
668 10-12-2019 15:11:17 3.3 C 31 %
669 10-12-2019 15:21:17 3.2 C 31 %
670 10-12-2019 15:31:17 3.1 C 31 %
671 10-12-2019 15:41:18 3.2 C 31 %
672 10-12-2019 15:51:17 2.9 C 31 %
673 10-12-2019 16:01:17 2.4 C 32 %
674 10-12-2019 16:11:17 3.1 C 31 %
675 10-12-2019 16:21:17 3.4 C 30 %
Sensor: Nr:Datum:Temp:Feuchte:
Aussen-T/F 676 10-12-2019 16:31:17 3.5 C 28 %
677 10-12-2019 16:41:17 3.3 C 28 %
678 10-12-2019 16:51:17 3.3 C 26 %
679 10-12-2019 17:01:17 2.8 C 27 %
680 10-12-2019 17:11:17 2.7 C 27 %
681 10-12-2019 17:21:18 2.7 C 27 %
682 10-12-2019 17:31:17 2.7 C 27 %
683 10-12-2019 17:41:17 2.6 C 27 %
684 10-12-2019 17:51:17 2.4 C 28 %
685 10-12-2019 18:01:17 2.3 C 27 %
686 10-12-2019 18:11:17 1.7 C 31 %
687 10-12-2019 18:21:17 1.9 C 32 %
688 10-12-2019 18:31:17 1.8 C 33 %
689 10-12-2019 18:41:17 1.7 C 34 %
690 10-12-2019 18:51:17 1.6 C 35 %
691 10-12-2019 19:01:17 1.5 C 36 %
692 10-12-2019 19:11:17 1.5 C 36 %
693 10-12-2019 19:21:17 1.6 C 36 %
694 10-12-2019 19:31:17 1.5 C 36 %
695 10-12-2019 19:41:18 1.7 C 36 %
696 10-12-2019 19:51:17 1.7 C 35 %
697 10-12-2019 20:01:17 2.2 C 32 %
698 10-12-2019 20:11:17 2.1 C 32 %
699 10-12-2019 20:21:17 2.7 C 29 %
700 10-12-2019 20:31:18 2.9 C 28 %
Sensor: Nr:Datum:Temp:Feuchte:
Aussen-T/F 701 10-12-2019 20:41:18 2.6 C 30 %
702 10-12-2019 20:51:17 2.3 C 30 %
703 10-12-2019 21:01:17 2.5 C 31 %
704 10-12-2019 21:11:17 2.3 C 31 %
705 10-12-2019 21:21:17 2.1 C 32 %
706 10-12-2019 21:31:17 2 C 33 %
707 10-12-2019 21:41:18 1.8 C 35 %
708 10-12-2019 21:51:17 1.8 C 36 %
709 10-12-2019 22:01:17 1.8 C 36 %
710 10-12-2019 22:11:17 2.1 C 35 %
711 10-12-2019 22:21:17 2.2 C 34 %
712 10-12-2019 22:31:17 2.4 C 32 %
713 10-12-2019 22:41:17 2.5 C 33 %
714 10-12-2019 22:51:18 2.8 C 31 %
715 10-12-2019 23:01:17 2.9 C 30 %
716 10-12-2019 23:11:17 3 C 30 %
717 10-12-2019 23:21:17 3 C 30 %
718 10-12-2019 23:31:17 2.9 C 31 %
719 10-12-2019 23:41:17 3.3 C 28 %
720 10-12-2019 23:51:17 3.3 C 30 %
721 11-12-2019 00:01:18 3.2 C 30 %
722 11-12-2019 00:11:18 3.3 C 29 %
723 11-12-2019 00:21:17 3.4 C 28 %
724 11-12-2019 00:31:17 3.4 C 29 %
725 11-12-2019 00:41:17 3.5 C 27 %
Sensor: Nr:Datum:Temp:Feuchte:
Aussen-T/F 726 11-12-2019 00:51:17 3.4 C 27 %
727 11-12-2019 01:01:17 3.5 C 25 %
728 11-12-2019 01:11:17 3.4 C 27 %
729 11-12-2019 01:21:18 3.4 C 28 %
730 11-12-2019 01:31:17 3.4 C 29 %
731 11-12-2019 01:41:17 3.2 C 30 %
732 11-12-2019 01:51:17 3.1 C 32 %
733 11-12-2019 02:01:17 3 C 33 %
734 11-12-2019 02:11:17 2.9 C 33 %
735 11-12-2019 02:21:17 2.9 C 32 %
736 11-12-2019 02:31:18 2.8 C 34 %
737 11-12-2019 02:41:18 2.9 C 31 %
738 11-12-2019 02:51:17 3 C 30 %
739 11-12-2019 03:01:18 3.1 C 30 %
740 11-12-2019 03:11:18 3 C 32 %
741 11-12-2019 03:21:17 2.9 C 30 %
742 11-12-2019 03:31:17 3 C 30 %
743 11-12-2019 03:41:17 3 C 35 %
744 11-12-2019 03:51:17 2.8 C 36 %
745 11-12-2019 04:01:17 2.7 C 35 %
746 11-12-2019 04:11:17 2.8 C 35 %
747 11-12-2019 04:21:17 2.8 C 35 %
748 11-12-2019 04:31:18 2.8 C 38 %
749 11-12-2019 04:41:18 2.7 C 38 %
750 11-12-2019 04:51:17 2.7 C 39 %
Sensor: Nr:Datum:Temp:Feuchte:
Aussen-T/F 751 11-12-2019 05:01:17 2.7 C 39 %
752 11-12-2019 05:11:17 2.7 C 39 %
753 11-12-2019 05:21:18 2.7 C 40 %
754 11-12-2019 05:31:17 2.6 C 42 %
755 11-12-2019 05:41:17 2.6 C 43 %
756 11-12-2019 05:51:17 2.5 C 44 %
757 11-12-2019 06:01:18 2.5 C 44 %
758 11-12-2019 06:11:18 2.5 C 44 %
759 11-12-2019 06:21:17 2.5 C 44 %
760 11-12-2019 06:31:17 2.5 C 44 %
761 11-12-2019 06:41:17 2.5 C 44 %
762 11-12-2019 06:51:17 2.5 C 44 %
763 11-12-2019 07:01:17 2.4 C 44 %
764 11-12-2019 07:11:17 2.5 C 44 %
765 11-12-2019 07:21:17 2.4 C 44 %
766 11-12-2019 07:31:17 2.4 C 44 %
767 11-12-2019 07:41:18 2.4 C 43 %
768 11-12-2019 07:51:17 2.4 C 43 %
769 11-12-2019 08:01:17 2.4 C 43 %
770 11-12-2019 08:11:17 2.4 C 43 %
771 11-12-2019 08:21:17 2.4 C 43 %
772 11-12-2019 08:31:18 2.3 C 43 %
773 11-12-2019 08:41:18 2.3 C 43 %
774 11-12-2019 08:51:17 2.3 C 43 %
775 11-12-2019 09:01:18 2.3 C 43 %
Sensor: Nr:Datum:Temp:Feuchte:
Aussen-T/F 776 11-12-2019 09:11:18 2.4 C 43 %
777 11-12-2019 09:21:17 2.5 C 43 %
778 11-12-2019 09:31:17 2.5 C 43 %
779 11-12-2019 09:41:17 2.5 C 43 %
780 11-12-2019 09:51:17 2.5 C 43 %
781 11-12-2019 10:01:17 2.6 C 43 %
782 11-12-2019 10:11:17 2.7 C 43 %
783 11-12-2019 10:21:17 2.7 C 42 %
784 11-12-2019 10:31:17 2.7 C 42 %
785 11-12-2019 10:41:17 2.8 C 41 %
786 11-12-2019 10:51:17 3.1 C 40 %
787 11-12-2019 11:01:17 3 C 39 %
788 11-12-2019 11:11:17 3.1 C 39 %
789 11-12-2019 11:21:17 3.2 C 39 %
790 11-12-2019 11:31:17 3.1 C 38 %
791 11-12-2019 11:41:17 3.1 C 38 %
792 11-12-2019 11:51:17 3.2 C 39 %
793 11-12-2019 12:01:18 3.2 C 39 %
794 11-12-2019 12:11:18 3.1 C 39 %
795 11-12-2019 12:21:17 3.1 C 39 %
796 11-12-2019 12:31:17 3.1 C 40 %
797 11-12-2019 12:41:17 3.1 C 40 %
798 11-12-2019 12:51:17 3.1 C 40 %
799 11-12-2019 13:01:18 3.2 C 40 %
800 11-12-2019 13:11:18 3.2 C 40 %
Sensor: Nr:Datum:Temp:Feuchte:
Aussen-T/F 801 11-12-2019 13:21:17 3.2 C 40 %
802 11-12-2019 13:31:17 3.2 C 40 %
803 11-12-2019 13:41:17 3.2 C 40 %
804 11-12-2019 13:51:17 3.2 C 40 %
805 11-12-2019 14:01:17 3.2 C 41 %
806 11-12-2019 14:11:18 3.2 C 41 %
807 11-12-2019 14:21:17 3.2 C 41 %
808 11-12-2019 14:31:17 3.3 C 41 %
809 11-12-2019 14:41:17 3.3 C 42 %
810 11-12-2019 14:51:17 3.3 C 42 %
811 11-12-2019 15:01:17 3.3 C 42 %
812 11-12-2019 15:11:17 3.4 C 42 %
813 11-12-2019 15:21:17 3.3 C 42 %
814 11-12-2019 15:31:18 3.3 C 42 %
815 11-12-2019 15:41:18 3.3 C 42 %
816 11-12-2019 15:51:17 3.3 C 42 %
817 11-12-2019 16:01:17 3.2 C 42 %
818 11-12-2019 16:11:17 3.2 C 42 %
819 11-12-2019 16:21:17 3.2 C 42 %
820 11-12-2019 16:31:17 3.2 C 42 %
821 11-12-2019 16:41:17 3.1 C 42 %
822 11-12-2019 16:51:17 3.1 C 42 %
823 11-12-2019 17:01:17 3.1 C 43 %
824 11-12-2019 17:11:17 3.1 C 42 %
825 11-12-2019 17:21:17 3.1 C 42 %
Sensor: Nr:Datum:Temp:Feuchte:
Aussen-T/F 826 11-12-2019 17:31:17 3.1 C 42 %
827 11-12-2019 17:41:17 3.1 C 42 %
828 11-12-2019 17:51:18 3.2 C 43 %
829 11-12-2019 18:01:17 3.2 C 43 %
830 11-12-2019 18:11:17 3.3 C 43 %
831 11-12-2019 18:21:17 3.3 C 43 %
832 11-12-2019 18:31:18 3.4 C 43 %
833 11-12-2019 18:41:18 3.4 C 43 %
834 11-12-2019 18:51:17 3.5 C 43 %
835 11-12-2019 19:01:17 3.5 C 42 %
836 11-12-2019 19:11:17 3.5 C 42 %
837 11-12-2019 19:21:18 3.5 C 42 %
838 11-12-2019 19:31:17 3.5 C 42 %
839 11-12-2019 19:41:17 3.6 C 42 %
840 11-12-2019 19:51:18 3.6 C 42 %
841 11-12-2019 20:01:17 3.6 C 42 %
842 11-12-2019 20:11:17 3.7 C 42 %
843 11-12-2019 20:21:17 3.8 C 42 %
844 11-12-2019 20:31:18 3.8 C 42 %
845 11-12-2019 20:41:18 3.9 C 42 %
846 11-12-2019 20:51:17 4.1 C 41 %
847 11-12-2019 21:01:17 4.1 C 40 %
848 11-12-2019 21:11:17 4.3 C 39 %
849 11-12-2019 21:21:17 4.4 C 37 %
850 11-12-2019 21:31:17 4.1 C 37 %
Sensor: Nr:Datum:Temp:Feuchte:
Aussen-T/F 851 11-12-2019 21:41:17 4.3 C 37 %
852 11-12-2019 21:51:17 4.3 C 36 %
853 11-12-2019 22:01:17 4.5 C 35 %
854 11-12-2019 22:11:17 4.1 C 35 %
855 11-12-2019 22:21:17 3.9 C 37 %
856 11-12-2019 22:31:17 3.6 C 39 %
857 11-12-2019 22:41:17 3.8 C 39 %
858 11-12-2019 22:51:18 3.5 C 40 %
859 11-12-2019 23:01:17 3.8 C 40 %
860 11-12-2019 23:11:17 3.8 C 40 %
861 11-12-2019 23:21:17 3.4 C 40 %
862 11-12-2019 23:31:17 3 C 41 %
863 11-12-2019 23:41:17 3.4 C 43 %
864 11-12-2019 23:51:18 3.2 C 42 %
865 12-12-2019 00:01:17 3 C 42 %
866 12-12-2019 00:11:17 2.9 C 43 %
867 12-12-2019 00:21:17 2.8 C 43 %
868 12-12-2019 00:31:17 2.5 C 43 %
869 12-12-2019 00:41:17 2.4 C 43 %
870 12-12-2019 00:51:17 2.3 C 43 %
871 12-12-2019 01:01:17 2.7 C 44 %
872 12-12-2019 01:11:17 2.8 C 44 %
873 12-12-2019 01:21:18 2.6 C 43 %
874 12-12-2019 01:31:17 2.2 C 43 %
875 12-12-2019 01:41:17 2.5 C 43 %
Sensor: Nr:Datum:Temp:Feuchte:
Aussen-T/F 876 12-12-2019 01:51:18 2.1 C 43 %
877 12-12-2019 02:01:17 1.8 C 44 %
878 12-12-2019 02:11:17 1.6 C 44 %
879 12-12-2019 02:21:17 1.7 C 44 %
880 12-12-2019 02:31:18 1.6 C 44 %
881 12-12-2019 02:41:18 2 C 43 %
882 12-12-2019 02:51:17 2 C 43 %
883 12-12-2019 03:01:17 2.3 C 43 %
884 12-12-2019 03:11:17 2.4 C 43 %
885 12-12-2019 03:21:17 2.5 C 43 %
886 12-12-2019 03:31:17 2.4 C 43 %
887 12-12-2019 03:41:17 2.5 C 43 %
888 12-12-2019 03:51:17 2.7 C 43 %
889 12-12-2019 04:01:17 2.6 C 43 %
890 12-12-2019 04:11:17 2.7 C 43 %
891 12-12-2019 04:21:17 2.8 C 43 %
892 12-12-2019 04:31:17 2.8 C 43 %
893 12-12-2019 04:41:17 2.9 C 43 %
894 12-12-2019 04:51:17 2.4 C 42 %
895 12-12-2019 05:01:17 2 C 42 %
896 12-12-2019 05:11:17 2.1 C 42 %
897 12-12-2019 05:21:17 2.2 C 42 %
898 12-12-2019 05:31:18 2.1 C 42 %
899 12-12-2019 05:41:18 2.1 C 42 %
900 12-12-2019 05:51:17 2.1 C 42 %
Sensor: Nr:Datum:Temp:Feuchte:
Aussen-T/F 901 12-12-2019 06:01:17 1.9 C 43 %
902 12-12-2019 06:11:17 2 C 42 %
903 12-12-2019 06:21:17 2.1 C 42 %
904 12-12-2019 06:31:17 2.1 C 42 %
905 12-12-2019 06:41:17 2.3 C 42 %
906 12-12-2019 06:51:17 2.7 C 43 %
907 12-12-2019 07:01:17 3 C 42 %
908 12-12-2019 07:11:17 3 C 42 %
909 12-12-2019 07:21:17 3 C 42 %
910 12-12-2019 07:31:17 3 C 42 %
911 12-12-2019 07:41:17 2.8 C 42 %
912 12-12-2019 07:51:17 2.9 C 42 %
913 12-12-2019 08:01:17 2.9 C 42 %
914 12-12-2019 08:11:17 3.1 C 42 %
915 12-12-2019 08:21:17 3.2 C 42 %
916 12-12-2019 08:31:18 3.3 C 42 %
917 12-12-2019 08:41:18 3.5 C 42 %
918 12-12-2019 08:51:17 3.5 C 42 %
919 12-12-2019 09:01:18 3.5 C 42 %
920 12-12-2019 09:11:18 3.6 C 42 %
921 12-12-2019 09:21:17 3.9 C 42 %
922 12-12-2019 09:31:17 3.9 C 42 %
923 12-12-2019 09:41:17 3.7 C 41 %
924 12-12-2019 09:51:17 3.5 C 41 %
925 12-12-2019 10:01:17 3.9 C 41 %
Sensor: Nr:Datum:Temp:Feuchte:
Aussen-T/F 926 12-12-2019 10:11:17 4 C 40 %
927 12-12-2019 10:21:18 4.4 C 37 %
928 12-12-2019 10:31:17 4.6 C 35 %
929 12-12-2019 10:41:17 4.7 C 32 %
930 12-12-2019 10:51:17 4.8 C 31 %
931 12-12-2019 11:01:18 4.7 C 32 %
932 12-12-2019 11:11:18 4.6 C 31 %
933 12-12-2019 11:21:17 4.4 C 31 %
934 12-12-2019 11:31:17 4.4 C 32 %
935 12-12-2019 11:41:17 4.7 C 31 %
936 12-12-2019 11:51:18 4.9 C 29 %
937 12-12-2019 12:01:17 5.1 C 29 %
938 12-12-2019 12:11:17 5.1 C 27 %
939 12-12-2019 12:21:17 5 C 26 %
940 12-12-2019 12:31:18 4.7 C 27 %
941 12-12-2019 12:41:18 4.7 C 28 %
942 12-12-2019 12:51:17 4.7 C 27 %
943 12-12-2019 13:01:17 4.6 C 28 %
944 12-12-2019 13:11:18 5 C 26 %
945 12-12-2019 13:21:17 4.8 C 27 %
946 12-12-2019 13:31:17 4.6 C 26 %
947 12-12-2019 13:41:17 4.2 C 26 %
948 12-12-2019 13:51:17 4.6 C 25 %
949 12-12-2019 14:01:17 4.6 C 25 %
950 12-12-2019 14:11:17 4.3 C 25 %
Sensor: Nr:Datum:Temp:Feuchte:
Aussen-T/F 951 12-12-2019 14:21:17 4 C 27 %
952 12-12-2019 14:31:18 4.5 C 25 %
953 12-12-2019 14:41:18 4.8 C 25 %
954 12-12-2019 14:51:17 4.7 C 25 %
955 12-12-2019 15:01:18 4 C 26 %
956 12-12-2019 15:11:18 4.2 C 26 %
957 12-12-2019 15:21:17 3.6 C 29 %
958 12-12-2019 15:31:17 3.5 C 29 %
959 12-12-2019 15:41:17 3.8 C 28 %
960 12-12-2019 15:51:17 3.7 C 28 %
961 12-12-2019 16:01:17 3.6 C 28 %
962 12-12-2019 16:11:17 3.7 C 26 %
963 12-12-2019 16:21:18 3.5 C 27 %
964 12-12-2019 16:31:17 3.4 C 26 %
965 12-12-2019 16:41:17 3.3 C 28 %
966 12-12-2019 16:51:17 3.1 C 30 %
967 12-12-2019 17:01:17 2.6 C 30 %
968 12-12-2019 17:11:17 1.7 C 35 %
969 12-12-2019 17:21:17 1.2 C 36 %
970 12-12-2019 17:31:17 1.1 C 38 %
971 12-12-2019 17:41:17 0.9 C 41 %
972 12-12-2019 17:51:17 1 C 40 %
973 12-12-2019 18:01:17 1.1 C 40 %
974 12-12-2019 18:11:17 1.1 C 40 %
975 12-12-2019 18:21:17 1.1 C 40 %
Sensor: Nr:Datum:Temp:Feuchte:
Aussen-T/F 976 12-12-2019 18:31:17 1 C 40 %
977 12-12-2019 18:41:17 0.9 C 41 %
978 12-12-2019 18:51:17 0.7 C 41 %
979 12-12-2019 19:01:17 0.7 C 41 %
980 12-12-2019 19:11:17 0.6 C 41 %
981 12-12-2019 19:21:17 0.6 C 42 %
982 12-12-2019 19:31:17 0.6 C 42 %
983 12-12-2019 19:41:17 0.7 C 42 %
984 12-12-2019 19:51:17 0.7 C 41 %
985 12-12-2019 20:01:17 0.6 C 41 %
986 12-12-2019 20:11:17 0.6 C 41 %
987 12-12-2019 20:21:17 0.6 C 41 %
988 12-12-2019 20:31:17 0.6 C 41 %
989 12-12-2019 20:41:17 0.6 C 41 %
990 12-12-2019 20:51:17 1.3 C 42 %
991 12-12-2019 21:01:17 1.6 C 38 %
992 12-12-2019 21:11:17 1.6 C 36 %
993 12-12-2019 21:21:17 1.3 C 36 %
994 12-12-2019 21:31:17 1.3 C 35 %
995 12-12-2019 21:41:17 1 C 35 %
996 12-12-2019 21:51:17 0.7 C 37 %
997 12-12-2019 22:01:17 1.2 C 37 %
998 12-12-2019 22:11:17 0.9 C 37 %
999 12-12-2019 22:21:18 0.4 C 38 %
1000 12-12-2019 22:31:17 0.3 C 39 %
Sensor: Nr:Datum:Temp:Feuchte:
Aussen-T/F 1001 12-12-2019 22:41:17 0.2 C 40 %
1002 12-12-2019 22:51:17 0.4 C 39 %
1003 12-12-2019 23:01:18 1.1 C 37 %
1004 12-12-2019 23:11:18 1.5 C 35 %
1005 12-12-2019 23:21:17 1.9 C 32 %
1006 12-12-2019 23:31:17 1.6 C 31 %
1007 12-12-2019 23:41:17 1.4 C 32 %
1008 12-12-2019 23:51:17 1.5 C 31 %
1009 13-12-2019 00:01:17 0.9 C 33 %
1010 13-12-2019 00:11:17 0.6 C 35 %
1011 13-12-2019 00:21:17 1 C 33 %
1012 13-12-2019 00:31:18 0.7 C 34 %
1013 13-12-2019 00:41:18 0.9 C 35 %
1014 13-12-2019 00:51:17 1.3 C 32 %
1015 13-12-2019 01:01:18 1.7 C 30 %
1016 13-12-2019 01:11:18 1.8 C 29 %
1017 13-12-2019 01:21:17 2 C 27 %
1018 13-12-2019 01:31:17 1.9 C 28 %
1019 13-12-2019 01:41:17 2 C 27 %
1020 13-12-2019 01:51:17 2 C 27 %
1021 13-12-2019 02:01:18 1.9 C 29 %
1022 13-12-2019 02:11:18 2 C 27 %
1023 13-12-2019 02:21:17 2 C 27 %
1024 13-12-2019 02:31:17 2 C 27 %
1025 13-12-2019 02:41:17 2 C 27 %
Sensor: Nr:Datum:Temp:Feuchte:
Aussen-T/F 1026 13-12-2019 02:51:17 2 C 27 %
1027 13-12-2019 03:01:17 1.8 C 29 %
1028 13-12-2019 03:11:17 1.8 C 30 %
1029 13-12-2019 03:21:17 1.7 C 30 %
1030 13-12-2019 03:31:17 1.6 C 30 %
1031 13-12-2019 03:41:17 1.7 C 30 %
1032 13-12-2019 03:51:17 1.6 C 31 %
1033 13-12-2019 04:01:17 1.4 C 32 %
1034 13-12-2019 04:11:17 1.5 C 32 %
1035 13-12-2019 04:21:17 1.6 C 32 %
1036 13-12-2019 04:31:17 1.6 C 32 %
1037 13-12-2019 04:41:17 1.6 C 32 %
1038 13-12-2019 04:51:17 1.4 C 34 %
1039 13-12-2019 05:01:17 1.4 C 35 %
1040 13-12-2019 05:11:17 1.5 C 34 %
1041 13-12-2019 05:21:17 1.5 C 34 %
1042 13-12-2019 05:31:18 1.7 C 33 %
1043 13-12-2019 05:41:18 1.7 C 32 %
1044 13-12-2019 05:51:17 1.8 C 33 %
1045 13-12-2019 06:01:17 1.9 C 32 %
1046 13-12-2019 06:11:17 2 C 31 %
1047 13-12-2019 06:21:17 2 C 31 %
1048 13-12-2019 06:31:17 2 C 32 %
1049 13-12-2019 06:41:17 1.7 C 35 %
1050 13-12-2019 06:51:17 1.8 C 37 %
Sensor: Nr:Datum:Temp:Feuchte:
Aussen-T/F 1051 13-12-2019 07:01:17 1.8 C 37 %
1052 13-12-2019 07:11:18 1.7 C 39 %
1053 13-12-2019 07:21:17 1.8 C 38 %
1054 13-12-2019 07:31:17 1.8 C 40 %
1055 13-12-2019 07:41:17 1.8 C 39 %
1056 13-12-2019 07:51:17 1.9 C 38 %
1057 13-12-2019 08:01:17 1.8 C 38 %
1058 13-12-2019 08:11:17 1.8 C 39 %
1059 13-12-2019 08:21:17 1.7 C 40 %
1060 13-12-2019 08:31:17 1.7 C 41 %
1061 13-12-2019 08:41:17 1.6 C 41 %
1062 13-12-2019 08:51:17 1.7 C 41 %
1063 13-12-2019 09:01:17 1.9 C 40 %
1064 13-12-2019 09:11:17 1.9 C 40 %
1065 13-12-2019 09:21:17 1.9 C 40 %
1066 13-12-2019 09:31:17 1.7 C 42 %
1067 13-12-2019 09:41:17 1.7 C 42 %
1068 13-12-2019 09:51:18 1.9 C 43 %
1069 13-12-2019 10:01:17 1.8 C 43 %
1070 13-12-2019 10:11:17 1.9 C 43 %
1071 13-12-2019 10:21:18 2 C 41 %
1072 13-12-2019 10:31:17 2.2 C 41 %
1073 13-12-2019 10:41:17 2.3 C 41 %
1074 13-12-2019 10:51:18 2.3 C 41 %
1075 13-12-2019 11:01:17 2.4 C 41 %
Sensor: Nr:Datum:Temp:Feuchte:
Aussen-T/F 1076 13-12-2019 11:11:17 2.3 C 40 %
1077 13-12-2019 11:21:17 2.3 C 40 %
1078 13-12-2019 11:31:17 2.4 C 41 %
1079 13-12-2019 11:41:17 2.5 C 41 %
1080 13-12-2019 11:51:18 2.8 C 42 %
1081 13-12-2019 12:01:17 3 C 41 %
1082 13-12-2019 12:11:17 3.1 C 39 %
1083 13-12-2019 12:21:17 3.2 C 38 %
1084 13-12-2019 12:31:17 3.5 C 38 %
1085 13-12-2019 12:41:17 3.5 C 38 %
1086 13-12-2019 12:51:18 3.6 C 38 %
1087 13-12-2019 13:01:18 3.8 C 39 %
1088 13-12-2019 13:11:18 4.1 C 37 %
1089 13-12-2019 13:21:17 4.6 C 38 %
1090 13-12-2019 13:31:17 5.2 C 35 %
1091 13-12-2019 13:41:17 5.7 C 35 %
1092 13-12-2019 13:51:17 6.4 C 31 %
1093 13-12-2019 14:01:17 6.7 C 30 %
1094 13-12-2019 14:11:17 7 C 28 %
1095 13-12-2019 14:21:17 6.8 C 29 %
1096 13-12-2019 14:31:17 6.8 C 28 %
1097 13-12-2019 14:41:17 6.7 C 28 %
1098 13-12-2019 14:51:18 6.4 C 29 %
1099 13-12-2019 15:01:18 6.3 C 29 %
1100 13-12-2019 15:11:18 6.3 C 29 %
Sensor: Nr:Datum:Temp:Feuchte:
Aussen-T/F 1101 13-12-2019 15:21:17 6.2 C 30 %
1102 13-12-2019 15:31:17 5.9 C 30 %
1103 13-12-2019 15:41:17 5.8 C 31 %
1104 13-12-2019 15:51:17 5.5 C 31 %
1105 13-12-2019 16:01:18 5.3 C 30 %
1106 13-12-2019 16:11:18 5.4 C 30 %
1107 13-12-2019 16:21:17 5.3 C 30 %
1108 13-12-2019 16:31:17 5.1 C 30 %
1109 13-12-2019 16:41:17 4.8 C 31 %
1110 13-12-2019 16:51:17 4.5 C 31 %
1111 13-12-2019 17:01:17 4.6 C 31 %
1112 13-12-2019 17:11:17 4.5 C 31 %
1113 13-12-2019 17:21:17 4.3 C 34 %
1114 13-12-2019 17:31:18 4.3 C 34 %
1115 13-12-2019 17:41:18 4.2 C 33 %
1116 13-12-2019 17:51:17 4 C 33 %
1117 13-12-2019 18:01:17 3.8 C 36 %
1118 13-12-2019 18:11:17 3.7 C 40 %
1119 13-12-2019 18:21:17 3.8 C 39 %
1120 13-12-2019 18:31:17 3.8 C 40 %
1121 13-12-2019 18:41:18 3.8 C 39 %
1122 13-12-2019 18:51:17 3.9 C 36 %
1123 13-12-2019 19:01:17 3.9 C 36 %
1124 13-12-2019 19:11:17 3.9 C 35 %
1125 13-12-2019 19:21:17 4 C 34 %
Sensor: Nr:Datum:Temp:Feuchte:
Aussen-T/F 1126 13-12-2019 19:31:17 4.1 C 35 %
1127 13-12-2019 19:41:17 4 C 36 %
1128 13-12-2019 19:51:17 4.6 C 32 %
1129 13-12-2019 20:01:17 4.6 C 32 %
1130 13-12-2019 20:11:17 4.8 C 31 %
1131 13-12-2019 20:21:17 4.7 C 31 %
1132 13-12-2019 20:31:17 4.7 C 31 %
1133 13-12-2019 20:41:17 4.7 C 32 %
1134 13-12-2019 20:51:17 4.5 C 32 %
1135 13-12-2019 21:01:17 4.3 C 34 %
1136 13-12-2019 21:11:17 4 C 36 %
1137 13-12-2019 21:21:17 4.5 C 35 %
1138 13-12-2019 21:31:18 4.4 C 33 %
1139 13-12-2019 21:41:18 4.4 C 35 %
1140 13-12-2019 21:51:17 4.6 C 32 %
1141 13-12-2019 22:01:17 4.6 C 31 %
1142 13-12-2019 22:11:17 4.6 C 30 %
1143 13-12-2019 22:21:17 4.7 C 30 %
1144 13-12-2019 22:31:18 4.7 C 30 %
1145 13-12-2019 22:41:18 3.8 C 34 %
1146 13-12-2019 22:51:17 3.8 C 36 %
1147 13-12-2019 23:01:17 4.5 C 32 %
1148 13-12-2019 23:11:17 5.1 C 29 %
1149 13-12-2019 23:21:17 5.2 C 28 %
1150 13-12-2019 23:31:17 5.2 C 28 %
Sensor: Nr:Datum:Temp:Feuchte:
Aussen-T/F 1151 13-12-2019 23:41:17 5 C 30 %
1152 13-12-2019 23:51:17 5 C 30 %
1153 14-12-2019 00:01:17 4.4 C 32 %
1154 14-12-2019 00:11:17 4.5 C 30 %
1155 14-12-2019 00:21:17 4.6 C 30 %
1156 14-12-2019 00:31:18 4.3 C 33 %
1157 14-12-2019 00:41:18 4.7 C 32 %
1158 14-12-2019 00:51:17 5.1 C 28 %
1159 14-12-2019 01:01:17 5.4 C 27 %
1160 14-12-2019 01:11:17 5.3 C 27 %
1161 14-12-2019 01:21:17 5.2 C 26 %
1162 14-12-2019 01:31:17 5.1 C 26 %
1163 14-12-2019 01:41:17 5.3 C 25 %
1164 14-12-2019 01:51:17 5.2 C 25 %
1165 14-12-2019 02:01:17 5 C 26 %
1166 14-12-2019 02:11:17 4.5 C 30 %
1167 14-12-2019 02:21:17 4.6 C 29 %
1168 14-12-2019 02:31:18 4.7 C 29 %
1169 14-12-2019 02:41:18 4.8 C 28 %
1170 14-12-2019 02:51:17 4.5 C 30 %
1171 14-12-2019 03:01:18 4.2 C 33 %
1172 14-12-2019 03:11:18 4.1 C 36 %
1173 14-12-2019 03:21:17 3.9 C 38 %
1174 14-12-2019 03:31:17 3.9 C 39 %
1175 14-12-2019 03:41:17 3.9 C 36 %
Sensor: Nr:Datum:Temp:Feuchte:
Aussen-T/F 1176 14-12-2019 03:51:18 3.8 C 36 %
1177 14-12-2019 04:01:17 3.8 C 40 %
1178 14-12-2019 04:11:17 3.8 C 41 %
1179 14-12-2019 04:21:17 3.7 C 42 %
1180 14-12-2019 04:31:18 3.5 C 42 %
1181 14-12-2019 04:41:18 3.5 C 42 %
1182 14-12-2019 04:51:17 3.4 C 42 %
1183 14-12-2019 05:01:17 3.4 C 41 %
1184 14-12-2019 05:11:17 3.4 C 41 %
1185 14-12-2019 05:21:17 3.4 C 42 %
1186 14-12-2019 05:31:18 3.4 C 42 %
1187 14-12-2019 05:41:18 3.4 C 43 %
1188 14-12-2019 05:51:17 3.4 C 43 %
1189 14-12-2019 06:01:18 3.4 C 42 %
1190 14-12-2019 06:11:18 3.7 C 43 %
1191 14-12-2019 06:21:17 4 C 42 %
1192 14-12-2019 06:31:17 5 C 40 %
1193 14-12-2019 06:41:17 5.2 C 39 %
1194 14-12-2019 06:51:18 5.6 C 36 %
1195 14-12-2019 07:01:17 5.6 C 36 %
1196 14-12-2019 07:11:18 5.7 C 36 %
1197 14-12-2019 07:21:17 5.8 C 36 %
1198 14-12-2019 07:31:17 5.8 C 36 %
1199 14-12-2019 07:41:17 6.3 C 37 %
1200 14-12-2019 07:51:17 6.5 C 36 %
Sensor: Nr:Datum:Temp:Feuchte:
Aussen-T/F 1201 14-12-2019 08:01:17 6.8 C 35 %
1202 14-12-2019 08:11:17 7 C 28 %
1203 14-12-2019 08:21:17 7.2 C 26 %
1204 14-12-2019 08:31:18 7.1 C 25 %
1205 14-12-2019 08:41:18 6.9 C 25 %
1206 14-12-2019 08:51:17 6.7 C 25 %
1207 14-12-2019 09:01:17 6.9 C 23 %
1208 14-12-2019 09:11:17 6.7 C 23 %
1209 14-12-2019 09:21:18 6.5 C 23 %
1210 14-12-2019 09:31:18 6.7 C 20 %
1211 14-12-2019 09:41:18 6.5 C 21 %
1212 14-12-2019 09:51:17 6.7 C 21 %
1213 14-12-2019 10:01:17 6.7 C 21 %
1214 14-12-2019 10:11:17 6.6 C 23 %
1215 14-12-2019 10:21:17 6.6 C 25 %
1216 14-12-2019 10:31:17 6.7 C 25 %
1217 14-12-2019 10:41:17 6.4 C 26 %
1218 14-12-2019 10:51:17 5.9 C 29 %
1219 14-12-2019 11:01:18 5.9 C 29 %
1220 14-12-2019 11:11:18 6.4 C 27 %
1221 14-12-2019 11:21:17 6.7 C 26 %
1222 14-12-2019 11:31:17 6.3 C 26 %
1223 14-12-2019 11:41:17 6.4 C 25 %
1224 14-12-2019 11:51:17 6.9 C 20 %
1225 14-12-2019 12:01:17 7 C 20 %
Sensor: Nr:Datum:Temp:Feuchte:
Aussen-T/F 1226 14-12-2019 12:11:17 7.2 C 20 %
1227 14-12-2019 12:21:18 7 C 20 %
1228 14-12-2019 12:31:17 7.3 C 20 %
1229 14-12-2019 12:41:17 7.6 C 20 %
1230 14-12-2019 12:51:17 7.8 C 20 %
1231 14-12-2019 13:01:17 7.9 C 20 %
1232 14-12-2019 13:11:17 8 C 20 %
1233 14-12-2019 13:21:17 8.4 C 20 %
1234 14-12-2019 13:31:17 8.4 C 20 %
1235 14-12-2019 13:41:17 8.3 C 20 %
1236 14-12-2019 13:51:17 8.4 C 20 %
1237 14-12-2019 14:01:18 8.5 C 20 %
1238 14-12-2019 14:11:18 8.4 C 20 %
1239 14-12-2019 14:21:17 8.4 C 20 %
1240 14-12-2019 14:31:18 8.7 C 20 %
1241 14-12-2019 14:41:18 8.8 C 20 %
1242 14-12-2019 14:51:18 8.6 C 20 %
1243 14-12-2019 15:01:17 7.3 C 23 %
1244 14-12-2019 15:11:17 6.8 C 28 %
1245 14-12-2019 15:21:17 6.6 C 30 %
1246 14-12-2019 15:31:17 6.7 C 28 %
1247 14-12-2019 15:41:18 6.8 C 28 %
1248 14-12-2019 15:51:17 7.1 C 26 %
1249 14-12-2019 16:01:17 7 C 26 %
1250 14-12-2019 16:11:17 6.9 C 26 %
Sensor: Nr:Datum:Temp:Feuchte:
Aussen-T/F 1251 14-12-2019 16:21:17 6.9 C 27 %
1252 14-12-2019 16:31:18 7.2 C 25 %
1253 14-12-2019 16:41:18 7.6 C 25 %
1254 14-12-2019 16:51:17 7.5 C 25 %
1255 14-12-2019 17:01:17 7.6 C 25 %
1256 14-12-2019 17:11:17 7.6 C 25 %
1257 14-12-2019 17:21:17 7.4 C 25 %
1258 14-12-2019 17:31:18 7.2 C 26 %
1259 14-12-2019 17:41:18 6.9 C 27 %
1260 14-12-2019 17:51:17 7.1 C 26 %
1261 14-12-2019 18:01:17 7.1 C 26 %
1262 14-12-2019 18:11:17 7.3 C 26 %
1263 14-12-2019 18:22:17 7.6 C 25 %
1264 14-12-2019 18:31:17 7.8 C 25 %
1265 14-12-2019 18:41:17 7.4 C 25 %
1266 14-12-2019 18:52:17 7 C 26 %
1267 14-12-2019 19:01:18 6.7 C 27 %
1268 14-12-2019 19:11:18 6.2 C 28 %
1269 14-12-2019 19:21:17 6.4 C 26 %
1270 14-12-2019 19:31:17 6.1 C 26 %
1271 14-12-2019 19:41:17 6.4 C 25 %
1272 14-12-2019 19:52:17 6.4 C 25 %
1273 14-12-2019 20:01:18 6.6 C 25 %
1274 14-12-2019 20:11:18 6.7 C 25 %
1275 14-12-2019 20:21:17 6.9 C 25 %
Sensor: Nr:Datum:Temp:Feuchte:
Aussen-T/F 1276 14-12-2019 20:31:17 5.8 C 27 %
1277 14-12-2019 20:41:17 5.9 C 27 %
1278 14-12-2019 20:52:17 7 C 25 %
1279 14-12-2019 21:01:17 7.2 C 25 %
1280 14-12-2019 21:11:17 7 C 25 %
1281 14-12-2019 21:22:17 7.1 C 25 %
1282 14-12-2019 21:31:18 6.7 C 26 %
1283 14-12-2019 21:41:18 6.8 C 26 %
1284 14-12-2019 21:52:17 6.9 C 26 %
1285 14-12-2019 22:02:17 7.1 C 25 %
1286 14-12-2019 22:11:17 6.8 C 26 %
1287 14-12-2019 22:22:17 6.9 C 26 %
1288 14-12-2019 22:31:17 7.3 C 25 %
1289 14-12-2019 22:41:17 7 C 26 %
1290 14-12-2019 22:52:17 7.3 C 25 %
1291 14-12-2019 23:02:17 7.1 C 25 %
1292 14-12-2019 23:12:17 7.3 C 25 %
1293 14-12-2019 23:22:17 7 C 26 %
1294 14-12-2019 23:31:18 7 C 26 %
1295 14-12-2019 23:41:18 7.4 C 25 %
1296 14-12-2019 23:51:18 7 C 25 %
1297 15-12-2019 00:02:17 6.4 C 27 %
1298 15-12-2019 00:11:17 6 C 28 %
1299 15-12-2019 00:22:17 5.6 C 30 %
1300 15-12-2019 00:31:18 5.3 C 31 %
Sensor: Nr:Datum:Temp:Feuchte:
Aussen-T/F 1301 15-12-2019 00:41:18 5.1 C 32 %
1302 15-12-2019 00:52:17 5.2 C 32 %
1303 15-12-2019 01:02:17 5.2 C 32 %
1304 15-12-2019 01:12:17 5.3 C 33 %
1305 15-12-2019 01:22:17 5.5 C 33 %
1306 15-12-2019 01:31:18 5.7 C 31 %
1307 15-12-2019 01:41:18 5.6 C 31 %
1308 15-12-2019 01:52:17 5.6 C 31 %
1309 15-12-2019 02:02:17 5.9 C 31 %
1310 15-12-2019 02:12:17 5.8 C 32 %
1311 15-12-2019 02:22:17 5.9 C 32 %
1312 15-12-2019 02:32:18 5.7 C 35 %
1313 15-12-2019 02:42:18 5.8 C 37 %
1314 15-12-2019 02:52:17 5.9 C 39 %
1315 15-12-2019 03:02:18 5.9 C 40 %
1316 15-12-2019 03:12:18 5.9 C 41 %
1317 15-12-2019 03:22:17 6 C 41 %
1318 15-12-2019 03:32:17 6 C 42 %
1319 15-12-2019 03:42:17 6.3 C 42 %
1320 15-12-2019 03:52:17 6.4 C 42 %
1321 15-12-2019 04:02:17 6.8 C 42 %
1322 15-12-2019 04:12:17 7.3 C 41 %
1323 15-12-2019 04:22:17 7.3 C 41 %
1324 15-12-2019 04:32:17 7.5 C 41 %
1325 15-12-2019 04:42:17 7.9 C 40 %
Sensor: Nr:Datum:Temp:Feuchte:
Aussen-T/F 1326 15-12-2019 04:52:17 8 C 39 %
1327 15-12-2019 05:02:17 8.2 C 38 %
1328 15-12-2019 05:12:17 8.2 C 37 %
1329 15-12-2019 05:22:17 8.4 C 37 %
1330 15-12-2019 05:32:18 9 C 34 %
1331 15-12-2019 05:42:18 10 C 30 %
1332 15-12-2019 05:52:17 10.2 C 30 %
1333 15-12-2019 06:02:17 10.3 C 29 %
1334 15-12-2019 06:12:17 10.3 C 29 %
1335 15-12-2019 06:22:17 10.1 C 29 %
1336 15-12-2019 06:32:17 10.5 C 28 %
1337 15-12-2019 06:42:17 10.8 C 27 %
1338 15-12-2019 06:52:17 10.7 C 27 %
1339 15-12-2019 07:02:17 10.5 C 27 %
1340 15-12-2019 07:12:17 10.9 C 27 %
1341 15-12-2019 07:22:17 10.3 C 27 %
1342 15-12-2019 07:32:17 10.6 C 27 %
1343 15-12-2019 07:42:17 10.5 C 27 %
1344 15-12-2019 07:52:17 10.7 C 27 %
1345 15-12-2019 08:02:17 10.7 C 27 %
1346 15-12-2019 08:12:17 11 C 26 %
1347 15-12-2019 08:22:17 10.9 C 27 %
1348 15-12-2019 08:32:18 10.6 C 27 %
1349 15-12-2019 08:42:18 10.2 C 28 %
1350 15-12-2019 08:52:17 9.5 C 34 %
Sensor: Nr:Datum:Temp:Feuchte:
Aussen-T/F 1351 15-12-2019 09:02:17 9.2 C 34 %
1352 15-12-2019 09:12:17 8.9 C 35 %
1353 15-12-2019 09:22:17 8.7 C 33 %
1354 15-12-2019 09:32:17 8.5 C 34 %
1355 15-12-2019 09:42:17 8.2 C 35 %
1356 15-12-2019 09:52:18 8 C 36 %
1357 15-12-2019 10:02:18 8.1 C 34 %
1358 15-12-2019 10:12:18 8.2 C 32 %
1359 15-12-2019 10:22:18 8.2 C 34 %
1360 15-12-2019 10:32:17 8.1 C 33 %
1361 15-12-2019 10:42:17 8.5 C 31 %
1362 15-12-2019 10:52:17 8.7 C 30 %
1363 15-12-2019 11:02:17 8.4 C 30 %
1364 15-12-2019 11:12:17 8.5 C 30 %
1365 15-12-2019 11:22:17 8.5 C 28 %
1366 15-12-2019 11:32:17 8.6 C 28 %
1367 15-12-2019 11:42:17 8.6 C 28 %
1368 15-12-2019 11:52:17 8.3 C 27 %
1369 15-12-2019 12:02:17 8.3 C 27 %
1370 15-12-2019 12:12:17 8.1 C 27 %
1371 15-12-2019 12:22:17 8.1 C 28 %
1372 15-12-2019 12:32:17 7.9 C 29 %
1373 15-12-2019 12:42:17 8.2 C 28 %
1374 15-12-2019 12:52:18 8.4 C 28 %
1375 15-12-2019 13:02:18 8.7 C 27 %
Sensor: Nr:Datum:Temp:Feuchte:
Aussen-T/F 1376 15-12-2019 13:12:18 9.1 C 25 %
1377 15-12-2019 13:22:17 9.3 C 23 %
1378 15-12-2019 13:32:17 9.2 C 21 %
1379 15-12-2019 13:42:17 9.2 C 20 %
1380 15-12-2019 13:52:18 9.2 C 20 %
1381 15-12-2019 14:02:17 9.2 C 20 %
1382 15-12-2019 14:12:17 9.3 C 20 %
1383 15-12-2019 14:22:17 9.3 C 20 %
1384 15-12-2019 14:32:17 9.1 C 20 %
1385 15-12-2019 14:42:17 9.1 C 20 %
1386 15-12-2019 14:52:17 9 C 20 %
1387 15-12-2019 15:02:17 9 C 20 %
1388 15-12-2019 15:12:17 8.9 C 20 %
1389 15-12-2019 15:22:17 8.9 C 20 %
1390 15-12-2019 15:32:17 8.8 C 20 %
1391 15-12-2019 15:42:17 8.7 C 20 %
1392 15-12-2019 15:52:17 8.7 C 20 %
1393 15-12-2019 16:02:17 8.4 C 20 %
1394 15-12-2019 16:12:17 8.2 C 20 %
1395 15-12-2019 16:22:18 8.4 C 20 %
1396 15-12-2019 16:32:17 7.9 C 20 %
1397 15-12-2019 16:42:17 7.6 C 20 %
1398 15-12-2019 16:52:17 8 C 20 %
1399 15-12-2019 17:02:17 7.4 C 20 %
1400 15-12-2019 17:12:17 7.4 C 20 %
Sensor: Nr:Datum:Temp:Feuchte:
Aussen-T/F 1401 15-12-2019 17:22:17 7.8 C 20 %
1402 15-12-2019 17:32:17 7.2 C 21 %
1403 15-12-2019 17:42:17 7.6 C 20 %
1404 15-12-2019 17:52:17 7.7 C 20 %
1405 15-12-2019 18:02:17 7.5 C 20 %
1406 15-12-2019 18:12:17 8.2 C 20 %
1407 15-12-2019 18:22:17 7.5 C 20 %
1408 15-12-2019 18:32:17 6.9 C 25 %
1409 15-12-2019 18:42:17 6.2 C 27 %
1410 15-12-2019 18:52:18 5.9 C 29 %
1411 15-12-2019 19:02:17 5.4 C 30 %
1412 15-12-2019 19:12:17 5.3 C 31 %
1413 15-12-2019 19:22:17 4.9 C 32 %
1414 15-12-2019 19:32:18 5.3 C 32 %
1415 15-12-2019 19:42:18 5 C 33 %
1416 15-12-2019 19:52:17 5.4 C 33 %
1417 15-12-2019 20:02:17 5.2 C 33 %
1418 15-12-2019 20:12:17 4.7 C 35 %
1419 15-12-2019 20:22:17 4.4 C 36 %
1420 15-12-2019 20:32:17 4.3 C 37 %
1421 15-12-2019 20:42:17 3.9 C 39 %
1422 15-12-2019 20:52:17 3.7 C 40 %
1423 15-12-2019 21:02:17 3.5 C 41 %
1424 15-12-2019 21:12:17 3.3 C 41 %
1425 15-12-2019 21:22:17 3.1 C 41 %
Sensor: Nr:Datum:Temp:Feuchte:
Aussen-T/F 1426 15-12-2019 21:32:18 2.8 C 42 %
1427 15-12-2019 21:42:18 2.9 C 43 %
1428 15-12-2019 21:52:17 3.3 C 43 %
1429 15-12-2019 22:02:17 3.3 C 44 %
1430 15-12-2019 22:12:17 3.3 C 43 %
1431 15-12-2019 22:22:17 3.5 C 43 %
1432 15-12-2019 22:32:17 3.5 C 43 %
1433 15-12-2019 22:42:17 3.4 C 43 %
1434 15-12-2019 22:52:18 3.3 C 43 %
1435 15-12-2019 23:02:17 3.5 C 43 %
1436 15-12-2019 23:12:18 3.6 C 43 %
1437 15-12-2019 23:22:17 3.7 C 43 %
1438 15-12-2019 23:32:18 3.5 C 42 %
1439 15-12-2019 23:42:18 3.3 C 42 %
1440 15-12-2019 23:52:17 3.8 C 43 %
1441 16-12-2019 00:02:17 4 C 42 %
1442 16-12-2019 00:12:17 4.4 C 42 %
1443 16-12-2019 00:22:17 4.4 C 42 %
1444 16-12-2019 00:32:17 4.5 C 42 %
1445 16-12-2019 00:42:17 4.5 C 42 %
1446 16-12-2019 00:52:18 4.7 C 42 %
1447 16-12-2019 01:02:17 5.1 C 41 %
1448 16-12-2019 01:12:17 5 C 41 %
1449 16-12-2019 01:22:17 5.2 C 42 %
1450 16-12-2019 01:32:17 5.2 C 41 %
Sensor: Nr:Datum:Temp:Feuchte:
Aussen-T/F 1451 16-12-2019 01:42:18 5.3 C 42 %
1452 16-12-2019 01:52:17 5.5 C 42 %
1453 16-12-2019 02:02:18 5.4 C 42 %
1454 16-12-2019 02:12:18 5.5 C 42 %
1455 16-12-2019 02:22:17 5.7 C 42 %
1456 16-12-2019 02:32:17 5.7 C 42 %
1457 16-12-2019 02:42:17 5.9 C 42 %
1458 16-12-2019 02:52:18 5.8 C 41 %
1459 16-12-2019 03:02:17 5.8 C 41 %
1460 16-12-2019 03:12:17 5.9 C 41 %
1461 16-12-2019 03:22:17 5.9 C 41 %
1462 16-12-2019 03:32:18 5.9 C 41 %
1463 16-12-2019 03:42:18 5.8 C 41 %
1464 16-12-2019 03:52:17 6 C 41 %
1465 16-12-2019 04:02:17 6 C 41 %
1466 16-12-2019 04:12:17 6 C 41 %
1467 16-12-2019 04:22:17 5.9 C 41 %
1468 16-12-2019 04:32:17 6.1 C 41 %
1469 16-12-2019 04:42:17 6.2 C 41 %
1470 16-12-2019 04:52:17 6.3 C 41 %
1471 16-12-2019 05:02:17 6.4 C 41 %
1472 16-12-2019 05:12:17 6.4 C 41 %
1473 16-12-2019 05:22:17 6.5 C 41 %
1474 16-12-2019 05:32:17 6.6 C 41 %
1475 16-12-2019 05:42:17 6.6 C 41 %
Sensor: Nr:Datum:Temp:Feuchte:
Aussen-T/F 1476 16-12-2019 05:52:17 6.8 C 41 %
1477 16-12-2019 06:02:17 6.9 C 41 %
1478 16-12-2019 06:12:17 6.9 C 41 %
1479 16-12-2019 06:22:17 6.8 C 40 %
1480 16-12-2019 06:32:17 6.7 C 40 %
1481 16-12-2019 06:42:17 6.8 C 40 %
1482 16-12-2019 06:52:17 6.8 C 40 %
1483 16-12-2019 07:02:17 6.8 C 40 %
1484 16-12-2019 07:12:17 6.7 C 40 %
1485 16-12-2019 07:22:17 6.8 C 40 %
1486 16-12-2019 07:32:18 6.9 C 41 %
1487 16-12-2019 07:42:18 6.9 C 41 %
1488 16-12-2019 07:52:17 7 C 40 %
1489 16-12-2019 08:02:17 7.1 C 40 %
1490 16-12-2019 08:12:17 7 C 40 %
1491 16-12-2019 08:22:17 7.1 C 40 %
1492 16-12-2019 08:32:17 7.1 C 40 %
1493 16-12-2019 08:42:17 7.1 C 40 %
1494 16-12-2019 08:52:17 7.2 C 40 %
1495 16-12-2019 09:02:17 7.3 C 40 %
1496 16-12-2019 09:12:17 7.5 C 40 %
1497 16-12-2019 09:22:18 7.4 C 40 %
1498 16-12-2019 09:32:17 7.5 C 40 %
1499 16-12-2019 09:42:17 7.5 C 40 %
1500 16-12-2019 09:52:17 7.6 C 40 %
Sensor: Nr:Datum:Temp:Feuchte:
Aussen-T/F 1501 16-12-2019 10:02:18 7.6 C 40 %
1502 16-12-2019 10:12:18 7.7 C 40 %
1503 16-12-2019 10:22:17 7.8 C 40 %
1504 16-12-2019 10:32:17 7.9 C 40 %
1505 16-12-2019 10:42:17 8.1 C 40 %
1506 16-12-2019 10:52:17 8.2 C 40 %
1507 16-12-2019 11:02:17 8.3 C 40 %
1508 16-12-2019 11:12:17 8.5 C 40 %
1509 16-12-2019 11:22:17 8.9 C 40 %
1510 16-12-2019 11:32:18 8.8 C 39 %
1511 16-12-2019 11:42:18 9.1 C 39 %
1512 16-12-2019 11:52:17 9.4 C 39 %
1513 16-12-2019 12:02:17 9.3 C 38 %
1514 16-12-2019 12:12:17 9.3 C 37 %
1515 16-12-2019 12:22:17 9.3 C 37 %
1516 16-12-2019 12:32:17 9.4 C 37 %
1517 16-12-2019 12:42:17 9.4 C 38 %
1518 16-12-2019 12:52:17 9.8 C 38 %
1519 16-12-2019 13:02:17 9.9 C 36 %
1520 16-12-2019 13:12:17 9.9 C 36 %
1521 16-12-2019 13:22:17 10 C 35 %
1522 16-12-2019 13:32:17 10.2 C 34 %
1523 16-12-2019 13:42:17 10.2 C 35 %
1524 16-12-2019 13:52:18 10.3 C 34 %
1525 16-12-2019 14:02:17 10.1 C 34 %
Sensor: Nr:Datum:Temp:Feuchte:
Aussen-T/F 1526 16-12-2019 14:12:17 10.2 C 34 %
1527 16-12-2019 14:22:17 10.3 C 34 %
1528 16-12-2019 14:32:17 10.2 C 33 %
1529 16-12-2019 14:42:17 10.1 C 34 %
1530 16-12-2019 14:52:18 10.1 C 34 %
1531 16-12-2019 15:02:17 9.9 C 35 %
1532 16-12-2019 15:12:17 9.8 C 35 %
1533 16-12-2019 15:22:17 9.6 C 36 %
1534 16-12-2019 15:32:18 9.3 C 37 %
1535 16-12-2019 15:42:18 9.1 C 39 %
1536 16-12-2019 15:52:17 9 C 40 %
1537 16-12-2019 16:02:17 8.7 C 40 %
1538 16-12-2019 16:12:17 8.5 C 40 %
1539 16-12-2019 16:22:17 8.4 C 40 %
1540 16-12-2019 16:32:18 8.2 C 41 %
1541 16-12-2019 16:42:18 8 C 40 %
1542 16-12-2019 16:52:17 7.7 C 41 %
1543 16-12-2019 17:02:17 7.4 C 41 %
1544 16-12-2019 17:12:17 7.3 C 41 %
1545 16-12-2019 17:22:17 7.5 C 41 %
1546 16-12-2019 17:32:17 7.3 C 41 %
1547 16-12-2019 17:42:17 7.2 C 41 %
1548 16-12-2019 17:52:17 7 C 41 %
1549 16-12-2019 18:02:17 7.1 C 41 %
1550 16-12-2019 18:12:17 7.4 C 41 %
Sensor: Nr:Datum:Temp:Feuchte:
Aussen-T/F 1551 16-12-2019 18:22:17 7.5 C 41 %
1552 16-12-2019 18:32:17 8.2 C 40 %
1553 16-12-2019 18:42:17 8.1 C 38 %
1554 16-12-2019 18:52:17 8.7 C 37 %
1555 16-12-2019 19:02:18 8.5 C 35 %
1556 16-12-2019 19:12:18 7.9 C 36 %
1557 16-12-2019 19:22:17 7.7 C 37 %
1558 16-12-2019 19:32:17 8.5 C 40 %
1559 16-12-2019 19:42:17 7.9 C 37 %
1560 16-12-2019 19:52:18 8 C 37 %
1561 16-12-2019 20:02:17 7.9 C 37 %
1562 16-12-2019 20:12:17 8.1 C 36 %
1563 16-12-2019 20:22:17 7.7 C 37 %
1564 16-12-2019 20:32:17 8 C 39 %
1565 16-12-2019 20:42:17 7.9 C 36 %
1566 16-12-2019 20:52:17 7.8 C 36 %
1567 16-12-2019 21:02:17 7.3 C 37 %
1568 16-12-2019 21:12:17 7.2 C 40 %
1569 16-12-2019 21:22:17 7.5 C 39 %
1570 16-12-2019 21:32:17 7.2 C 38 %
1571 16-12-2019 21:42:17 7 C 40 %
1572 16-12-2019 21:52:17 6.7 C 41 %
1573 16-12-2019 22:02:17 6.9 C 41 %
1574 16-12-2019 22:12:17 7.5 C 40 %
1575 16-12-2019 22:22:17 7.4 C 38 %
Sensor: Nr:Datum:Temp:Feuchte:
Aussen-T/F 1576 16-12-2019 22:32:17 7.9 C 37 %
1577 16-12-2019 22:42:17 7.8 C 36 %
1578 16-12-2019 22:52:18 7.3 C 37 %
1579 16-12-2019 23:02:17 7.3 C 39 %
1580 16-12-2019 23:12:17 7.3 C 39 %
1581 16-12-2019 23:22:17 7.5 C 40 %
1582 16-12-2019 23:32:17 7.6 C 39 %
1583 16-12-2019 23:42:17 7.6 C 39 %
1584 16-12-2019 23:52:18 7.8 C 39 %
1585 17-12-2019 00:02:17 7.6 C 37 %
1586 17-12-2019 00:12:17 7.5 C 38 %
1587 17-12-2019 00:22:17 7.6 C 38 %
1588 17-12-2019 00:32:18 7.3 C 39 %
1589 17-12-2019 00:42:18 7.2 C 40 %
1590 17-12-2019 00:52:17 7.4 C 39 %
1591 17-12-2019 01:02:17 7.2 C 39 %
1592 17-12-2019 01:12:17 7.4 C 40 %
1593 17-12-2019 01:22:17 7.8 C 39 %
1594 17-12-2019 01:32:17 7.3 C 37 %
1595 17-12-2019 01:42:17 7.4 C 38 %
1596 17-12-2019 01:52:17 7.4 C 37 %
1597 17-12-2019 02:02:18 7.4 C 37 %
1598 17-12-2019 02:12:18 7.6 C 37 %
1599 17-12-2019 02:22:17 7.3 C 37 %
1600 17-12-2019 02:32:17 7.1 C 37 %
Sensor: Nr:Datum:Temp:Feuchte:
Aussen-T/F 1601 17-12-2019 02:42:17 7.5 C 36 %
1602 17-12-2019 02:52:18 7.6 C 36 %
1603 17-12-2019 03:02:17 8 C 35 %
1604 17-12-2019 03:12:17 8.1 C 35 %
1605 17-12-2019 03:22:17 8.4 C 35 %
1606 17-12-2019 03:32:17 8.8 C 32 %
1607 17-12-2019 03:42:17 8.9 C 32 %
1608 17-12-2019 03:52:18 8.8 C 32 %
1609 17-12-2019 04:02:17 8.5 C 32 %
1610 17-12-2019 04:12:17 8.5 C 32 %
1611 17-12-2019 04:22:17 8.4 C 32 %
1612 17-12-2019 04:32:17 8.4 C 32 %
1613 17-12-2019 04:42:17 8 C 32 %
1614 17-12-2019 04:52:18 8.3 C 33 %
1615 17-12-2019 05:02:17 8.5 C 33 %
1616 17-12-2019 05:12:17 8.5 C 33 %
1617 17-12-2019 05:22:17 8.2 C 33 %
1618 17-12-2019 05:32:17 8.1 C 34 %
1619 17-12-2019 05:42:17 7.9 C 35 %
1620 17-12-2019 05:52:17 7.9 C 36 %
1621 17-12-2019 06:02:17 7.8 C 36 %
1622 17-12-2019 06:12:17 7.3 C 36 %
1623 17-12-2019 06:22:18 7.3 C 38 %
1624 17-12-2019 06:32:17 7.5 C 38 %
1625 17-12-2019 06:42:17 7.6 C 36 %
Sensor: Nr:Datum:Temp:Feuchte:
Aussen-T/F 1626 17-12-2019 06:52:17 7.6 C 38 %
1627 17-12-2019 07:02:17 7.7 C 36 %
1628 17-12-2019 07:12:17 7.6 C 37 %
1629 17-12-2019 07:22:17 7.5 C 36 %
1630 17-12-2019 07:32:18 7 C 37 %
1631 17-12-2019 07:42:18 7.4 C 38 %
1632 17-12-2019 07:52:17 7.2 C 36 %
1633 17-12-2019 08:02:17 7.2 C 36 %
1634 17-12-2019 08:12:17 6.9 C 37 %
1635 17-12-2019 08:22:17 6.9 C 38 %
1636 17-12-2019 08:32:17 7 C 38 %
1637 17-12-2019 08:42:18 6.9 C 37 %
1638 17-12-2019 08:52:17 6.9 C 37 %
1639 17-12-2019 09:02:17 6.5 C 38 %
1640 17-12-2019 09:12:17 6.4 C 39 %
1641 17-12-2019 09:22:18 6.5 C 40 %
1642 17-12-2019 09:32:17 6.4 C 40 %
1643 17-12-2019 09:42:17 6.6 C 40 %
1644 17-12-2019 09:52:17 6.3 C 39 %
1645 17-12-2019 10:02:18 6.4 C 40 %
1646 17-12-2019 10:12:18 6.4 C 40 %
1647 17-12-2019 10:22:17 6.4 C 39 %
1648 17-12-2019 10:32:17 6.8 C 40 %
1649 17-12-2019 10:42:17 7.2 C 37 %
1650 17-12-2019 10:52:17 8 C 36 %
Sensor: Nr:Datum:Temp:Feuchte:
Aussen-T/F 1651 17-12-2019 11:02:17 8.6 C 34 %
1652 17-12-2019 11:12:17 8.5 C 32 %
1653 17-12-2019 11:22:17 8.7 C 32 %
1654 17-12-2019 11:32:17 9 C 32 %
1655 17-12-2019 11:42:17 9.1 C 32 %
1656 17-12-2019 11:52:17 9 C 32 %
1657 17-12-2019 12:02:17 9 C 34 %
1658 17-12-2019 12:12:17 9.2 C 34 %
1659 17-12-2019 12:22:17 9.5 C 33 %
1660 17-12-2019 12:32:17 9.7 C 32 %
1661 17-12-2019 12:42:17 9.8 C 32 %
1662 17-12-2019 12:52:17 9.6 C 32 %
1663 17-12-2019 13:02:17 10.1 C 31 %
1664 17-12-2019 13:12:17 10.4 C 30 %
1665 17-12-2019 13:22:17 10.6 C 30 %
1666 17-12-2019 13:32:17 11 C 29 %
1667 17-12-2019 13:42:17 11.6 C 28 %
1668 17-12-2019 13:52:18 12.3 C 26 %
1669 17-12-2019 14:02:17 12.5 C 26 %
1670 17-12-2019 14:12:17 12.4 C 26 %
1671 17-12-2019 14:22:17 11.6 C 27 %
1672 17-12-2019 14:32:17 11.4 C 27 %
1673 17-12-2019 14:42:17 11.5 C 27 %
1674 17-12-2019 14:52:17 11.8 C 27 %
1675 17-12-2019 15:02:17 12 C 26 %
Sensor: Nr:Datum:Temp:Feuchte:
Aussen-T/F 1676 17-12-2019 15:12:17 12 C 26 %
1677 17-12-2019 15:22:17 11.8 C 27 %
1678 17-12-2019 15:32:17 11.8 C 27 %
1679 17-12-2019 15:42:17 12.3 C 25 %
1680 17-12-2019 15:52:18 12.2 C 25 %
1681 17-12-2019 16:02:17 12.4 C 25 %
1682 17-12-2019 16:12:17 12.4 C 25 %
1683 17-12-2019 16:22:17 12.5 C 25 %
1684 17-12-2019 16:32:18 12.6 C 25 %
1685 17-12-2019 16:42:18 12.2 C 25 %
1686 17-12-2019 16:52:17 11.8 C 25 %
1687 17-12-2019 17:02:17 11.2 C 26 %
1688 17-12-2019 17:12:18 11.5 C 25 %
1689 17-12-2019 17:22:17 12 C 24 %
1690 17-12-2019 17:32:18 13.1 C 20 %
1691 17-12-2019 17:42:18 13.4 C 20 %
1692 17-12-2019 17:52:17 13.8 C 20 %
1693 17-12-2019 18:02:17 13.4 C 20 %
1694 17-12-2019 18:12:17 13.2 C 20 %
1695 17-12-2019 18:22:17 13.6 C 20 %
1696 17-12-2019 18:32:17 13.7 C 20 %
1697 17-12-2019 18:42:17 13.1 C 21 %
1698 17-12-2019 18:52:17 12.7 C 25 %
1699 17-12-2019 19:02:17 12.8 C 25 %
1700 17-12-2019 19:12:17 13.1 C 22 %
Sensor: Nr:Datum:Temp:Feuchte:
Aussen-T/F 1701 17-12-2019 19:22:17 12.8 C 25 %
1702 17-12-2019 19:32:18 11.7 C 29 %
1703 17-12-2019 19:42:18 11.6 C 29 %
1704 17-12-2019 19:52:17 11.6 C 30 %
1705 17-12-2019 20:02:18 11.6 C 30 %
1706 17-12-2019 20:12:18 11.5 C 31 %
1707 17-12-2019 20:22:17 11.6 C 31 %
1708 17-12-2019 20:32:17 11.3 C 33 %
1709 17-12-2019 20:42:17 11.2 C 35 %
1710 17-12-2019 20:52:17 11 C 36 %
1711 17-12-2019 21:02:17 10.9 C 36 %
1712 17-12-2019 21:12:17 10.5 C 38 %
1713 17-12-2019 21:22:17 10.3 C 39 %
1714 17-12-2019 21:32:17 10.4 C 38 %
1715 17-12-2019 21:42:17 11.5 C 31 %
1716 17-12-2019 21:52:17 11.3 C 31 %
1717 17-12-2019 22:02:17 13 C 25 %
1718 17-12-2019 22:12:17 12.5 C 26 %
1719 17-12-2019 22:22:17 13.1 C 25 %
1720 17-12-2019 22:32:17 13.4 C 25 %
1721 17-12-2019 22:42:17 13.2 C 25 %
1722 17-12-2019 22:52:17 13.1 C 25 %
1723 17-12-2019 23:02:17 12.4 C 26 %
1724 17-12-2019 23:12:17 11.9 C 29 %
1725 17-12-2019 23:22:17 11.3 C 30 %
Sensor: Nr:Datum:Temp:Feuchte:
Aussen-T/F 1726 17-12-2019 23:32:17 11.1 C 31 %
1727 17-12-2019 23:42:17 11 C 30 %
1728 17-12-2019 23:52:17 10.8 C 33 %
1729 18-12-2019 00:02:17 10.4 C 35 %
1730 18-12-2019 00:12:17 10.4 C 34 %
1731 18-12-2019 00:22:17 10.5 C 34 %
1732 18-12-2019 00:32:18 10.9 C 31 %
1733 18-12-2019 00:42:18 11 C 30 %
1734 18-12-2019 00:52:17 11 C 30 %
1735 18-12-2019 01:02:17 10.8 C 30 %
1736 18-12-2019 01:12:17 11 C 29 %
1737 18-12-2019 01:22:17 11.1 C 29 %
1738 18-12-2019 01:32:18 10.9 C 30 %
1739 18-12-2019 01:42:18 10.4 C 30 %
1740 18-12-2019 01:52:17 10.8 C 30 %
1741 18-12-2019 02:02:17 11.1 C 30 %
1742 18-12-2019 02:12:17 11.1 C 29 %
1743 18-12-2019 02:22:17 11.2 C 30 %
1744 18-12-2019 02:32:17 11.3 C 29 %
1745 18-12-2019 02:42:18 10.9 C 30 %
1746 18-12-2019 02:52:17 10.9 C 31 %
1747 18-12-2019 03:02:17 10.6 C 33 %
1748 18-12-2019 03:12:17 10.3 C 35 %
1749 18-12-2019 03:22:18 10.3 C 37 %
1750 18-12-2019 03:32:17 10.1 C 37 %
Sensor: Nr:Datum:Temp:Feuchte:
Aussen-T/F 1751 18-12-2019 03:42:17 10 C 38 %
1752 18-12-2019 03:52:18 10.1 C 38 %
1753 18-12-2019 04:02:18 10 C 38 %
1754 18-12-2019 04:12:18 9.9 C 38 %
1755 18-12-2019 04:22:17 9.8 C 35 %
1756 18-12-2019 04:32:18 9.6 C 34 %
1757 18-12-2019 04:42:18 9.5 C 33 %
1758 18-12-2019 04:52:17 9.3 C 33 %
1759 18-12-2019 05:02:18 9.2 C 33 %
1760 18-12-2019 05:12:18 9.1 C 33 %
1761 18-12-2019 05:22:17 8.8 C 35 %
1762 18-12-2019 05:32:17 8.7 C 36 %
1763 18-12-2019 05:42:17 8.2 C 36 %
1764 18-12-2019 05:52:17 8.2 C 39 %
1765 18-12-2019 06:02:18 8.1 C 39 %
1766 18-12-2019 06:12:18 8 C 37 %
1767 18-12-2019 06:22:17 8 C 37 %
1768 18-12-2019 06:32:18 7.9 C 37 %
1769 18-12-2019 06:42:18 7.5 C 37 %
1770 18-12-2019 06:52:17 7.4 C 39 %
1771 18-12-2019 07:02:17 7.2 C 40 %
1772 18-12-2019 07:12:17 7.3 C 40 %
1773 18-12-2019 07:22:17 7.3 C 40 %
1774 18-12-2019 07:32:17 7.1 C 39 %
1775 18-12-2019 07:42:17 6.8 C 40 %
Sensor: Nr:Datum:Temp:Feuchte:
Aussen-T/F 1776 18-12-2019 07:52:17 6.9 C 41 %
1777 18-12-2019 08:02:17 6.7 C 41 %
1778 18-12-2019 08:12:17 6.5 C 41 %
1779 18-12-2019 08:22:17 6.5 C 41 %
1780 18-12-2019 08:32:17 6.3 C 41 %
1781 18-12-2019 08:42:17 6.4 C 42 %
1782 18-12-2019 08:52:17 6.6 C 42 %
1783 18-12-2019 09:02:17 6.5 C 41 %
1784 18-12-2019 09:12:17 6.1 C 40 %
1785 18-12-2019 09:22:17 6 C 41 %
1786 18-12-2019 09:32:17 6.5 C 42 %
1787 18-12-2019 09:42:17 6.7 C 42 %
1788 18-12-2019 09:52:17 6.9 C 41 %
1789 18-12-2019 10:02:17 7 C 40 %
1790 18-12-2019 10:12:18 7.1 C 40 %
1791 18-12-2019 10:22:17 7.5 C 38 %
1792 18-12-2019 10:32:17 7.5 C 36 %
1793 18-12-2019 10:42:17 7.4 C 36 %
1794 18-12-2019 10:52:17 6.9 C 38 %
1795 18-12-2019 11:02:17 6.8 C 38 %
1796 18-12-2019 11:12:17 6.8 C 38 %
1797 18-12-2019 11:22:17 6.6 C 38 %
1798 18-12-2019 11:32:18 6.7 C 39 %
1799 18-12-2019 11:42:18 6.9 C 38 %
1800 18-12-2019 11:52:17 7.6 C 35 %
Sensor: Nr:Datum:Temp:Feuchte:
Aussen-T/F 1801 18-12-2019 12:02:17 8.1 C 33 %
1802 18-12-2019 12:12:17 8 C 32 %
1803 18-12-2019 12:22:17 8.3 C 31 %
1804 18-12-2019 12:32:17 8.6 C 30 %
1805 18-12-2019 12:42:17 8.8 C 29 %
1806 18-12-2019 12:52:17 8.7 C 29 %
1807 18-12-2019 13:02:17 8.4 C 30 %
1808 18-12-2019 13:12:17 8.2 C 30 %
1809 18-12-2019 13:22:17 7.9 C 31 %
1810 18-12-2019 13:32:18 7.8 C 32 %
1811 18-12-2019 13:42:18 7.7 C 33 %
1812 18-12-2019 13:52:17 7.8 C 32 %
1813 18-12-2019 14:02:18 7.8 C 33 %
1814 18-12-2019 14:12:18 7.7 C 33 %
1815 18-12-2019 14:22:17 7.5 C 34 %
1816 18-12-2019 14:32:17 7.3 C 35 %
1817 18-12-2019 14:42:17 7.2 C 35 %
1818 18-12-2019 14:52:17 7.2 C 35 %
1819 18-12-2019 15:02:17 7.2 C 35 %
1820 18-12-2019 15:12:17 7 C 36 %
1821 18-12-2019 15:22:17 7 C 36 %
1822 18-12-2019 15:32:17 6.7 C 37 %
1823 18-12-2019 15:42:17 6.8 C 37 %
1824 18-12-2019 15:52:17 6.7 C 36 %
1825 18-12-2019 16:02:17 6.6 C 36 %
Sensor: Nr:Datum:Temp:Feuchte:
Aussen-T/F 1826 18-12-2019 16:12:17 6.5 C 36 %
1827 18-12-2019 16:22:17 6.4 C 36 %
1828 18-12-2019 16:32:17 6 C 36 %
1829 18-12-2019 16:42:17 5.8 C 37 %
1830 18-12-2019 16:52:17 5.7 C 39 %
1831 18-12-2019 17:02:17 5.3 C 38 %
1832 18-12-2019 17:12:17 4.9 C 40 %
1833 18-12-2019 17:22:17 5 C 42 %
1834 18-12-2019 17:32:17 4.4 C 41 %
1835 18-12-2019 17:42:17 4.2 C 42 %
1836 18-12-2019 17:52:18 4.1 C 42 %
1837 18-12-2019 18:02:17 4.1 C 43 %
1838 18-12-2019 18:12:17 4.1 C 43 %
1839 18-12-2019 18:22:17 4.4 C 43 %
1840 18-12-2019 18:32:17 4.5 C 43 %
1841 18-12-2019 18:42:17 4.3 C 42 %
1842 18-12-2019 18:52:17 4.6 C 43 %
1843 18-12-2019 19:02:17 5 C 42 %
1844 18-12-2019 19:12:17 4.7 C 42 %
1845 18-12-2019 19:22:17 4.3 C 42 %
1846 18-12-2019 19:32:18 4.9 C 43 %
1847 18-12-2019 19:42:18 4.7 C 42 %
1848 18-12-2019 19:52:17 4.6 C 42 %
1849 18-12-2019 20:02:17 5 C 42 %
1850 18-12-2019 20:12:17 5 C 41 %
Sensor: Nr:Datum:Temp:Feuchte:
Aussen-T/F 1851 18-12-2019 20:22:17 4.5 C 41 %
1852 18-12-2019 20:32:17 4.5 C 41 %
1853 18-12-2019 20:42:18 4.1 C 41 %
1854 18-12-2019 20:52:17 3.9 C 42 %
1855 18-12-2019 21:02:17 3.7 C 43 %
1856 18-12-2019 21:12:17 3.6 C 42 %
1857 18-12-2019 21:22:17 3.6 C 43 %
1858 18-12-2019 21:32:17 3.7 C 43 %
1859 18-12-2019 21:42:17 3.6 C 43 %
1860 18-12-2019 21:52:17 3.4 C 43 %
1861 18-12-2019 22:02:17 3.1 C 43 %
1862 18-12-2019 22:12:17 3.1 C 43 %
1863 18-12-2019 22:22:17 2.7 C 43 %
1864 18-12-2019 22:32:17 2.6 C 43 %
1865 18-12-2019 22:42:17 2.5 C 43 %
1866 18-12-2019 22:52:17 2.4 C 43 %
1867 18-12-2019 23:02:17 2.4 C 43 %
1868 18-12-2019 23:12:17 2.3 C 43 %
1869 18-12-2019 23:22:18 2.3 C 43 %
1870 18-12-2019 23:32:17 2 C 43 %
1871 18-12-2019 23:42:17 2 C 43 %
1872 18-12-2019 23:52:17 2 C 43 %
1873 19-12-2019 00:02:18 2.3 C 44 %
1874 19-12-2019 00:12:18 2 C 43 %
1875 19-12-2019 00:22:17 2 C 43 %
Sensor: Nr:Datum:Temp:Feuchte:
Aussen-T/F 1876 19-12-2019 00:32:17 2.1 C 43 %
1877 19-12-2019 00:42:17 2.4 C 44 %
1878 19-12-2019 00:52:18 2.3 C 43 %
1879 19-12-2019 01:02:17 2.1 C 43 %
1880 19-12-2019 01:12:17 2 C 43 %
1881 19-12-2019 01:22:17 2 C 43 %
1882 19-12-2019 01:32:18 1.6 C 44 %
1883 19-12-2019 01:42:18 1.9 C 44 %
1884 19-12-2019 01:52:17 2.3 C 43 %
1885 19-12-2019 02:02:17 2.2 C 43 %
1886 19-12-2019 02:12:17 2 C 43 %
1887 19-12-2019 02:22:17 2 C 43 %
1888 19-12-2019 02:32:18 2 C 43 %
1889 19-12-2019 02:42:18 1.8 C 44 %
1890 19-12-2019 02:52:17 2.1 C 43 %
1891 19-12-2019 03:02:18 1.5 C 44 %
1892 19-12-2019 03:12:18 1.6 C 44 %
1893 19-12-2019 03:22:17 1.6 C 44 %
1894 19-12-2019 03:32:17 1.8 C 44 %
1895 19-12-2019 03:42:17 1.7 C 44 %
1896 19-12-2019 03:52:17 1.7 C 44 %
1897 19-12-2019 04:02:17 1.6 C 44 %
1898 19-12-2019 04:12:17 1.5 C 44 %
1899 19-12-2019 04:22:18 1.5 C 44 %
1900 19-12-2019 04:32:17 1.5 C 44 %
Sensor: Nr:Datum:Temp:Feuchte:
Aussen-T/F 1901 19-12-2019 04:42:17 1.4 C 44 %
1902 19-12-2019 04:52:18 1.6 C 44 %
1903 19-12-2019 05:02:17 1.4 C 44 %
1904 19-12-2019 05:12:17 1.5 C 44 %
1905 19-12-2019 05:22:17 1.4 C 44 %
1906 19-12-2019 05:32:17 1.3 C 44 %
1907 19-12-2019 05:42:17 1.3 C 44 %
1908 19-12-2019 05:52:17 1.1 C 44 %
1909 19-12-2019 06:02:17 1.1 C 44 %
1910 19-12-2019 06:12:17 1.2 C 44 %
1911 19-12-2019 06:22:17 1 C 44 %
1912 19-12-2019 06:32:17 1.1 C 44 %
1913 19-12-2019 06:42:18 1 C 43 %
1914 19-12-2019 06:52:17 0.7 C 45 %
1915 19-12-2019 07:02:17 1 C 44 %
1916 19-12-2019 07:12:17 0.9 C 45 %
1917 19-12-2019 07:22:17 1.7 C 44 %
1918 19-12-2019 07:32:17 3.5 C 43 %
1919 19-12-2019 07:42:18 3.2 C 42 %
1920 19-12-2019 07:52:17 3.1 C 42 %
1921 19-12-2019 08:02:18 4.6 C 42 %
1922 19-12-2019 08:12:18 3.8 C 42 %
1923 19-12-2019 08:22:17 3.7 C 42 %
1924 19-12-2019 08:32:18 4.6 C 41 %
1925 19-12-2019 08:42:18 4 C 41 %
Sensor: Nr:Datum:Temp:Feuchte:
Aussen-T/F 1926 19-12-2019 08:52:17 3.3 C 41 %
1927 19-12-2019 09:02:17 4 C 41 %
1928 19-12-2019 09:12:17 4.4 C 41 %
1929 19-12-2019 09:22:17 4.1 C 41 %
1930 19-12-2019 09:32:17 4.6 C 41 %
1931 19-12-2019 09:42:17 4.4 C 41 %
1932 19-12-2019 09:52:17 4.5 C 41 %
1933 19-12-2019 10:02:17 4.7 C 41 %
1934 19-12-2019 10:12:17 4.9 C 41 %
1935 19-12-2019 10:22:17 5.2 C 41 %
1936 19-12-2019 10:32:17 7 C 40 %
1937 19-12-2019 10:42:17 7.2 C 40 %
1938 19-12-2019 10:52:18 6.7 C 40 %
1939 19-12-2019 11:02:17 6.4 C 39 %
1940 19-12-2019 11:12:17 6.3 C 39 %
1941 19-12-2019 11:22:17 6.3 C 40 %
1942 19-12-2019 11:32:17 6.4 C 40 %
1943 19-12-2019 11:42:17 6.6 C 40 %
1944 19-12-2019 11:52:18 6.7 C 40 %
1945 19-12-2019 12:02:17 6.6 C 40 %
1946 19-12-2019 12:12:17 6.7 C 40 %
1947 19-12-2019 12:22:17 6.7 C 40 %
1948 19-12-2019 12:32:17 7 C 39 %
1949 19-12-2019 12:42:17 7 C 39 %
1950 19-12-2019 12:52:17 7.1 C 39 %
Sensor: Nr:Datum:Temp:Feuchte:
Aussen-T/F 1951 19-12-2019 13:02:17 7.3 C 39 %
1952 19-12-2019 13:12:17 7.1 C 38 %
1953 19-12-2019 13:22:17 7.2 C 39 %
1954 19-12-2019 13:32:17 7.2 C 39 %
1955 19-12-2019 13:42:17 7.3 C 38 %
1956 19-12-2019 13:52:17 7.3 C 38 %
1957 19-12-2019 14:02:17 7.3 C 38 %
1958 19-12-2019 14:12:17 7.1 C 38 %
1959 19-12-2019 14:22:17 7.1 C 38 %
1960 19-12-2019 14:32:17 7.2 C 38 %
1961 19-12-2019 14:42:17 7.3 C 37 %
1962 19-12-2019 14:52:17 7.9 C 36 %
1963 19-12-2019 15:02:17 8.1 C 34 %
1964 19-12-2019 15:12:17 8.1 C 33 %
1965 19-12-2019 15:22:17 8.4 C 32 %
1966 19-12-2019 15:32:18 8.6 C 32 %
1967 19-12-2019 15:42:18 8.7 C 31 %
1968 19-12-2019 15:52:17 8.8 C 31 %
1969 19-12-2019 16:02:17 8.7 C 30 %
1970 19-12-2019 16:12:17 8.3 C 31 %
1971 19-12-2019 16:22:18 8.1 C 31 %
1972 19-12-2019 16:32:17 7.9 C 32 %
1973 19-12-2019 16:42:17 7.9 C 31 %
1974 19-12-2019 16:52:17 7.6 C 32 %
1975 19-12-2019 17:02:17 7.4 C 32 %
Sensor: Nr:Datum:Temp:Feuchte:
Aussen-T/F 1976 19-12-2019 17:12:17 6 C 35 %
1977 19-12-2019 17:22:17 5.7 C 37 %
1978 19-12-2019 17:32:17 5.5 C 39 %
1979 19-12-2019 17:42:17 5 C 39 %
1980 19-12-2019 17:52:17 4.9 C 41 %
1981 19-12-2019 18:02:17 5.2 C 42 %
1982 19-12-2019 18:12:18 4.9 C 42 %
1983 19-12-2019 18:22:17 5.2 C 42 %
1984 19-12-2019 18:32:17 5 C 41 %
1985 19-12-2019 18:42:17 5 C 41 %
1986 19-12-2019 18:52:18 5.8 C 42 %
1987 19-12-2019 19:02:17 5.7 C 41 %
1988 19-12-2019 19:12:17 5.2 C 39 %
1989 19-12-2019 19:22:18 4.7 C 40 %
1990 19-12-2019 19:32:17 4.9 C 42 %
1991 19-12-2019 19:42:17 4.7 C 42 %
1992 19-12-2019 19:52:17 4.8 C 42 %
1993 19-12-2019 20:02:17 5 C 42 %
1994 19-12-2019 20:12:17 5 C 41 %
1995 19-12-2019 20:22:17 4.8 C 42 %
1996 19-12-2019 20:32:17 5.1 C 42 %
1997 19-12-2019 20:42:17 6 C 41 %
1998 19-12-2019 20:52:17 6 C 38 %
1999 19-12-2019 21:02:17 5.8 C 38 %
2000 19-12-2019 21:12:18 5.8 C 39 %
Sensor: Nr:Datum:Temp:Feuchte:
Aussen-T/F 2001 19-12-2019 21:22:17 5.7 C 39 %
2002 19-12-2019 21:32:17 5.8 C 40 %
2003 19-12-2019 21:42:17 6 C 40 %
2004 19-12-2019 21:52:17 5.7 C 40 %
2005 19-12-2019 22:02:17 5.6 C 40 %
2006 19-12-2019 22:12:17 5.8 C 41 %
2007 19-12-2019 22:22:18 6.2 C 41 %
2008 19-12-2019 22:32:18 5.9 C 40 %
2009 19-12-2019 22:42:18 5.1 C 38 %
2010 19-12-2019 22:52:17 5 C 41 %
2011 19-12-2019 23:02:17 5.4 C 43 %
2012 19-12-2019 23:12:17 5.5 C 42 %
2013 19-12-2019 23:22:17 5.5 C 42 %
2014 19-12-2019 23:32:17 5.4 C 42 %
2015 19-12-2019 23:42:17 5.4 C 42 %
2016 19-12-2019 23:52:17 5.1 C 41 %
2017 20-12-2019 00:02:17 4.8 C 42 %
2018 20-12-2019 00:12:17 4.3 C 41 %
2019 20-12-2019 00:22:17 4 C 41 %
2020 20-12-2019 00:32:17 3.9 C 43 %
2021 20-12-2019 00:42:17 3.7 C 42 %
2022 20-12-2019 00:52:17 3.4 C 43 %
2023 20-12-2019 01:02:17 3.1 C 42 %
2024 20-12-2019 01:12:17 3 C 43 %
2025 20-12-2019 01:22:17 3.3 C 44 %
Sensor: Nr:Datum:Temp:Feuchte:
Aussen-T/F 2026 20-12-2019 01:32:17 3.1 C 43 %
2027 20-12-2019 01:42:17 3.1 C 43 %
2028 20-12-2019 01:52:17 2.8 C 44 %
2029 20-12-2019 02:02:17 2.8 C 44 %
2030 20-12-2019 02:12:17 2.6 C 44 %
2031 20-12-2019 02:22:17 2.5 C 44 %
2032 20-12-2019 02:32:18 3.2 C 44 %
2033 20-12-2019 02:42:18 3.4 C 44 %
2034 20-12-2019 02:52:17 3.8 C 44 %
2035 20-12-2019 03:02:17 4.7 C 42 %
2036 20-12-2019 03:12:17 4.2 C 41 %
2037 20-12-2019 03:22:17 4.6 C 41 %
2038 20-12-2019 03:32:17 4.4 C 40 %
2039 20-12-2019 03:42:17 4.4 C 40 %
2040 20-12-2019 03:52:17 4.6 C 41 %
2041 20-12-2019 04:02:17 4.4 C 40 %
2042 20-12-2019 04:12:17 4.2 C 40 %
2043 20-12-2019 04:22:17 4 C 41 %
2044 20-12-2019 04:32:18 4.8 C 42 %
2045 20-12-2019 04:42:18 4.5 C 41 %
2046 20-12-2019 04:52:17 4.7 C 40 %
2047 20-12-2019 05:02:17 4.7 C 40 %
2048 20-12-2019 05:12:17 5.3 C 38 %
2049 20-12-2019 05:22:17 5.2 C 36 %
2050 20-12-2019 05:32:17 5.3 C 36 %
Sensor: Nr:Datum:Temp:Feuchte:
Aussen-T/F 2051 20-12-2019 05:42:17 5.4 C 35 %
2052 20-12-2019 05:52:18 5.5 C 35 %
2053 20-12-2019 06:02:18 5.2 C 35 %
2054 20-12-2019 06:12:18 5.3 C 35 %
2055 20-12-2019 06:22:17 5.6 C 35 %
2056 20-12-2019 06:32:17 6 C 32 %
2057 20-12-2019 06:42:17 6 C 31 %
2058 20-12-2019 06:52:17 5.7 C 32 %
2059 20-12-2019 07:02:17 5.8 C 31 %
2060 20-12-2019 07:12:17 5.9 C 31 %
2061 20-12-2019 07:22:17 6.1 C 31 %
2062 20-12-2019 07:32:17 5.9 C 33 %
2063 20-12-2019 07:42:17 6.4 C 31 %
2064 20-12-2019 07:52:17 6.8 C 30 %
2065 20-12-2019 08:02:17 7.1 C 27 %
2066 20-12-2019 08:12:17 6.4 C 31 %
2067 20-12-2019 08:22:17 6.4 C 32 %
2068 20-12-2019 08:32:18 6.5 C 32 %
2069 20-12-2019 08:42:18 6.3 C 32 %
2070 20-12-2019 08:52:17 6.3 C 33 %
2071 20-12-2019 09:02:17 6.5 C 33 %
2072 20-12-2019 09:12:17 6.7 C 31 %
2073 20-12-2019 09:22:17 6.5 C 33 %
2074 20-12-2019 09:32:17 6.4 C 35 %
2075 20-12-2019 09:42:17 6.5 C 35 %
Sensor: Nr:Datum:Temp:Feuchte:
Aussen-T/F 2076 20-12-2019 09:52:17 6.5 C 34 %
2077 20-12-2019 10:02:17 6.2 C 31 %
2078 20-12-2019 10:12:17 6 C 33 %
2079 20-12-2019 10:22:17 5.7 C 35 %
2080 20-12-2019 10:32:17 5.8 C 40 %
2081 20-12-2019 10:42:17 5.9 C 42 %
2082 20-12-2019 10:52:17 6 C 42 %
2083 20-12-2019 11:02:17 6.1 C 42 %
2084 20-12-2019 11:12:17 6 C 42 %
2085 20-12-2019 11:22:17 6.3 C 42 %
2086 20-12-2019 11:32:17 6.5 C 42 %
2087 20-12-2019 11:42:17 6.7 C 41 %
2088 20-12-2019 11:52:17 6.8 C 40 %
2089 20-12-2019 12:02:18 7 C 39 %
2090 20-12-2019 12:12:18 7.3 C 39 %
2091 20-12-2019 12:22:18 7.5 C 39 %
2092 20-12-2019 12:32:17 7.7 C 39 %
2093 20-12-2019 12:42:18 8 C 39 %
2094 20-12-2019 12:52:17 8.1 C 38 %
2095 20-12-2019 13:02:18 8.1 C 39 %
2096 20-12-2019 13:12:18 8.2 C 39 %
2097 20-12-2019 13:22:17 8.3 C 37 %
2098 20-12-2019 13:32:17 8.4 C 36 %
2099 20-12-2019 13:42:17 8.6 C 37 %
2100 20-12-2019 13:52:17 8.5 C 36 %
Sensor: Nr:Datum:Temp:Feuchte:
Aussen-T/F 2101 20-12-2019 14:02:17 8.6 C 36 %
2102 20-12-2019 14:12:17 8.6 C 35 %
2103 20-12-2019 14:22:17 8.7 C 36 %
2104 20-12-2019 14:32:17 8.7 C 36 %
2105 20-12-2019 14:42:17 8.5 C 35 %
2106 20-12-2019 14:52:18 8.3 C 36 %
2107 20-12-2019 15:02:17 8.2 C 37 %
2108 20-12-2019 15:12:17 8.3 C 38 %
2109 20-12-2019 15:22:17 8.3 C 39 %
2110 20-12-2019 15:32:17 8.2 C 40 %
2111 20-12-2019 15:42:17 8.3 C 41 %
2112 20-12-2019 15:52:17 8.2 C 40 %
2113 20-12-2019 16:02:17 8.2 C 40 %
2114 20-12-2019 16:12:18 8.3 C 40 %
2115 20-12-2019 16:22:17 8.3 C 41 %
2116 20-12-2019 16:32:17 8.4 C 41 %
2117 20-12-2019 16:42:17 8.4 C 41 %
2118 20-12-2019 16:52:18 8.6 C 41 %
2119 20-12-2019 17:02:17 9 C 41 %
2120 20-12-2019 17:12:18 9 C 40 %
2121 20-12-2019 17:22:17 9.1 C 36 %
2122 20-12-2019 17:32:17 8.7 C 38 %
2123 20-12-2019 17:42:17 8.8 C 37 %
2124 20-12-2019 17:52:18 8.7 C 38 %
2125 20-12-2019 18:02:17 8.9 C 37 %
Sensor: Nr:Datum:Temp:Feuchte:
Aussen-T/F 2126 20-12-2019 18:12:17 8.9 C 36 %
2127 20-12-2019 18:22:17 8.9 C 37 %
2128 20-12-2019 18:32:17 8.9 C 37 %
2129 20-12-2019 18:42:17 9.7 C 33 %
2130 20-12-2019 18:52:18 9.5 C 31 %
2131 20-12-2019 19:02:17 9.8 C 30 %
2132 20-12-2019 19:12:17 10.1 C 28 %
2133 20-12-2019 19:22:17 9.9 C 29 %
2134 20-12-2019 19:32:17 9.8 C 29 %
2135 20-12-2019 19:42:17 10 C 27 %
2136 20-12-2019 19:52:18 9.7 C 29 %
2137 20-12-2019 20:02:18 9.6 C 28 %
2138 20-12-2019 20:12:18 9.5 C 28 %
2139 20-12-2019 20:22:17 9.5 C 27 %
2140 20-12-2019 20:32:18 9 C 28 %
2141 20-12-2019 20:42:18 9 C 27 %
2142 20-12-2019 20:52:17 8.9 C 28 %
2143 20-12-2019 21:02:18 8.5 C 28 %
2144 20-12-2019 21:12:18 8.6 C 28 %
2145 20-12-2019 21:22:17 8.9 C 27 %
2146 20-12-2019 21:32:17 8.7 C 27 %
2147 20-12-2019 21:42:17 8.3 C 28 %
2148 20-12-2019 21:52:17 8.3 C 28 %
2149 20-12-2019 22:02:17 8.3 C 28 %
2150 20-12-2019 22:12:17 8.1 C 28 %
Sensor: Nr:Datum:Temp:Feuchte:
Aussen-T/F 2151 20-12-2019 22:22:17 8.7 C 27 %
2152 20-12-2019 22:32:17 8.9 C 26 %
2153 20-12-2019 22:42:17 8.7 C 27 %
2154 20-12-2019 22:52:17 8.7 C 27 %
2155 20-12-2019 23:02:17 8.5 C 27 %
2156 20-12-2019 23:12:17 8.4 C 27 %
2157 20-12-2019 23:22:17 8.2 C 28 %
2158 20-12-2019 23:32:17 8 C 28 %
2159 20-12-2019 23:42:17 8.3 C 27 %
2160 20-12-2019 23:52:18 8.1 C 27 %
2161 21-12-2019 00:02:17 7.9 C 28 %
2162 21-12-2019 00:12:17 7.7 C 28 %
2163 21-12-2019 00:22:17 7.5 C 30 %
2164 21-12-2019 00:32:17 7.5 C 30 %
2165 21-12-2019 00:42:17 7.2 C 30 %
2166 21-12-2019 00:52:18 7 C 30 %
2167 21-12-2019 01:02:17 6.9 C 32 %
2168 21-12-2019 01:12:17 7.3 C 31 %
2169 21-12-2019 01:22:17 7.4 C 31 %
2170 21-12-2019 01:32:17 7.3 C 32 %
2171 21-12-2019 01:42:17 7.5 C 31 %
2172 21-12-2019 01:52:17 7.5 C 32 %
2173 21-12-2019 02:02:17 7.9 C 30 %
2174 21-12-2019 02:12:17 8 C 29 %
2175 21-12-2019 02:22:17 8.2 C 28 %
Sensor: Nr:Datum:Temp:Feuchte:
Aussen-T/F 2176 21-12-2019 02:32:18 7.8 C 30 %
2177 21-12-2019 02:42:18 7.8 C 30 %
2178 21-12-2019 02:52:17 7.8 C 30 %
2179 21-12-2019 03:02:17 7.5 C 30 %
2180 21-12-2019 03:12:17 7.5 C 31 %
2181 21-12-2019 03:22:17 7.4 C 31 %
2182 21-12-2019 03:32:18 7.3 C 31 %
2183 21-12-2019 03:42:18 7.1 C 31 %
2184 21-12-2019 03:52:17 7.1 C 32 %
2185 21-12-2019 04:02:17 6.9 C 33 %
2186 21-12-2019 04:12:17 6.7 C 36 %
2187 21-12-2019 04:22:17 6.4 C 37 %
2188 21-12-2019 04:32:18 6 C 38 %
2189 21-12-2019 04:42:18 5.9 C 38 %
2190 21-12-2019 04:52:17 5.7 C 40 %
2191 21-12-2019 05:02:17 6 C 40 %
2192 21-12-2019 05:12:17 5.6 C 39 %
2193 21-12-2019 05:22:17 5.4 C 38 %
2194 21-12-2019 05:32:18 5.4 C 38 %
2195 21-12-2019 05:42:18 5.1 C 38 %
2196 21-12-2019 05:52:17 5.3 C 40 %
2197 21-12-2019 06:02:17 4.9 C 41 %
2198 21-12-2019 06:12:17 4.8 C 41 %
2199 21-12-2019 06:22:18 4.3 C 40 %
2200 21-12-2019 06:32:17 4.3 C 42 %
Sensor: Nr:Datum:Temp:Feuchte:
Aussen-T/F 2201 21-12-2019 06:42:17 5 C 40 %
2202 21-12-2019 06:52:18 3.8 C 41 %
2203 21-12-2019 07:02:17 3.8 C 43 %
2204 21-12-2019 07:12:18 3.5 C 42 %
2205 21-12-2019 07:22:17 3.4 C 43 %
2206 21-12-2019 07:32:17 3.3 C 43 %
2207 21-12-2019 07:42:17 3 C 42 %
2208 21-12-2019 07:52:17 3 C 43 %
2209 21-12-2019 08:02:17 3.1 C 44 %
2210 21-12-2019 08:12:17 3.6 C 44 %
2211 21-12-2019 08:22:17 3.7 C 44 %
2212 21-12-2019 08:32:17 3.9 C 43 %
2213 21-12-2019 08:42:17 4.6 C 43 %
2214 21-12-2019 08:52:17 4.9 C 42 %
2215 21-12-2019 09:02:17 5 C 39 %
2216 21-12-2019 09:12:17 4.5 C 38 %
2217 21-12-2019 09:22:17 4.4 C 38 %
2218 21-12-2019 09:32:17 4.4 C 39 %
2219 21-12-2019 09:42:17 4.6 C 40 %
2220 21-12-2019 09:52:17 4.6 C 38 %
2221 21-12-2019 10:02:17 4.8 C 38 %
2222 21-12-2019 10:12:17 4.8 C 37 %
2223 21-12-2019 10:22:17 5.1 C 37 %
2224 21-12-2019 10:32:17 5.2 C 36 %
2225 21-12-2019 10:42:17 5.1 C 37 %
Sensor: Nr:Datum:Temp:Feuchte:
Aussen-T/F 2226 21-12-2019 10:52:17 5.2 C 37 %
2227 21-12-2019 11:02:17 5.3 C 37 %
2228 21-12-2019 11:12:17 5.3 C 37 %
2229 21-12-2019 11:22:17 5.4 C 37 %
2230 21-12-2019 11:32:17 5.8 C 37 %
2231 21-12-2019 11:42:17 5.9 C 37 %
2232 21-12-2019 11:52:17 5.8 C 37 %
2233 21-12-2019 12:02:17 5.8 C 36 %
2234 21-12-2019 12:12:17 6.2 C 36 %
2235 21-12-2019 12:22:17 6.2 C 35 %
2236 21-12-2019 12:32:17 7 C 32 %
2237 21-12-2019 12:42:17 6.8 C 33 %
2238 21-12-2019 12:52:17 8 C 30 %
2239 21-12-2019 13:02:17 7.8 C 30 %
2240 21-12-2019 13:12:17 7.1 C 30 %
2241 21-12-2019 13:22:17 6.9 C 31 %
2242 21-12-2019 13:32:17 7.2 C 30 %
2243 21-12-2019 13:42:17 8 C 28 %
2244 21-12-2019 13:52:18 7.7 C 28 %
2245 21-12-2019 14:02:17 8.3 C 27 %
2246 21-12-2019 14:12:17 8.8 C 26 %
2247 21-12-2019 14:22:17 8.2 C 27 %
2248 21-12-2019 14:32:18 8.2 C 27 %
2249 21-12-2019 14:42:18 8.5 C 27 %
2250 21-12-2019 14:52:17 8.8 C 26 %
Sensor: Nr:Datum:Temp:Feuchte:
Aussen-T/F 2251 21-12-2019 15:02:18 9 C 25 %
2252 21-12-2019 15:12:18 8.7 C 26 %
2253 21-12-2019 15:22:18 8.8 C 25 %
2254 21-12-2019 15:32:17 8.7 C 25 %
2255 21-12-2019 15:42:17 8 C 26 %
2256 21-12-2019 15:52:17 7.5 C 28 %
2257 21-12-2019 16:02:17 7.7 C 27 %
2258 21-12-2019 16:12:17 7.6 C 29 %
2259 21-12-2019 16:22:17 7.4 C 30 %
2260 21-12-2019 16:32:17 7.4 C 30 %
2261 21-12-2019 16:42:17 7.7 C 28 %
2262 21-12-2019 16:52:17 7.9 C 27 %
2263 21-12-2019 17:02:17 7.6 C 29 %
2264 21-12-2019 17:12:17 7.3 C 30 %
2265 21-12-2019 17:22:17 7.2 C 30 %
2266 21-12-2019 17:32:17 7.3 C 30 %
2267 21-12-2019 17:42:17 7.3 C 29 %
2268 21-12-2019 17:52:17 7.2 C 29 %
2269 21-12-2019 18:02:17 7.6 C 27 %
2270 21-12-2019 18:12:17 7.6 C 27 %
2271 21-12-2019 18:22:17 7.6 C 26 %
2272 21-12-2019 18:32:18 7.9 C 25 %
2273 21-12-2019 18:42:18 7.7 C 26 %
2274 21-12-2019 18:52:17 7.5 C 26 %
2275 21-12-2019 19:02:17 7.3 C 27 %
Sensor: Nr:Datum:Temp:Feuchte:
Aussen-T/F 2276 21-12-2019 19:12:17 7 C 27 %
2277 21-12-2019 19:22:17 7 C 27 %
2278 21-12-2019 19:32:17 6.9 C 30 %
2279 21-12-2019 19:42:17 6.8 C 30 %
2280 21-12-2019 19:52:17 7 C 27 %
2281 21-12-2019 20:02:17 7.1 C 26 %
2282 21-12-2019 20:12:17 7.1 C 26 %
2283 21-12-2019 20:22:17 7.1 C 26 %
2284 21-12-2019 20:32:17 6.9 C 28 %
2285 21-12-2019 20:42:17 7 C 27 %
2286 21-12-2019 20:52:17 6.8 C 27 %
2287 21-12-2019 21:02:18 6.4 C 29 %
2288 21-12-2019 21:12:18 6.1 C 30 %
2289 21-12-2019 21:22:17 6.1 C 31 %
2290 21-12-2019 21:32:17 6.3 C 31 %
2291 21-12-2019 21:42:17 5.9 C 31 %
2292 21-12-2019 21:52:18 5.1 C 34 %
2293 21-12-2019 22:02:18 4.9 C 36 %
2294 21-12-2019 22:12:18 5.2 C 34 %
2295 21-12-2019 22:22:17 5.7 C 30 %
2296 21-12-2019 22:32:17 6.1 C 27 %
2297 21-12-2019 22:42:17 6.1 C 27 %
2298 21-12-2019 22:52:17 6 C 27 %
2299 21-12-2019 23:02:17 5.8 C 27 %
2300 21-12-2019 23:12:17 5.8 C 27 %
Sensor: Nr:Datum:Temp:Feuchte:
Aussen-T/F 2301 21-12-2019 23:22:17 6.3 C 26 %
2302 21-12-2019 23:32:18 6.5 C 25 %
2303 21-12-2019 23:42:18 6.7 C 25 %
2304 21-12-2019 23:52:17 6.3 C 26 %
2305 22-12-2019 00:02:17 6.8 C 26 %
2306 22-12-2019 00:12:17 6.9 C 26 %
2307 22-12-2019 00:22:17 6.8 C 26 %
2308 22-12-2019 00:32:17 6.8 C 26 %
2309 22-12-2019 00:42:17 6.7 C 27 %
2310 22-12-2019 00:52:17 6.3 C 30 %
2311 22-12-2019 01:02:17 6.2 C 30 %
2312 22-12-2019 01:12:18 5.8 C 35 %
2313 22-12-2019 01:22:17 5.8 C 36 %
2314 22-12-2019 01:32:17 5.8 C 39 %
2315 22-12-2019 01:42:17 5.7 C 40 %
2316 22-12-2019 01:52:17 5.7 C 40 %
2317 22-12-2019 02:02:17 5.7 C 38 %
2318 22-12-2019 02:12:18 5.7 C 38 %
2319 22-12-2019 02:22:17 5.8 C 38 %
2320 22-12-2019 02:32:17 5.9 C 37 %
2321 22-12-2019 02:42:17 5.9 C 36 %
2322 22-12-2019 02:52:18 6 C 35 %
2323 22-12-2019 03:02:17 6.1 C 35 %
2324 22-12-2019 03:12:17 6.2 C 34 %
2325 22-12-2019 03:22:17 6.2 C 35 %
Sensor: Nr:Datum:Temp:Feuchte:
Aussen-T/F 2326 22-12-2019 03:32:17 6.2 C 34 %
2327 22-12-2019 03:42:17 6.1 C 35 %
2328 22-12-2019 03:52:17 6.2 C 35 %
2329 22-12-2019 04:02:18 6.2 C 35 %
2330 22-12-2019 04:12:18 6 C 35 %
2331 22-12-2019 04:22:17 6.2 C 34 %
2332 22-12-2019 04:32:17 6.2 C 34 %
2333 22-12-2019 04:42:17 6.3 C 33 %
2334 22-12-2019 04:52:17 6.3 C 33 %
2335 22-12-2019 05:02:17 6.2 C 34 %
2336 22-12-2019 05:12:17 5.8 C 34 %
2337 22-12-2019 05:22:17 5.4 C 36 %
2338 22-12-2019 05:32:17 5.7 C 40 %
2339 22-12-2019 05:42:17 6.1 C 38 %
2340 22-12-2019 05:52:17 5.5 C 35 %
2341 22-12-2019 06:02:17 5.1 C 39 %
2342 22-12-2019 06:12:17 5.3 C 41 %
2343 22-12-2019 06:22:17 4.9 C 41 %
2344 22-12-2019 06:32:17 5.4 C 42 %
2345 22-12-2019 06:42:17 5.9 C 41 %
2346 22-12-2019 06:52:17 6.2 C 39 %
2347 22-12-2019 07:02:17 6.2 C 38 %
2348 22-12-2019 07:12:17 6 C 38 %
2349 22-12-2019 07:22:17 5.7 C 38 %
2350 22-12-2019 07:32:17 5.4 C 39 %
Sensor: Nr:Datum:Temp:Feuchte:
Aussen-T/F 2351 22-12-2019 07:42:17 6 C 42 %
2352 22-12-2019 07:52:17 6.1 C 41 %
2353 22-12-2019 08:02:18 6.3 C 41 %
2354 22-12-2019 08:12:18 6.2 C 40 %
2355 22-12-2019 08:22:17 5.9 C 40 %
2356 22-12-2019 08:32:17 5.8 C 41 %
2357 22-12-2019 08:42:17 6.3 C 41 %
2358 22-12-2019 08:52:18 6.2 C 39 %
2359 22-12-2019 09:02:17 6 C 39 %
2360 22-12-2019 09:12:17 6.2 C 40 %
2361 22-12-2019 09:22:17 6.4 C 39 %
2362 22-12-2019 09:32:17 6.3 C 39 %
2363 22-12-2019 09:42:17 6.8 C 39 %
2364 22-12-2019 09:52:17 7 C 37 %
2365 22-12-2019 10:02:17 7.1 C 37 %
2366 22-12-2019 10:12:17 7.9 C 33 %
2367 22-12-2019 10:22:17 8.1 C 33 %
2368 22-12-2019 10:32:17 8.8 C 30 %
2369 22-12-2019 10:42:17 9 C 29 %
2370 22-12-2019 10:52:17 9.3 C 28 %
2371 22-12-2019 11:02:17 9.5 C 28 %
2372 22-12-2019 11:12:17 10 C 26 %
2373 22-12-2019 11:22:17 10 C 26 %
2374 22-12-2019 11:32:18 10.4 C 26 %
2375 22-12-2019 11:42:18 10.2 C 26 %
Sensor: Nr:Datum:Temp:Feuchte:
Aussen-T/F 2376 22-12-2019 11:52:17 10.4 C 26 %
2377 22-12-2019 12:02:17 10.5 C 25 %
2378 22-12-2019 12:12:17 10.5 C 26 %
2379 22-12-2019 12:22:17 10.5 C 25 %
2380 22-12-2019 12:32:17 10.7 C 26 %
2381 22-12-2019 12:42:17 10.8 C 26 %
2382 22-12-2019 12:52:17 11.2 C 25 %
2383 22-12-2019 13:02:17 11.1 C 25 %
2384 22-12-2019 13:12:17 10.8 C 25 %
2385 22-12-2019 13:22:17 10.7 C 25 %
2386 22-12-2019 13:32:17 10.7 C 25 %
2387 22-12-2019 13:42:17 10.7 C 25 %
2388 22-12-2019 13:52:17 10.8 C 25 %
2389 22-12-2019 14:02:17 11.1 C 23 %
2390 22-12-2019 14:12:17 11 C 23 %
2391 22-12-2019 14:22:17 10.8 C 23 %
2392 22-12-2019 14:32:17 10.9 C 23 %
2393 22-12-2019 14:42:17 10.8 C 23 %
2394 22-12-2019 14:52:17 10.7 C 25 %
2395 22-12-2019 15:02:17 10.6 C 25 %
2396 22-12-2019 15:12:17 10.3 C 25 %
2397 22-12-2019 15:22:17 10.1 C 25 %
2398 22-12-2019 15:32:17 9.9 C 26 %
2399 22-12-2019 15:42:17 9.7 C 26 %
2400 22-12-2019 15:52:18 9.6 C 25 %
Sensor: Nr:Datum:Temp:Feuchte:
Aussen-T/F 2401 22-12-2019 16:02:18 9.6 C 25 %
2402 22-12-2019 16:12:18 9.3 C 25 %
2403 22-12-2019 16:22:17 8.9 C 26 %
2404 22-12-2019 16:32:17 8.3 C 26 %
2405 22-12-2019 16:42:17 8.4 C 27 %
2406 22-12-2019 16:52:17 7.9 C 28 %
2407 22-12-2019 17:02:18 7.5 C 30 %
2408 22-12-2019 17:12:18 7.5 C 30 %
2409 22-12-2019 17:22:17 7.4 C 30 %
2410 22-12-2019 17:32:17 7.5 C 29 %
2411 22-12-2019 17:42:17 7.5 C 28 %
2412 22-12-2019 17:52:17 7.2 C 28 %
2413 22-12-2019 18:02:17 7.2 C 30 %
2414 22-12-2019 18:12:17 7.1 C 30 %
2415 22-12-2019 18:22:17 7.3 C 30 %
2416 22-12-2019 18:32:17 7.4 C 29 %
2417 22-12-2019 18:42:17 7.5 C 29 %
2418 22-12-2019 18:52:17 7.2 C 29 %
2419 22-12-2019 19:02:17 7.1 C 30 %
2420 22-12-2019 19:12:17 7 C 31 %
2421 22-12-2019 19:22:17 7 C 32 %
2422 22-12-2019 19:32:17 7.1 C 31 %
2423 22-12-2019 19:42:17 7.5 C 30 %
2424 22-12-2019 19:52:17 8 C 27 %
2425 22-12-2019 20:02:17 7.9 C 27 %
Sensor: Nr:Datum:Temp:Feuchte:
Aussen-T/F 2426 22-12-2019 20:12:17 8.1 C 26 %
2427 22-12-2019 20:22:17 8.3 C 25 %
2428 22-12-2019 20:32:17 8.2 C 25 %
2429 22-12-2019 20:42:17 8 C 25 %
2430 22-12-2019 20:52:17 8 C 25 %
2431 22-12-2019 21:02:17 8.1 C 25 %
2432 22-12-2019 21:12:17 8.1 C 25 %
2433 22-12-2019 21:22:17 7.8 C 25 %
2434 22-12-2019 21:32:17 8.1 C 25 %
2435 22-12-2019 21:42:17 7.8 C 26 %
2436 22-12-2019 21:52:17 7.7 C 26 %
2437 22-12-2019 22:02:17 7.9 C 26 %
2438 22-12-2019 22:12:17 7.6 C 26 %
2439 22-12-2019 22:22:17 7.5 C 26 %
2440 22-12-2019 22:32:17 7.1 C 27 %
2441 22-12-2019 22:42:17 6.9 C 28 %
2442 22-12-2019 22:52:17 6.7 C 29 %
2443 22-12-2019 23:02:17 6.2 C 31 %
2444 22-12-2019 23:12:17 6.4 C 31 %
2445 22-12-2019 23:22:17 6.6 C 31 %
2446 22-12-2019 23:32:17 6.6 C 31 %
2447 22-12-2019 23:42:17 6.7 C 31 %
2448 22-12-2019 23:52:17 6.7 C 31 %
2449 23-12-2019 00:02:17 6.6 C 32 %
2450 23-12-2019 00:12:17 6.5 C 31 %
Sensor: Nr:Datum:Temp:Feuchte:
Aussen-T/F 2451 23-12-2019 00:22:17 6.4 C 32 %
2452 23-12-2019 00:32:17 6.6 C 31 %
2453 23-12-2019 00:42:17 7 C 30 %
2454 23-12-2019 00:52:17 6.9 C 30 %
2455 23-12-2019 01:02:17 6.8 C 30 %
2456 23-12-2019 01:12:17 7.1 C 28 %
2457 23-12-2019 01:22:17 7 C 28 %
2458 23-12-2019 01:32:17 7.1 C 28 %
2459 23-12-2019 01:42:17 7.4 C 27 %
2460 23-12-2019 01:52:17 7.4 C 27 %
2461 23-12-2019 02:02:17 6.8 C 29 %
2462 23-12-2019 02:12:17 6.5 C 30 %
2463 23-12-2019 02:22:17 6.8 C 29 %
2464 23-12-2019 02:32:17 6.9 C 29 %
2465 23-12-2019 02:42:17 7.3 C 28 %
2466 23-12-2019 02:52:17 6.9 C 30 %
2467 23-12-2019 03:02:17 6.8 C 31 %
2468 23-12-2019 03:12:17 6.4 C 31 %
2469 23-12-2019 03:22:17 6.5 C 30 %
2470 23-12-2019 03:32:17 7 C 28 %
2471 23-12-2019 03:42:17 6.6 C 29 %
2472 23-12-2019 03:52:17 7 C 28 %
2473 23-12-2019 04:02:17 6.9 C 30 %
2474 23-12-2019 04:12:17 7.1 C 28 %
2475 23-12-2019 04:22:17 6.8 C 30 %
Sensor: Nr:Datum:Temp:Feuchte:
Aussen-T/F 2476 23-12-2019 04:32:17 6.9 C 31 %
2477 23-12-2019 04:42:17 6.5 C 31 %
2478 23-12-2019 04:52:17 6.1 C 31 %
2479 23-12-2019 05:02:17 6.4 C 32 %
2480 23-12-2019 05:12:17 7 C 30 %
2481 23-12-2019 05:22:17 7.1 C 30 %
2482 23-12-2019 05:32:17 7 C 30 %
2483 23-12-2019 05:42:17 6.8 C 31 %
2484 23-12-2019 05:52:17 6.3 C 32 %
2485 23-12-2019 06:02:18 6.3 C 34 %
2486 23-12-2019 06:12:18 6.6 C 33 %
2487 23-12-2019 06:22:17 6.9 C 31 %
2488 23-12-2019 06:32:18 7.1 C 30 %
2489 23-12-2019 06:42:18 6.9 C 31 %
2490 23-12-2019 06:52:17 6.9 C 31 %
2491 23-12-2019 07:02:17 6.8 C 32 %
2492 23-12-2019 07:12:17 6.8 C 34 %
2493 23-12-2019 07:22:17 6.8 C 32 %
2494 23-12-2019 07:32:17 7.1 C 30 %
2495 23-12-2019 07:42:17 7.4 C 29 %
2496 23-12-2019 07:52:17 7.1 C 30 %
2497 23-12-2019 08:02:17 7.3 C 30 %
2498 23-12-2019 08:12:17 7.4 C 28 %
2499 23-12-2019 08:22:17 7.5 C 28 %
2500 23-12-2019 08:32:18 7.5 C 28 %
Sensor: Nr:Datum:Temp:Feuchte:
Aussen-T/F 2501 23-12-2019 08:42:18 7.6 C 28 %
2502 23-12-2019 08:52:17 7.6 C 27 %
2503 23-12-2019 09:02:17 7.6 C 27 %
2504 23-12-2019 09:12:18 7.7 C 27 %
2505 23-12-2019 09:22:17 7.8 C 27 %
2506 23-12-2019 09:32:18 7.8 C 27 %
2507 23-12-2019 09:42:18 7.8 C 27 %
2508 23-12-2019 09:52:18 7.9 C 26 %
2509 23-12-2019 10:02:17 7.3 C 30 %
2510 23-12-2019 10:12:18 7 C 33 %
2511 23-12-2019 10:22:17 7 C 35 %
2512 23-12-2019 10:32:18 6.8 C 35 %
2513 23-12-2019 10:42:18 6.9 C 34 %
2514 23-12-2019 10:52:17 7.4 C 30 %
2515 23-12-2019 11:02:18 7.8 C 28 %
2516 23-12-2019 11:12:18 8.1 C 28 %
2517 23-12-2019 11:22:17 8.4 C 26 %
2518 23-12-2019 11:32:18 8.3 C 26 %
2519 23-12-2019 11:42:18 8.6 C 26 %
2520 23-12-2019 11:52:17 8.9 C 25 %
2521 23-12-2019 12:02:18 9.1 C 25 %
2522 23-12-2019 12:12:18 9.1 C 25 %
2523 23-12-2019 12:22:17 8.9 C 25 %
2524 23-12-2019 12:32:17 9 C 25 %
2525 23-12-2019 12:42:17 9.3 C 25 %
Sensor: Nr:Datum:Temp:Feuchte:
Aussen-T/F 2526 23-12-2019 12:52:17 8.4 C 26 %
2527 23-12-2019 13:02:17 8.4 C 26 %
2528 23-12-2019 13:12:17 8.3 C 27 %
2529 23-12-2019 13:22:17 8.2 C 27 %
2530 23-12-2019 13:32:18 8.1 C 29 %
2531 23-12-2019 13:42:18 8.2 C 28 %
2532 23-12-2019 13:52:17 8.5 C 28 %
2533 23-12-2019 14:02:17 8.9 C 27 %
2534 23-12-2019 14:12:17 8.9 C 26 %
2535 23-12-2019 14:22:18 9 C 25 %
2536 23-12-2019 14:32:17 9.1 C 25 %
2537 23-12-2019 14:42:17 9.1 C 25 %
2538 23-12-2019 14:52:17 8.9 C 25 %
2539 23-12-2019 15:02:18 8.7 C 26 %
2540 23-12-2019 15:12:18 9.1 C 25 %
2541 23-12-2019 15:22:17 9.1 C 25 %
2542 23-12-2019 15:32:17 9 C 25 %
2543 23-12-2019 15:42:17 9 C 25 %
2544 23-12-2019 15:52:17 8.8 C 25 %
2545 23-12-2019 16:02:17 8.8 C 25 %
2546 23-12-2019 16:12:17 8.6 C 26 %
2547 23-12-2019 16:22:18 8.5 C 25 %
2548 23-12-2019 16:32:17 8.4 C 25 %
2549 23-12-2019 16:42:17 8.5 C 25 %
2550 23-12-2019 16:52:18 8.5 C 25 %
Sensor: Nr:Datum:Temp:Feuchte:
Aussen-T/F 2551 23-12-2019 17:02:17 8.2 C 25 %
2552 23-12-2019 17:12:17 8.4 C 25 %
2553 23-12-2019 17:22:17 8 C 25 %
2554 23-12-2019 17:32:17 7.9 C 25 %
2555 23-12-2019 17:42:18 7.8 C 25 %
2556 23-12-2019 17:52:17 7.8 C 25 %
2557 23-12-2019 18:02:17 7.9 C 25 %
2558 23-12-2019 18:12:17 8 C 23 %
2559 23-12-2019 18:22:17 7.9 C 23 %
2560 23-12-2019 18:32:17 7.9 C 25 %
2561 23-12-2019 18:42:17 7.6 C 25 %
2562 23-12-2019 18:52:17 7.5 C 26 %
2563 23-12-2019 19:02:17 7.3 C 26 %
2564 23-12-2019 19:12:17 6.7 C 29 %
2565 23-12-2019 19:22:17 6.4 C 30 %
2566 23-12-2019 19:32:17 7.4 C 26 %
2567 23-12-2019 19:42:17 7 C 26 %
2568 23-12-2019 19:52:17 7 C 27 %
2569 23-12-2019 20:02:17 7 C 28 %
2570 23-12-2019 20:12:17 6.5 C 30 %
2571 23-12-2019 20:22:17 6.8 C 30 %
2572 23-12-2019 20:32:18 6.8 C 30 %
2573 23-12-2019 20:42:18 6.9 C 30 %
2574 23-12-2019 20:52:17 6.9 C 30 %
2575 23-12-2019 21:02:18 6.7 C 30 %
Sensor: Nr:Datum:Temp:Feuchte:
Aussen-T/F 2576 23-12-2019 21:12:18 7.1 C 28 %
2577 23-12-2019 21:22:17 7 C 28 %
2578 23-12-2019 21:32:17 6.7 C 31 %
2579 23-12-2019 21:42:17 6.5 C 31 %
2580 23-12-2019 21:52:17 6.5 C 32 %
2581 23-12-2019 22:02:18 6.4 C 31 %
2582 23-12-2019 22:12:18 5.8 C 32 %
2583 23-12-2019 22:22:17 5.4 C 37 %
2584 23-12-2019 22:32:17 5.7 C 33 %
2585 23-12-2019 22:42:17 5.3 C 34 %
2586 23-12-2019 22:52:17 5.5 C 34 %
2587 23-12-2019 23:02:17 5.4 C 33 %
2588 23-12-2019 23:12:17 5.5 C 32 %
2589 23-12-2019 23:22:18 5.4 C 30 %
2590 23-12-2019 23:32:17 5.8 C 30 %
2591 23-12-2019 23:42:17 4.8 C 33 %
2592 23-12-2019 23:52:17 4.8 C 36 %
2593 24-12-2019 00:02:17 5.6 C 35 %
2594 24-12-2019 00:12:17 5.8 C 32 %
2595 24-12-2019 00:22:17 5.7 C 32 %
2596 24-12-2019 00:32:18 6 C 32 %
2597 24-12-2019 00:42:18 6.1 C 31 %
2598 24-12-2019 00:52:17 6.3 C 31 %
2599 24-12-2019 01:02:17 5.6 C 32 %
2600 24-12-2019 01:12:17 5.9 C 32 %
Sensor: Nr:Datum:Temp:Feuchte:
Aussen-T/F 2601 24-12-2019 01:22:17 6.1 C 30 %
2602 24-12-2019 01:32:17 6.3 C 30 %
2603 24-12-2019 01:42:17 5.9 C 31 %
2604 24-12-2019 01:52:17 5.7 C 33 %
2605 24-12-2019 02:02:17 5.7 C 35 %
2606 24-12-2019 02:12:17 5.8 C 35 %
2607 24-12-2019 02:22:17 5.6 C 35 %
2608 24-12-2019 02:32:18 5.5 C 36 %
2609 24-12-2019 02:42:18 5.5 C 36 %
2610 24-12-2019 02:52:17 6.6 C 30 %
2611 24-12-2019 03:02:18 6.7 C 29 %
2612 24-12-2019 03:12:18 6.3 C 30 %
2613 24-12-2019 03:22:17 5.7 C 31 %
2614 24-12-2019 03:32:17 5.5 C 31 %
2615 24-12-2019 03:42:17 5.7 C 31 %
2616 24-12-2019 03:52:17 5 C 32 %
2617 24-12-2019 04:02:17 5 C 38 %
2618 24-12-2019 04:12:17 5.2 C 37 %
2619 24-12-2019 04:22:17 5.2 C 36 %
2620 24-12-2019 04:32:17 4.8 C 37 %
2621 24-12-2019 04:42:17 4.8 C 39 %
2622 24-12-2019 04:52:17 5.3 C 38 %
2623 24-12-2019 05:02:18 5.4 C 35 %
2624 24-12-2019 05:12:18 5.2 C 35 %
2625 24-12-2019 05:22:17 4.7 C 37 %
Sensor: Nr:Datum:Temp:Feuchte:
Aussen-T/F 2626 24-12-2019 05:32:18 5 C 37 %
2627 24-12-2019 05:42:18 4.6 C 36 %
2628 24-12-2019 05:52:17 4.9 C 37 %
2629 24-12-2019 06:02:18 4.3 C 36 %
2630 24-12-2019 06:12:18 4.6 C 39 %
2631 24-12-2019 06:22:17 4.6 C 38 %
2632 24-12-2019 06:32:17 4.6 C 39 %
2633 24-12-2019 06:42:17 4.5 C 38 %
2634 24-12-2019 06:52:17 4.5 C 39 %
2635 24-12-2019 07:02:17 4.8 C 37 %
2636 24-12-2019 07:12:17 5 C 36 %
2637 24-12-2019 07:22:17 5.4 C 34 %
2638 24-12-2019 07:32:17 5.6 C 33 %
2639 24-12-2019 07:42:17 5.6 C 32 %
2640 24-12-2019 07:52:17 5.8 C 32 %
2641 24-12-2019 08:02:17 5.8 C 31 %
2642 24-12-2019 08:12:17 6 C 30 %
2643 24-12-2019 08:22:17 6.2 C 29 %
2644 24-12-2019 08:32:17 6.2 C 30 %
2645 24-12-2019 08:42:17 6.3 C 30 %
2646 24-12-2019 08:52:18 6.4 C 30 %
2647 24-12-2019 09:02:17 6.5 C 29 %
2648 24-12-2019 09:12:17 6.8 C 29 %
2649 24-12-2019 09:22:17 6.8 C 28 %
2650 24-12-2019 09:32:17 6.8 C 29 %
Sensor: Nr:Datum:Temp:Feuchte:
Aussen-T/F 2651 24-12-2019 09:42:17 6.8 C 28 %
2652 24-12-2019 09:52:17 6.5 C 30 %
2653 24-12-2019 10:02:17 6.4 C 30 %
2654 24-12-2019 10:12:17 6.2 C 31 %
2655 24-12-2019 10:22:17 6.2 C 33 %
2656 24-12-2019 10:32:17 6.3 C 37 %
2657 24-12-2019 10:42:17 6.8 C 37 %
2658 24-12-2019 10:52:17 6.7 C 33 %
2659 24-12-2019 11:02:17 6.8 C 35 %
2660 24-12-2019 11:12:17 6.9 C 34 %
2661 24-12-2019 11:22:17 7.5 C 32 %
2662 24-12-2019 11:32:17 8 C 30 %
2663 24-12-2019 11:42:17 8.2 C 29 %
2664 24-12-2019 11:52:18 8 C 29 %
2665 24-12-2019 12:02:17 7.8 C 30 %
2666 24-12-2019 12:12:17 7.6 C 30 %
2667 24-12-2019 12:22:17 8 C 28 %
2668 24-12-2019 12:32:17 8.2 C 27 %
2669 24-12-2019 12:42:17 8.4 C 27 %
2670 24-12-2019 12:52:18 8.9 C 27 %
2671 24-12-2019 13:02:17 9.2 C 25 %
2672 24-12-2019 13:12:17 9.3 C 25 %
2673 24-12-2019 13:22:17 9.3 C 25 %
2674 24-12-2019 13:32:17 9.2 C 26 %
2675 24-12-2019 13:42:17 9.3 C 26 %
Sensor: Nr:Datum:Temp:Feuchte:
Aussen-T/F 2676 24-12-2019 13:52:17 9.3 C 26 %
2677 24-12-2019 14:02:18 9.4 C 25 %
2678 24-12-2019 14:12:18 9.5 C 25 %
2679 24-12-2019 14:22:17 9.6 C 25 %
2680 24-12-2019 14:32:18 9.7 C 25 %
2681 24-12-2019 14:42:18 9.3 C 26 %
2682 24-12-2019 14:52:17 9.2 C 27 %
2683 24-12-2019 15:02:18 9.1 C 27 %
2684 24-12-2019 15:12:18 9.5 C 26 %
2685 24-12-2019 15:22:17 9.8 C 25 %
2686 24-12-2019 15:32:17 10 C 22 %
2687 24-12-2019 15:42:17 10.1 C 20 %
2688 24-12-2019 15:52:17 10.5 C 20 %
2689 24-12-2019 16:02:17 10.1 C 20 %
2690 24-12-2019 16:12:17 10 C 20 %
2691 24-12-2019 16:22:17 10.2 C 20 %
2692 24-12-2019 16:32:17 9.8 C 20 %
2693 24-12-2019 16:42:17 9.7 C 21 %
2694 24-12-2019 16:52:17 10.1 C 20 %
2695 24-12-2019 17:02:17 9.8 C 20 %
2696 24-12-2019 17:12:17 9.4 C 20 %
2697 24-12-2019 17:22:18 9.6 C 20 %
2698 24-12-2019 17:32:17 8.8 C 20 %
2699 24-12-2019 17:42:17 9.1 C 20 %
2700 24-12-2019 17:52:17 9.3 C 20 %
Sensor: Nr:Datum:Temp:Feuchte:
Aussen-T/F 2701 24-12-2019 18:02:17 9 C 20 %
2702 24-12-2019 18:12:17 8.5 C 26 %
2703 24-12-2019 18:22:17 8.9 C 25 %
2704 24-12-2019 18:32:17 8.2 C 28 %
2705 24-12-2019 18:42:17 7.8 C 31 %
2706 24-12-2019 18:52:17 7.5 C 35 %
2707 24-12-2019 19:02:17 7.6 C 31 %
2708 24-12-2019 19:12:17 7.3 C 31 %
2709 24-12-2019 19:22:17 6.7 C 35 %
2710 24-12-2019 19:32:17 6.5 C 40 %
2711 24-12-2019 19:42:17 6.5 C 36 %
2712 24-12-2019 19:52:17 6.2 C 36 %
2713 24-12-2019 20:02:17 6.7 C 35 %
2714 24-12-2019 20:12:17 7.3 C 30 %
2715 24-12-2019 20:22:17 7.2 C 32 %
2716 24-12-2019 20:32:18 7.1 C 30 %
2717 24-12-2019 20:42:18 7.3 C 31 %
2718 24-12-2019 20:52:17 7.3 C 30 %
2719 24-12-2019 21:02:17 7.1 C 31 %
2720 24-12-2019 21:12:17 7.7 C 30 %
2721 24-12-2019 21:22:17 7.4 C 30 %
2722 24-12-2019 21:32:17 7.6 C 30 %
2723 24-12-2019 21:42:17 7.9 C 29 %
2724 24-12-2019 21:52:17 8.1 C 28 %
2725 24-12-2019 22:02:17 8.6 C 26 %
Sensor: Nr:Datum:Temp:Feuchte:
Aussen-T/F 2726 24-12-2019 22:12:17 8.5 C 26 %
2727 24-12-2019 22:22:17 8.3 C 26 %
2728 24-12-2019 22:32:17 8.4 C 26 %
2729 24-12-2019 22:42:17 8.2 C 27 %
2730 24-12-2019 22:52:17 8 C 28 %
2731 24-12-2019 23:02:17 8.4 C 27 %
2732 24-12-2019 23:12:17 8.4 C 27 %
2733 24-12-2019 23:22:17 8.4 C 27 %
2734 24-12-2019 23:32:17 8.5 C 27 %
2735 24-12-2019 23:42:17 8.5 C 27 %
2736 24-12-2019 23:52:17 8.4 C 27 %
2737 25-12-2019 00:02:17 8.4 C 27 %
2738 25-12-2019 00:12:17 8.4 C 27 %
2739 25-12-2019 00:22:17 8.4 C 28 %
2740 25-12-2019 00:32:17 8.3 C 28 %
2741 25-12-2019 00:42:18 8.2 C 29 %
2742 25-12-2019 00:52:17 8.2 C 29 %
2743 25-12-2019 01:02:17 7.8 C 32 %
2744 25-12-2019 01:12:17 7.7 C 33 %
2745 25-12-2019 01:22:17 7.5 C 35 %
2746 25-12-2019 01:32:18 7.3 C 35 %
2747 25-12-2019 01:42:18 7.5 C 35 %
2748 25-12-2019 01:52:17 7.6 C 33 %
2749 25-12-2019 02:02:17 7.7 C 32 %
2750 25-12-2019 02:12:17 8 C 31 %
Sensor: Nr:Datum:Temp:Feuchte:
Aussen-T/F 2751 25-12-2019 02:22:17 7.9 C 31 %
2752 25-12-2019 02:32:18 7.9 C 31 %
2753 25-12-2019 02:42:18 7.9 C 31 %
2754 25-12-2019 02:52:17 7.9 C 31 %
2755 25-12-2019 03:02:17 7.8 C 31 %
2756 25-12-2019 03:12:17 7.9 C 32 %
2757 25-12-2019 03:22:17 8.1 C 31 %
2758 25-12-2019 03:32:17 8.3 C 30 %
2759 25-12-2019 03:42:17 8.2 C 30 %
2760 25-12-2019 03:52:18 8.2 C 30 %
2761 25-12-2019 04:02:17 7.9 C 34 %
2762 25-12-2019 04:12:17 8 C 34 %
2763 25-12-2019 04:22:18 7.9 C 35 %
2764 25-12-2019 04:32:17 7.9 C 36 %
2765 25-12-2019 04:42:17 7.9 C 38 %
2766 25-12-2019 04:52:17 7.9 C 36 %
2767 25-12-2019 05:02:17 7.9 C 37 %
2768 25-12-2019 05:12:17 7.8 C 37 %
2769 25-12-2019 05:22:18 7.6 C 38 %
2770 25-12-2019 05:32:17 8 C 36 %
2771 25-12-2019 05:42:17 7.9 C 35 %
2772 25-12-2019 05:52:17 7.5 C 35 %
2773 25-12-2019 06:02:18 7.5 C 35 %
2774 25-12-2019 06:12:18 7.2 C 36 %
2775 25-12-2019 06:22:17 7.2 C 37 %
Sensor: Nr:Datum:Temp:Feuchte:
Aussen-T/F 2776 25-12-2019 06:32:18 7.3 C 37 %
2777 25-12-2019 06:42:18 7.3 C 36 %
2778 25-12-2019 06:52:17 7.1 C 39 %
2779 25-12-2019 07:02:18 7.3 C 33 %
2780 25-12-2019 07:12:18 7.1 C 32 %
2781 25-12-2019 07:22:17 6.9 C 35 %
2782 25-12-2019 07:32:18 6.8 C 38 %
2783 25-12-2019 07:42:18 6.9 C 38 %
2784 25-12-2019 07:52:17 7 C 35 %
2785 25-12-2019 08:02:18 6.8 C 32 %
2786 25-12-2019 08:12:18 6.4 C 32 %
2787 25-12-2019 08:22:17 6.2 C 33 %
2788 25-12-2019 08:32:17 6.2 C 32 %
2789 25-12-2019 08:42:17 6.5 C 32 %
2790 25-12-2019 08:52:17 6.7 C 31 %
2791 25-12-2019 09:02:17 6.9 C 30 %
2792 25-12-2019 09:12:17 6.9 C 30 %
2793 25-12-2019 09:22:18 6.8 C 30 %
2794 25-12-2019 09:32:17 7.3 C 28 %
2795 25-12-2019 09:42:17 7.3 C 27 %
2796 25-12-2019 09:52:17 7.3 C 27 %
2797 25-12-2019 10:02:17 7.1 C 29 %
2798 25-12-2019 10:12:17 7.3 C 27 %
2799 25-12-2019 10:22:18 7.6 C 26 %
2800 25-12-2019 10:32:17 7.7 C 26 %
Sensor: Nr:Datum:Temp:Feuchte:
Aussen-T/F 2801 25-12-2019 10:42:17 7.8 C 25 %
2802 25-12-2019 10:52:17 7.5 C 26 %
2803 25-12-2019 11:02:17 7.5 C 26 %
2804 25-12-2019 11:12:17 7.5 C 26 %
2805 25-12-2019 11:22:17 7.7 C 26 %
2806 25-12-2019 11:32:17 7.4 C 26 %
2807 25-12-2019 11:42:17 7.4 C 27 %
2808 25-12-2019 11:52:18 7.1 C 28 %
2809 25-12-2019 12:02:17 7.1 C 29 %
2810 25-12-2019 12:12:17 7.6 C 27 %
2811 25-12-2019 12:22:17 7.6 C 27 %
2812 25-12-2019 12:32:17 7.7 C 27 %
2813 25-12-2019 12:42:17 7.8 C 27 %
2814 25-12-2019 12:52:18 7.6 C 27 %
2815 25-12-2019 13:02:17 7.1 C 29 %
2816 25-12-2019 13:12:17 7 C 31 %
2817 25-12-2019 13:22:18 6.9 C 31 %
2818 25-12-2019 13:32:17 7.1 C 30 %
2819 25-12-2019 13:42:17 7 C 30 %
2820 25-12-2019 13:52:17 6.9 C 30 %
2821 25-12-2019 14:02:17 7.1 C 30 %
2822 25-12-2019 14:12:17 7.4 C 29 %
2823 25-12-2019 14:22:18 7.6 C 28 %
2824 25-12-2019 14:32:17 7.7 C 29 %
2825 25-12-2019 14:42:17 7.6 C 29 %
Sensor: Nr:Datum:Temp:Feuchte:
Aussen-T/F 2826 25-12-2019 14:52:17 7.1 C 31 %
2827 25-12-2019 15:02:17 7.1 C 32 %
2828 25-12-2019 15:12:17 7.1 C 30 %
2829 25-12-2019 15:22:18 7.1 C 31 %
2830 25-12-2019 15:32:17 7.4 C 30 %
2831 25-12-2019 15:42:17 7.3 C 31 %
2832 25-12-2019 15:52:17 7.2 C 30 %
2833 25-12-2019 16:02:17 7.2 C 30 %
2834 25-12-2019 16:12:17 6.9 C 31 %
2835 25-12-2019 16:22:17 6.8 C 32 %
2836 25-12-2019 16:32:17 6.7 C 35 %
2837 25-12-2019 16:42:17 6.9 C 32 %
2838 25-12-2019 16:52:17 6.9 C 31 %
2839 25-12-2019 17:02:17 6.8 C 30 %
2840 25-12-2019 17:12:17 6.7 C 30 %
2841 25-12-2019 17:22:18 6.6 C 31 %
2842 25-12-2019 17:32:17 6.2 C 31 %
2843 25-12-2019 17:42:17 5.7 C 35 %
2844 25-12-2019 17:52:18 5.9 C 35 %
2845 25-12-2019 18:02:17 6 C 33 %
2846 25-12-2019 18:12:17 6.1 C 32 %
2847 25-12-2019 18:22:17 6.2 C 33 %
2848 25-12-2019 18:32:17 6.2 C 33 %
2849 25-12-2019 18:42:17 6.2 C 32 %
2850 25-12-2019 18:52:17 6.2 C 32 %
Sensor: Nr:Datum:Temp:Feuchte:
Aussen-T/F 2851 25-12-2019 19:02:17 6 C 33 %
2852 25-12-2019 19:12:17 5.9 C 33 %
2853 25-12-2019 19:22:17 6.1 C 32 %
2854 25-12-2019 19:32:18 6.1 C 32 %
2855 25-12-2019 19:42:18 6 C 33 %
2856 25-12-2019 19:52:17 5.9 C 33 %
2857 25-12-2019 20:02:17 5.8 C 35 %
2858 25-12-2019 20:12:17 5.9 C 35 %
2859 25-12-2019 20:22:18 5.9 C 34 %
2860 25-12-2019 20:32:17 5.8 C 34 %
2861 25-12-2019 20:42:17 5.6 C 37 %
2862 25-12-2019 20:52:17 5.5 C 38 %
2863 25-12-2019 21:02:18 5.5 C 38 %
2864 25-12-2019 21:12:18 5.4 C 40 %
2865 25-12-2019 21:22:17 5.3 C 41 %
2866 25-12-2019 21:32:17 5.3 C 43 %
2867 25-12-2019 21:42:17 5.3 C 42 %
2868 25-12-2019 21:52:17 5.2 C 42 %
2869 25-12-2019 22:02:18 5.2 C 42 %
2870 25-12-2019 22:12:18 5.1 C 43 %
2871 25-12-2019 22:22:17 5.2 C 42 %
2872 25-12-2019 22:32:18 5.1 C 41 %
2873 25-12-2019 22:42:18 5.1 C 42 %
2874 25-12-2019 22:52:17 5.2 C 42 %
2875 25-12-2019 23:02:18 5.2 C 42 %
Sensor: Nr:Datum:Temp:Feuchte:
Aussen-T/F 2876 25-12-2019 23:12:18 5.2 C 42 %
2877 25-12-2019 23:22:17 5.2 C 42 %
2878 25-12-2019 23:32:17 5.1 C 42 %
2879 25-12-2019 23:42:17 4.7 C 42 %
2880 25-12-2019 23:52:17 4.5 C 42 %
2881 26-12-2019 00:02:17 4.6 C 43 %
2882 26-12-2019 00:12:18 4 C 42 %
2883 26-12-2019 00:22:17 3.6 C 42 %
2884 26-12-2019 00:32:18 3.9 C 44 %
2885 26-12-2019 00:42:18 3.9 C 44 %
2886 26-12-2019 00:52:17 4.1 C 43 %
2887 26-12-2019 01:02:18 4.4 C 43 %
2888 26-12-2019 01:12:18 4.3 C 43 %
2889 26-12-2019 01:22:17 4.3 C 43 %
2890 26-12-2019 01:32:17 4.4 C 43 %
2891 26-12-2019 01:42:17 4.4 C 43 %
2892 26-12-2019 01:52:17 4.3 C 42 %
2893 26-12-2019 02:02:18 4.3 C 42 %
2894 26-12-2019 02:12:18 4.4 C 42 %
2895 26-12-2019 02:22:17 4.2 C 42 %
2896 26-12-2019 02:32:17 4 C 42 %
2897 26-12-2019 02:42:17 4 C 42 %
2898 26-12-2019 02:52:17 4.2 C 42 %
2899 26-12-2019 03:02:18 4.2 C 42 %
2900 26-12-2019 03:12:18 4.1 C 42 %
Sensor: Nr:Datum:Temp:Feuchte:
Aussen-T/F 2901 26-12-2019 03:22:17 4.1 C 42 %
2902 26-12-2019 03:32:17 4.1 C 42 %
2903 26-12-2019 03:42:17 4.1 C 42 %
2904 26-12-2019 03:52:17 3.9 C 43 %
2905 26-12-2019 04:02:17 3.6 C 42 %
2906 26-12-2019 04:12:17 3.6 C 42 %
2907 26-12-2019 04:22:18 3.4 C 42 %
2908 26-12-2019 04:32:17 3 C 42 %
2909 26-12-2019 04:42:17 3.1 C 42 %
2910 26-12-2019 04:52:17 3.1 C 43 %
2911 26-12-2019 05:02:17 3.3 C 43 %
2912 26-12-2019 05:12:17 3.5 C 43 %
2913 26-12-2019 05:22:17 3.4 C 43 %
2914 26-12-2019 05:32:18 3.5 C 43 %
2915 26-12-2019 05:42:18 3.4 C 43 %
2916 26-12-2019 05:52:17 3.5 C 43 %
2917 26-12-2019 06:02:17 3.6 C 43 %
2918 26-12-2019 06:12:18 3.6 C 43 %
2919 26-12-2019 06:22:17 3.5 C 43 %
2920 26-12-2019 06:32:18 3.6 C 43 %
2921 26-12-2019 06:42:18 3.5 C 43 %
2922 26-12-2019 06:52:17 3.5 C 43 %
2923 26-12-2019 07:02:18 3.5 C 43 %
2924 26-12-2019 07:12:18 3.5 C 43 %
2925 26-12-2019 07:22:17 3.4 C 43 %
Sensor: Nr:Datum:Temp:Feuchte:
Aussen-T/F 2926 26-12-2019 07:32:17 3.4 C 43 %
2927 26-12-2019 07:42:17 3.4 C 43 %
2928 26-12-2019 07:52:17 3.4 C 43 %
2929 26-12-2019 08:02:18 3.4 C 43 %
2930 26-12-2019 08:12:18 3.4 C 43 %
2931 26-12-2019 08:22:17 3.5 C 43 %
2932 26-12-2019 08:32:17 3.4 C 43 %
2933 26-12-2019 08:42:17 3.4 C 43 %
2934 26-12-2019 08:52:17 3.5 C 43 %
2935 26-12-2019 09:02:17 3.5 C 43 %
2936 26-12-2019 09:12:17 3.5 C 43 %
2937 26-12-2019 09:22:17 3.4 C 42 %
2938 26-12-2019 09:32:17 3.5 C 43 %
2939 26-12-2019 09:42:17 3.6 C 42 %
2940 26-12-2019 09:52:18 3.6 C 42 %
2941 26-12-2019 10:02:17 3.6 C 42 %
2942 26-12-2019 10:12:17 3.6 C 42 %
2943 26-12-2019 10:22:18 3.8 C 42 %
2944 26-12-2019 10:32:17 4 C 41 %
2945 26-12-2019 10:42:17 4.3 C 41 %
2946 26-12-2019 10:52:18 4.5 C 41 %
2947 26-12-2019 11:02:17 4.7 C 41 %
2948 26-12-2019 11:12:17 4.8 C 41 %
2949 26-12-2019 11:22:17 5 C 40 %
2950 26-12-2019 11:32:17 5.4 C 40 %
Sensor: Nr:Datum:Temp:Feuchte:
Aussen-T/F 2951 26-12-2019 11:42:17 5.5 C 39 %
2952 26-12-2019 11:52:17 5.6 C 37 %
2953 26-12-2019 12:02:17 5.7 C 36 %
2954 26-12-2019 12:12:17 5.7 C 36 %
2955 26-12-2019 12:22:17 5.7 C 35 %
2956 26-12-2019 12:32:18 5.9 C 35 %
2957 26-12-2019 12:42:18 6 C 35 %
2958 26-12-2019 12:52:17 6 C 36 %
2959 26-12-2019 13:02:18 5.9 C 36 %
2960 26-12-2019 13:12:18 5.9 C 37 %
2961 26-12-2019 13:22:17 5.8 C 36 %
2962 26-12-2019 13:32:18 5.8 C 36 %
2963 26-12-2019 13:42:18 5.7 C 36 %
2964 26-12-2019 13:52:17 5.7 C 36 %
2965 26-12-2019 14:02:18 5.7 C 36 %
2966 26-12-2019 14:12:18 5.8 C 35 %
2967 26-12-2019 14:22:17 6 C 35 %
2968 26-12-2019 14:32:17 6 C 35 %
2969 26-12-2019 14:42:17 5.7 C 35 %
2970 26-12-2019 14:52:17 5.6 C 36 %
2971 26-12-2019 15:02:17 5.5 C 36 %
2972 26-12-2019 15:12:17 5.4 C 36 %
2973 26-12-2019 15:22:17 5.1 C 38 %
2974 26-12-2019 15:32:17 5 C 37 %
2975 26-12-2019 15:42:17 4.8 C 39 %
Sensor: Nr:Datum:Temp:Feuchte:
Aussen-T/F 2976 26-12-2019 15:52:18 4.8 C 39 %
2977 26-12-2019 16:02:17 4.7 C 38 %
2978 26-12-2019 16:12:17 4.6 C 39 %
2979 26-12-2019 16:22:17 4.5 C 40 %
2980 26-12-2019 16:32:17 4.4 C 41 %
2981 26-12-2019 16:42:18 4.4 C 40 %
2982 26-12-2019 16:53:17 4.3 C 41 %
2983 26-12-2019 17:02:17 4.4 C 40 %
2984 26-12-2019 17:12:17 4.3 C 40 %
2985 26-12-2019 17:22:17 4.3 C 40 %
2986 26-12-2019 17:32:17 4.4 C 40 %
2987 26-12-2019 17:42:17 4.1 C 40 %
2988 26-12-2019 17:52:17 4.1 C 40 %
2989 26-12-2019 18:02:17 4 C 40 %
2990 26-12-2019 18:12:17 4 C 41 %
2991 26-12-2019 18:22:17 4.1 C 41 %
2992 26-12-2019 18:32:17 4.1 C 41 %
2993 26-12-2019 18:42:18 4.1 C 40 %
2994 26-12-2019 18:53:17 4.1 C 40 %
2995 26-12-2019 19:02:17 4 C 40 %
2996 26-12-2019 19:12:17 4 C 41 %
2997 26-12-2019 19:23:17 4 C 41 %
2998 26-12-2019 19:32:17 3.8 C 41 %
2999 26-12-2019 19:42:17 4 C 41 %
3000 26-12-2019 19:53:17 3.8 C 41 %
Sensor: Nr:Datum:Temp:Feuchte:
Aussen-T/F 3001 26-12-2019 20:02:17 3.8 C 42 %
3002 26-12-2019 20:12:17 3.9 C 42 %
3003 26-12-2019 20:23:17 4 C 41 %
3004 26-12-2019 20:32:17 4.1 C 40 %
3005 26-12-2019 20:42:17 4.2 C 39 %
3006 26-12-2019 20:53:17 4.1 C 38 %
3007 26-12-2019 21:02:17 4.3 C 37 %
3008 26-12-2019 21:12:17 4.2 C 38 %
3009 26-12-2019 21:23:17 4.1 C 38 %
3010 26-12-2019 21:32:18 4.1 C 38 %
3011 26-12-2019 21:42:18 4.2 C 37 %
3012 26-12-2019 21:52:17 4.3 C 37 %
3013 26-12-2019 22:02:18 4.1 C 39 %
3014 26-12-2019 22:12:18 4.1 C 41 %
3015 26-12-2019 22:22:17 4.1 C 41 %
3016 26-12-2019 22:33:17 4.1 C 41 %
3017 26-12-2019 22:43:17 4.1 C 42 %
3018 26-12-2019 22:52:17 4.1 C 42 %
3019 26-12-2019 23:03:17 4.1 C 43 %
3020 26-12-2019 23:13:17 4.1 C 43 %
3021 26-12-2019 23:23:17 4 C 43 %
3022 26-12-2019 23:32:17 4 C 43 %
3023 26-12-2019 23:42:17 4 C 42 %
3024 26-12-2019 23:53:17 4 C 42 %
3025 27-12-2019 00:02:17 4 C 42 %
Sensor: Nr:Datum:Temp:Feuchte:
Aussen-T/F 3026 27-12-2019 00:12:17 4 C 42 %
3027 27-12-2019 00:23:17 4 C 42 %
3028 27-12-2019 00:32:17 4 C 42 %
3029 27-12-2019 00:42:18 4.1 C 42 %
3030 27-12-2019 00:53:17 4.1 C 42 %
3031 27-12-2019 01:03:18 4.1 C 42 %
3032 27-12-2019 01:13:18 4.1 C 42 %
3033 27-12-2019 01:23:17 4.1 C 42 %
3034 27-12-2019 01:33:17 4.1 C 42 %
3035 27-12-2019 01:43:17 4.1 C 42 %
3036 27-12-2019 01:53:18 4.1 C 42 %
3037 27-12-2019 02:03:17 4.1 C 42 %
3038 27-12-2019 02:13:17 4.1 C 42 %
3039 27-12-2019 02:23:17 4.1 C 42 %
3040 27-12-2019 02:33:18 4.1 C 42 %
3041 27-12-2019 02:43:19 4.1 C 42 %
3042 27-12-2019 02:53:17 4.2 C 42 %
3043 27-12-2019 03:03:17 4.3 C 42 %
3044 27-12-2019 03:13:17 4.2 C 42 %
3045 27-12-2019 03:23:17 4.3 C 42 %
3046 27-12-2019 03:33:17 4.3 C 42 %
3047 27-12-2019 03:43:18 4.3 C 42 %
3048 27-12-2019 03:53:17 4.3 C 42 %
3049 27-12-2019 04:03:17 4.3 C 42 %
3050 27-12-2019 04:13:17 4.3 C 42 %
Sensor: Nr:Datum:Temp:Feuchte:
Aussen-T/F 3051 27-12-2019 04:23:17 4.3 C 42 %
3052 27-12-2019 04:33:17 4.3 C 42 %
3053 27-12-2019 04:43:17 4.3 C 42 %
3054 27-12-2019 04:53:18 4.4 C 42 %
3055 27-12-2019 05:03:17 4.4 C 42 %
3056 27-12-2019 05:13:17 4.4 C 42 %
3057 27-12-2019 05:23:17 4.4 C 42 %
3058 27-12-2019 05:33:17 4.3 C 42 %
3059 27-12-2019 05:43:17 4.4 C 42 %
3060 27-12-2019 05:53:17 4.4 C 42 %
3061 27-12-2019 06:03:17 4.4 C 42 %
3062 27-12-2019 06:13:17 4.4 C 42 %
3063 27-12-2019 06:23:17 4.4 C 42 %
3064 27-12-2019 06:33:17 4.4 C 42 %
3065 27-12-2019 06:43:17 4.4 C 42 %
3066 27-12-2019 06:53:17 4.4 C 42 %
3067 27-12-2019 07:03:17 4.5 C 42 %
3068 27-12-2019 07:13:17 4.4 C 42 %
3069 27-12-2019 07:23:18 4.4 C 42 %
3070 27-12-2019 07:33:17 4.4 C 42 %
3071 27-12-2019 07:43:17 4.4 C 42 %
3072 27-12-2019 07:53:17 4.3 C 42 %
3073 27-12-2019 08:03:17 4.3 C 42 %
3074 27-12-2019 08:13:17 4.3 C 42 %
3075 27-12-2019 08:23:17 4.3 C 42 %
Sensor: Nr:Datum:Temp:Feuchte:
Aussen-T/F 3076 27-12-2019 08:33:17 4.3 C 42 %
3077 27-12-2019 08:43:17 4.3 C 42 %
3078 27-12-2019 08:53:18 4.3 C 42 %
3079 27-12-2019 09:03:17 4.4 C 42 %
3080 27-12-2019 09:13:17 4.4 C 42 %
3081 27-12-2019 09:23:17 4.3 C 42 %
3082 27-12-2019 09:33:17 4.5 C 42 %
3083 27-12-2019 09:43:17 4.6 C 42 %
3084 27-12-2019 09:53:17 4.8 C 41 %
3085 27-12-2019 10:03:17 4.9 C 41 %
3086 27-12-2019 10:13:17 4.8 C 40 %
3087 27-12-2019 10:23:17 4.8 C 40 %
3088 27-12-2019 10:33:18 4.9 C 40 %
3089 27-12-2019 10:43:18 4.9 C 40 %
3090 27-12-2019 10:53:17 5 C 38 %
3091 27-12-2019 11:03:18 5 C 38 %
3092 27-12-2019 11:13:18 5.1 C 37 %
3093 27-12-2019 11:23:17 5.1 C 37 %
3094 27-12-2019 11:33:17 5.2 C 36 %
3095 27-12-2019 11:43:17 5.7 C 33 %
3096 27-12-2019 11:53:17 6 C 31 %
3097 27-12-2019 12:03:17 6.1 C 31 %
3098 27-12-2019 12:13:17 5.9 C 31 %
3099 27-12-2019 12:23:17 5.9 C 31 %
3100 27-12-2019 12:33:17 6 C 31 %
Sensor: Nr:Datum:Temp:Feuchte:
Aussen-T/F 3101 27-12-2019 12:43:17 6 C 31 %
3102 27-12-2019 12:53:17 5.9 C 31 %
3103 27-12-2019 13:03:17 5.7 C 31 %
3104 27-12-2019 13:13:17 5.7 C 31 %
3105 27-12-2019 13:23:17 5.6 C 31 %
3106 27-12-2019 13:33:17 5.7 C 31 %
3107 27-12-2019 13:43:17 5.7 C 30 %
3108 27-12-2019 13:53:17 5.8 C 30 %
3109 27-12-2019 14:03:18 5.9 C 30 %
3110 27-12-2019 14:13:18 6.1 C 29 %
3111 27-12-2019 14:23:18 5.9 C 29 %
3112 27-12-2019 14:33:17 6 C 30 %
3113 27-12-2019 14:43:17 5.9 C 28 %
3114 27-12-2019 14:53:18 5.8 C 26 %
3115 27-12-2019 15:03:17 5.7 C 27 %
3116 27-12-2019 15:13:17 5.7 C 28 %
3117 27-12-2019 15:23:18 5.6 C 29 %
3118 27-12-2019 15:33:17 5.6 C 29 %
3119 27-12-2019 15:43:17 5.4 C 30 %
3120 27-12-2019 15:53:17 5.3 C 31 %
3121 27-12-2019 16:03:17 5.1 C 33 %
3122 27-12-2019 16:13:17 4.9 C 33 %
3123 27-12-2019 16:23:17 4.9 C 33 %
3124 27-12-2019 16:33:17 4.8 C 34 %
3125 27-12-2019 16:43:17 4.7 C 33 %
Sensor: Nr:Datum:Temp:Feuchte:
Aussen-T/F 3126 27-12-2019 16:53:17 4.6 C 34 %
3127 27-12-2019 17:03:17 4.5 C 34 %
3128 27-12-2019 17:13:17 4.5 C 35 %
3129 27-12-2019 17:23:17 4.5 C 33 %
3130 27-12-2019 17:33:18 4.5 C 34 %
3131 27-12-2019 17:43:18 4.5 C 34 %
3132 27-12-2019 17:53:17 4.4 C 34 %
3133 27-12-2019 18:03:18 4.4 C 33 %
3134 27-12-2019 18:13:18 4.4 C 33 %
3135 27-12-2019 18:23:17 4.4 C 32 %
3136 27-12-2019 18:33:18 4.4 C 34 %
3137 27-12-2019 18:43:18 4.3 C 34 %
3138 27-12-2019 18:53:17 4.2 C 33 %
3139 27-12-2019 19:03:17 4.2 C 33 %
3140 27-12-2019 19:13:17 4.2 C 33 %
3141 27-12-2019 19:23:17 4.3 C 32 %
3142 27-12-2019 19:33:17 4.2 C 33 %
3143 27-12-2019 19:43:17 4.1 C 34 %
3144 27-12-2019 19:53:18 3.9 C 35 %
3145 27-12-2019 20:03:17 3.8 C 34 %
3146 27-12-2019 20:13:17 4 C 32 %
3147 27-12-2019 20:23:17 4 C 32 %
3148 27-12-2019 20:33:18 4 C 32 %
3149 27-12-2019 20:43:18 4 C 31 %
3150 27-12-2019 20:53:17 4.1 C 31 %
Sensor: Nr:Datum:Temp:Feuchte:
Aussen-T/F 3151 27-12-2019 21:03:18 4.1 C 31 %
3152 27-12-2019 21:13:18 4 C 31 %
3153 27-12-2019 21:23:17 4 C 31 %
3154 27-12-2019 21:33:18 3.9 C 33 %
3155 27-12-2019 21:43:18 3.9 C 32 %
3156 27-12-2019 21:53:17 3.7 C 32 %
3157 27-12-2019 22:03:17 3.6 C 32 %
3158 27-12-2019 22:13:17 3.3 C 32 %
3159 27-12-2019 22:23:17 3.2 C 32 %
3160 27-12-2019 22:33:17 2.7 C 33 %
3161 27-12-2019 22:43:17 2.2 C 34 %
3162 27-12-2019 22:53:17 2 C 35 %
3163 27-12-2019 23:03:18 1.7 C 38 %
3164 27-12-2019 23:13:18 1.3 C 39 %
3165 27-12-2019 23:23:17 1.2 C 41 %
3166 27-12-2019 23:33:17 0.9 C 42 %
3167 27-12-2019 23:43:17 0.8 C 41 %
3168 27-12-2019 23:53:17 0.7 C 41 %
3169 28-12-2019 00:03:17 0.5 C 40 %
3170 28-12-2019 00:13:17 0.4 C 41 %
3171 28-12-2019 00:23:18 0.4 C 41 %
3172 28-12-2019 00:33:17 0.3 C 41 %
3173 28-12-2019 00:43:17 0.3 C 41 %
3174 28-12-2019 00:53:17 0.2 C 40 %
3175 28-12-2019 01:03:17 0.1 C 40 %
Sensor: Nr:Datum:Temp:Feuchte:
Aussen-T/F 3176 28-12-2019 01:13:17 -0.2 C 43 %
3177 28-12-2019 01:23:17 -0.5 C 43 %
3178 28-12-2019 01:33:17 -0.3 C 44 %
3179 28-12-2019 01:43:17 -0.7 C 42 %
3180 28-12-2019 01:53:17 -1.1 C 43 %
3181 28-12-2019 02:03:17 -1.3 C 45 %
3182 28-12-2019 02:13:17 -1.5 C 44 %
3183 28-12-2019 02:23:17 -1.7 C 44 %
3184 28-12-2019 02:33:18 -1.5 C 45 %
3185 28-12-2019 02:43:18 -1.5 C 45 %
3186 28-12-2019 02:53:17 -1.6 C 45 %
3187 28-12-2019 03:03:17 -1.9 C 45 %
3188 28-12-2019 03:13:18 -1.7 C 45 %
3189 28-12-2019 03:23:17 -2.1 C 45 %
3190 28-12-2019 03:33:17 -2.1 C 45 %
3191 28-12-2019 03:43:17 -2.1 C 45 %
3192 28-12-2019 03:53:18 -2.4 C 45 %
3193 28-12-2019 04:03:17 -2.4 C 45 %
3194 28-12-2019 04:13:17 -2.4 C 45 %
3195 28-12-2019 04:23:17 -2.3 C 45 %
3196 28-12-2019 04:33:17 -2.4 C 45 %
3197 28-12-2019 04:43:18 -2.3 C 45 %
3198 28-12-2019 04:53:17 -2.4 C 45 %
3199 28-12-2019 05:03:18 -2.6 C 44 %
3200 28-12-2019 05:13:18 -2.7 C 44 %
Sensor: Nr:Datum:Temp:Feuchte:
Aussen-T/F 3201 28-12-2019 05:23:17 -2.5 C 45 %
3202 28-12-2019 05:33:18 -2.5 C 45 %
3203 28-12-2019 05:43:18 -2.1 C 45 %
3204 28-12-2019 05:53:17 -2.3 C 45 %
3205 28-12-2019 06:03:17 -1.8 C 45 %
3206 28-12-2019 06:13:18 -2.1 C 44 %
3207 28-12-2019 06:23:17 -2.2 C 43 %
3208 28-12-2019 06:33:17 -2 C 44 %
3209 28-12-2019 06:43:18 -1.9 C 44 %
3210 28-12-2019 06:53:17 -2.1 C 43 %
3211 28-12-2019 07:03:18 -2 C 43 %
3212 28-12-2019 07:13:18 -2.3 C 43 %
3213 28-12-2019 07:23:17 -2.8 C 42 %
3214 28-12-2019 07:33:17 -2.3 C 43 %
3215 28-12-2019 07:43:17 -2.4 C 43 %
3216 28-12-2019 07:53:17 -2.2 C 44 %
3217 28-12-2019 08:03:17 -2.6 C 43 %
3218 28-12-2019 08:13:17 -3 C 42 %
3219 28-12-2019 08:23:18 -3.1 C 42 %
3220 28-12-2019 08:33:17 -3.2 C 42 %
3221 28-12-2019 08:43:17 -3.2 C 42 %
3222 28-12-2019 08:53:17 -2.9 C 43 %
3223 28-12-2019 09:03:18 -2.9 C 43 %
3224 28-12-2019 09:13:18 -2.8 C 43 %
3225 28-12-2019 09:23:17 -2.7 C 43 %
Sensor: Nr:Datum:Temp:Feuchte:
Aussen-T/F 3226 28-12-2019 09:33:17 -2.5 C 43 %
3227 28-12-2019 09:43:17 -1.9 C 45 %
3228 28-12-2019 09:53:17 -1.7 C 45 %
3229 28-12-2019 10:03:17 -1.6 C 45 %
3230 28-12-2019 10:13:17 -1.4 C 45 %
3231 28-12-2019 10:23:17 -1.5 C 45 %
3232 28-12-2019 10:33:18 -1.3 C 45 %
3233 28-12-2019 10:43:18 -1.3 C 45 %
3234 28-12-2019 10:53:17 -1.1 C 45 %
3235 28-12-2019 11:03:18 -1 C 44 %
3236 28-12-2019 11:13:18 -0.9 C 44 %
3237 28-12-2019 11:23:17 -0.6 C 44 %
3238 28-12-2019 11:33:17 -0.5 C 43 %
3239 28-12-2019 11:43:18 -0.3 C 42 %
3240 28-12-2019 11:53:17 -0.2 C 42 %
3241 28-12-2019 12:03:17 -0.2 C 41 %
3242 28-12-2019 12:13:17 0 C 41 %
3243 28-12-2019 12:23:17 0.2 C 41 %
3244 28-12-2019 12:33:17 0.3 C 41 %
3245 28-12-2019 12:43:18 0.4 C 40 %
3246 28-12-2019 12:53:17 0.5 C 40 %
3247 28-12-2019 13:03:18 0.7 C 40 %
3248 28-12-2019 13:13:18 0.8 C 40 %
3249 28-12-2019 13:23:17 0.8 C 40 %
3250 28-12-2019 13:33:17 0.9 C 40 %
Sensor: Nr:Datum:Temp:Feuchte:
Aussen-T/F 3251 28-12-2019 13:43:17 0.8 C 40 %
3252 28-12-2019 13:53:17 0.6 C 40 %
3253 28-12-2019 14:03:17 0.6 C 41 %
3254 28-12-2019 14:13:17 0.7 C 41 %
3255 28-12-2019 14:23:17 0.8 C 40 %
3256 28-12-2019 14:33:17 0.7 C 40 %
3257 28-12-2019 14:43:17 0.6 C 40 %
3258 28-12-2019 14:53:17 0.5 C 40 %
3259 28-12-2019 15:03:17 0.5 C 40 %
3260 28-12-2019 15:13:18 0.5 C 40 %
3261 28-12-2019 15:23:17 0.2 C 40 %
3262 28-12-2019 15:33:17 0.4 C 40 %
3263 28-12-2019 15:43:17 0.3 C 39 %
3264 28-12-2019 15:53:18 0.4 C 39 %
3265 28-12-2019 16:03:17 0.3 C 38 %
3266 28-12-2019 16:13:17 0.2 C 38 %
3267 28-12-2019 16:23:17 0 C 39 %
3268 28-12-2019 16:33:17 0 C 39 %
3269 28-12-2019 16:43:17 -0.1 C 38 %
3270 28-12-2019 16:53:17 -0.3 C 39 %
3271 28-12-2019 17:03:17 -0.4 C 39 %
3272 28-12-2019 17:13:17 -0.4 C 40 %
3273 28-12-2019 17:23:17 -0.5 C 40 %
3274 28-12-2019 17:33:18 -0.6 C 40 %
3275 28-12-2019 17:43:18 -0.7 C 41 %
Sensor: Nr:Datum:Temp:Feuchte:
Aussen-T/F 3276 28-12-2019 17:53:17 -1.3 C 41 %
3277 28-12-2019 18:03:17 -1.2 C 44 %
3278 28-12-2019 18:13:17 -1.1 C 43 %
3279 28-12-2019 18:23:17 -1.1 C 43 %
3280 28-12-2019 18:33:17 -0.9 C 43 %
3281 28-12-2019 18:43:17 -1.2 C 43 %
3282 28-12-2019 18:53:17 -0.9 C 43 %
3283 28-12-2019 19:03:17 -1.2 C 42 %
3284 28-12-2019 19:13:18 -1.7 C 42 %
3285 28-12-2019 19:23:17 -1.9 C 43 %
3286 28-12-2019 19:33:18 -1.9 C 44 %
3287 28-12-2019 19:43:18 -1.9 C 44 %
3288 28-12-2019 19:53:17 -1.8 C 44 %
3289 28-12-2019 20:03:17 -1.9 C 44 %
3290 28-12-2019 20:13:17 -1.7 C 45 %
3291 28-12-2019 20:23:17 -1.2 C 45 %
3292 28-12-2019 20:33:18 -1.2 C 43 %
3293 28-12-2019 20:43:18 -1.4 C 43 %
3294 28-12-2019 20:53:18 -1.2 C 44 %
3295 28-12-2019 21:03:17 -1.6 C 43 %
3296 28-12-2019 21:13:17 -1.3 C 44 %
3297 28-12-2019 21:23:17 -1.4 C 41 %
3298 28-12-2019 21:33:17 -1.8 C 41 %
3299 28-12-2019 21:43:18 -1.6 C 43 %
3300 28-12-2019 21:53:17 -1.7 C 42 %
Sensor: Nr:Datum:Temp:Feuchte:
Aussen-T/F 3301 28-12-2019 22:03:18 -1.7 C 42 %
3302 28-12-2019 22:13:18 -2.2 C 41 %
3303 28-12-2019 22:23:17 -2.3 C 42 %
3304 28-12-2019 22:33:17 -2.3 C 42 %
3305 28-12-2019 22:43:17 -2.5 C 42 %
3306 28-12-2019 22:53:17 -2.2 C 43 %
3307 28-12-2019 23:03:17 -2.5 C 42 %
3308 28-12-2019 23:13:17 -2.3 C 43 %
3309 28-12-2019 23:23:17 -2.3 C 43 %
3310 28-12-2019 23:33:17 -2.7 C 42 %
3311 28-12-2019 23:43:17 -2.6 C 43 %
3312 28-12-2019 23:53:17 -2.9 C 42 %
3313 29-12-2019 00:03:18 -2.6 C 43 %
3314 29-12-2019 00:13:18 -2.9 C 43 %
3315 29-12-2019 00:23:17 -3.1 C 42 %
3316 29-12-2019 00:33:17 -3.2 C 43 %
3317 29-12-2019 00:43:17 -3.1 C 43 %
3318 29-12-2019 00:53:17 -3.1 C 43 %
3319 29-12-2019 01:03:17 -3.3 C 42 %
3320 29-12-2019 01:13:17 -3.3 C 43 %
3321 29-12-2019 01:23:17 -3.5 C 42 %
3322 29-12-2019 01:33:17 -3.7 C 42 %
3323 29-12-2019 01:43:17 -3 C 44 %
3324 29-12-2019 01:53:17 -3.5 C 42 %
3325 29-12-2019 02:03:17 -3.7 C 41 %
Sensor: Nr:Datum:Temp:Feuchte:
Aussen-T/F 3326 29-12-2019 02:13:17 -3.8 C 42 %
3327 29-12-2019 02:23:17 -3.3 C 43 %
3328 29-12-2019 02:33:17 -3.7 C 41 %
3329 29-12-2019 02:43:17 -3.7 C 42 %
3330 29-12-2019 02:53:18 -3.8 C 41 %
3331 29-12-2019 03:03:17 -4 C 41 %
3332 29-12-2019 03:13:17 -4 C 42 %
3333 29-12-2019 03:23:17 -4 C 41 %
3334 29-12-2019 03:33:17 -4.1 C 41 %
3335 29-12-2019 03:43:17 -4.1 C 41 %
3336 29-12-2019 03:53:18 -4 C 42 %
3337 29-12-2019 04:03:17 -4.2 C 41 %
3338 29-12-2019 04:13:17 -3.9 C 42 %
3339 29-12-2019 04:23:17 -4.1 C 41 %
3340 29-12-2019 04:33:17 -4.1 C 41 %
3341 29-12-2019 04:43:17 -4.4 C 41 %
3342 29-12-2019 04:53:17 -4.2 C 41 %
3343 29-12-2019 05:03:17 -4.3 C 41 %
3344 29-12-2019 05:13:17 -4.5 C 41 %
3345 29-12-2019 05:23:17 -4.5 C 41 %
3346 29-12-2019 05:33:18 -4.4 C 41 %
3347 29-12-2019 05:43:18 -4.5 C 41 %
3348 29-12-2019 05:53:17 -4.7 C 41 %
3349 29-12-2019 06:03:17 -4.6 C 41 %
3350 29-12-2019 06:13:17 -4.7 C 41 %
Sensor: Nr:Datum:Temp:Feuchte:
Aussen-T/F 3351 29-12-2019 06:23:17 -4.8 C 41 %
3352 29-12-2019 06:33:17 -4.8 C 41 %
3353 29-12-2019 06:43:17 -4.8 C 41 %
3354 29-12-2019 06:53:17 -4.8 C 41 %
3355 29-12-2019 07:03:17 -4.9 C 41 %
3356 29-12-2019 07:13:17 -4.9 C 41 %
3357 29-12-2019 07:23:17 -5 C 41 %
3358 29-12-2019 07:33:17 -4.5 C 42 %
3359 29-12-2019 07:43:17 -4.7 C 41 %
3360 29-12-2019 07:53:17 -4.7 C 41 %
3361 29-12-2019 08:03:17 -4.4 C 42 %
3362 29-12-2019 08:13:17 -4.3 C 42 %
3363 29-12-2019 08:23:18 -3.9 C 43 %
3364 29-12-2019 08:33:17 -4.1 C 41 %
3365 29-12-2019 08:43:17 -4.3 C 41 %
3366 29-12-2019 08:53:17 -4.5 C 40 %
3367 29-12-2019 09:03:17 -4.1 C 42 %
3368 29-12-2019 09:13:17 -3.9 C 42 %
3369 29-12-2019 09:23:18 -4 C 41 %
3370 29-12-2019 09:33:17 -4.1 C 41 %
3371 29-12-2019 09:43:17 -4 C 41 %
3372 29-12-2019 09:53:17 -4 C 41 %
3373 29-12-2019 10:03:18 -4 C 40 %
3374 29-12-2019 10:13:18 -3.9 C 41 %
3375 29-12-2019 10:23:17 -3.5 C 42 %
Sensor: Nr:Datum:Temp:Feuchte:
Aussen-T/F 3376 29-12-2019 10:33:17 -3.3 C 42 %
3377 29-12-2019 10:43:17 -3.1 C 42 %
3378 29-12-2019 10:53:17 -2.6 C 43 %
3379 29-12-2019 11:03:17 -2.1 C 43 %
3380 29-12-2019 11:13:17 -1.8 C 42 %
3381 29-12-2019 11:23:17 -1.4 C 43 %
3382 29-12-2019 11:33:17 -1.3 C 42 %
3383 29-12-2019 11:43:18 -0.8 C 43 %
3384 29-12-2019 11:53:17 -0.4 C 42 %
3385 29-12-2019 12:03:18 -0.5 C 41 %
3386 29-12-2019 12:13:18 -0.3 C 41 %
3387 29-12-2019 12:23:17 0.1 C 40 %
3388 29-12-2019 12:33:17 0.3 C 40 %
3389 29-12-2019 12:43:17 0.5 C 40 %
3390 29-12-2019 12:53:17 0.4 C 40 %
3391 29-12-2019 13:03:17 0.7 C 38 %
3392 29-12-2019 13:13:17 1 C 37 %
3393 29-12-2019 13:23:17 1 C 37 %
3394 29-12-2019 13:33:18 1.4 C 36 %
3395 29-12-2019 13:43:18 1.4 C 38 %
3396 29-12-2019 13:53:17 1.5 C 37 %
3397 29-12-2019 14:03:17 1.5 C 36 %
3398 29-12-2019 14:13:17 1.4 C 37 %
3399 29-12-2019 14:23:17 1.7 C 36 %
3400 29-12-2019 14:33:18 1.9 C 36 %
Sensor: Nr:Datum:Temp:Feuchte:
Aussen-T/F 3401 29-12-2019 14:43:18 2.2 C 34 %
3402 29-12-2019 14:53:17 2.1 C 33 %
3403 29-12-2019 15:03:17 1.9 C 34 %
3404 29-12-2019 15:13:18 2 C 31 %
3405 29-12-2019 15:23:17 2 C 27 %
3406 29-12-2019 15:33:17 1.9 C 30 %
3407 29-12-2019 15:43:17 1.5 C 32 %
3408 29-12-2019 15:53:18 1.1 C 32 %
3409 29-12-2019 16:03:17 0.5 C 35 %
3410 29-12-2019 16:13:17 0.2 C 38 %
3411 29-12-2019 16:23:17 0.2 C 39 %
3412 29-12-2019 16:33:18 -0.3 C 39 %
3413 29-12-2019 16:43:18 -0.1 C 40 %
3414 29-12-2019 16:53:17 -0.2 C 40 %
3415 29-12-2019 17:03:17 -0.2 C 40 %
3416 29-12-2019 17:13:17 -0.3 C 39 %
3417 29-12-2019 17:23:17 -0.3 C 37 %
3418 29-12-2019 17:33:17 -0.3 C 37 %
3419 29-12-2019 17:43:17 -0.1 C 36 %
3420 29-12-2019 17:53:17 -0.2 C 38 %
3421 29-12-2019 18:03:17 -0.1 C 37 %
3422 29-12-2019 18:13:17 0.1 C 37 %
3423 29-12-2019 18:23:17 0.2 C 36 %
3424 29-12-2019 18:33:17 -0.2 C 38 %
3425 29-12-2019 18:43:17 -0.5 C 40 %
Sensor: Nr:Datum:Temp:Feuchte:
Aussen-T/F 3426 29-12-2019 18:53:17 -0.8 C 40 %
3427 29-12-2019 19:03:17 -0.5 C 41 %
3428 29-12-2019 19:13:17 -0.7 C 38 %
3429 29-12-2019 19:23:18 -0.6 C 37 %
3430 29-12-2019 19:33:18 -0.6 C 35 %
3431 29-12-2019 19:43:18 -1 C 35 %
3432 29-12-2019 19:53:17 -1.1 C 36 %
3433 29-12-2019 20:03:18 -0.9 C 34 %
3434 29-12-2019 20:13:18 -1.2 C 36 %
3435 29-12-2019 20:23:17 -0.7 C 35 %
3436 29-12-2019 20:33:17 -1.3 C 37 %
3437 29-12-2019 20:43:17 -0.9 C 39 %
3438 29-12-2019 20:53:17 -1.5 C 39 %
3439 29-12-2019 21:03:17 -1.2 C 38 %
3440 29-12-2019 21:13:17 -1.8 C 37 %
3441 29-12-2019 21:23:17 -1.8 C 40 %
3442 29-12-2019 21:33:18 -1.8 C 41 %
3443 29-12-2019 21:43:18 -2.1 C 42 %
3444 29-12-2019 21:53:17 -2.3 C 42 %
3445 29-12-2019 22:03:17 -2.2 C 43 %
3446 29-12-2019 22:13:17 -2.1 C 43 %
3447 29-12-2019 22:23:17 -2.4 C 42 %
3448 29-12-2019 22:33:17 -2.7 C 42 %
3449 29-12-2019 22:43:18 -2.7 C 43 %
3450 29-12-2019 22:53:17 -2.7 C 43 %
Sensor: Nr:Datum:Temp:Feuchte:
Aussen-T/F 3451 29-12-2019 23:03:17 -2.8 C 43 %
3452 29-12-2019 23:13:17 -2.7 C 44 %
3453 29-12-2019 23:23:17 -2.8 C 43 %
3454 29-12-2019 23:33:18 -3 C 43 %
3455 29-12-2019 23:43:18 -3 C 43 %
3456 29-12-2019 23:53:17 -3 C 42 %
3457 30-12-2019 00:03:17 -3 C 42 %
3458 30-12-2019 00:13:17 -3.1 C 41 %
3459 30-12-2019 00:23:17 -3.1 C 41 %
3460 30-12-2019 00:33:17 -3 C 42 %
3461 30-12-2019 00:43:17 -3.2 C 42 %
3462 30-12-2019 00:53:17 -3.2 C 42 %
3463 30-12-2019 01:03:17 -3.2 C 42 %
3464 30-12-2019 01:13:18 -3.1 C 44 %
3465 30-12-2019 01:23:17 -3.1 C 43 %
3466 30-12-2019 01:33:18 -3.2 C 42 %
3467 30-12-2019 01:43:18 -3.4 C 42 %
3468 30-12-2019 01:53:17 -3.5 C 42 %
3469 30-12-2019 02:03:17 -3.2 C 43 %
3470 30-12-2019 02:13:17 -3.4 C 43 %
3471 30-12-2019 02:23:17 -3.4 C 43 %
3472 30-12-2019 02:33:18 -3.4 C 43 %
3473 30-12-2019 02:43:18 -3.4 C 43 %
3474 30-12-2019 02:53:17 -3.4 C 43 %
3475 30-12-2019 03:03:17 -3.3 C 43 %
Sensor: Nr:Datum:Temp:Feuchte:
Aussen-T/F 3476 30-12-2019 03:13:17 -3.4 C 43 %
3477 30-12-2019 03:23:17 -3.1 C 43 %
3478 30-12-2019 03:33:18 -3.2 C 43 %
3479 30-12-2019 03:43:18 -3.3 C 43 %
3480 30-12-2019 03:53:17 -3.5 C 43 %
3481 30-12-2019 04:03:17 -3.7 C 42 %
3482 30-12-2019 04:13:17 -3.8 C 42 %
3483 30-12-2019 04:23:17 -3.8 C 42 %
3484 30-12-2019 04:33:17 -3.9 C 42 %
3485 30-12-2019 04:43:17 -3.9 C 42 %
3486 30-12-2019 04:53:17 -4 C 42 %
3487 30-12-2019 05:03:17 -3.9 C 42 %
3488 30-12-2019 05:13:17 -3.8 C 42 %
3489 30-12-2019 05:23:17 -3.9 C 42 %
3490 30-12-2019 05:33:17 -3.7 C 43 %
3491 30-12-2019 05:43:17 -3.8 C 43 %
3492 30-12-2019 05:53:18 -4 C 42 %
3493 30-12-2019 06:03:17 -4 C 42 %
3494 30-12-2019 06:13:17 -4 C 42 %
3495 30-12-2019 06:23:17 -3.9 C 42 %
3496 30-12-2019 06:33:17 -3.7 C 43 %
3497 30-12-2019 06:43:17 -3.9 C 42 %
3498 30-12-2019 06:53:17 -4 C 42 %
3499 30-12-2019 07:03:17 -4 C 42 %
3500 30-12-2019 07:13:17 -4.2 C 41 %
Sensor: Nr:Datum:Temp:Feuchte:
Aussen-T/F 3501 30-12-2019 07:23:17 -4.4 C 42 %
3502 30-12-2019 07:33:18 -4.4 C 41 %
3503 30-12-2019 07:43:18 -4.4 C 42 %
3504 30-12-2019 07:53:17 -4.2 C 42 %
3505 30-12-2019 08:03:17 -4.4 C 41 %
3506 30-12-2019 08:13:17 -4.3 C 42 %
3507 30-12-2019 08:23:17 -4.4 C 42 %
3508 30-12-2019 08:33:17 -4.5 C 41 %
3509 30-12-2019 08:43:17 -4 C 43 %
3510 30-12-2019 08:53:17 -4.2 C 41 %
3511 30-12-2019 09:03:18 -4.1 C 42 %
3512 30-12-2019 09:13:18 -3.9 C 42 %
3513 30-12-2019 09:23:17 -3.8 C 42 %
3514 30-12-2019 09:33:17 -3.6 C 43 %
3515 30-12-2019 09:43:17 -3.7 C 42 %
3516 30-12-2019 09:53:17 -3.7 C 42 %
3517 30-12-2019 10:03:17 -3.5 C 42 %
3518 30-12-2019 10:13:17 -3.3 C 43 %
3519 30-12-2019 10:23:17 -3.3 C 42 %
3520 30-12-2019 10:33:17 -3.3 C 42 %
3521 30-12-2019 10:43:17 -3 C 43 %
3522 30-12-2019 10:53:17 -2.9 C 42 %
3523 30-12-2019 11:03:17 -2.9 C 42 %
3524 30-12-2019 11:13:17 -2.8 C 42 %
3525 30-12-2019 11:23:17 -2.4 C 43 %
Sensor: Nr:Datum:Temp:Feuchte:
Aussen-T/F 3526 30-12-2019 11:33:17 -2.1 C 42 %
3527 30-12-2019 11:43:17 -2 C 41 %
3528 30-12-2019 11:53:18 -2.1 C 40 %
3529 30-12-2019 12:03:17 -1.7 C 41 %
3530 30-12-2019 12:13:17 -1.5 C 40 %
3531 30-12-2019 12:23:17 -1.6 C 40 %
3532 30-12-2019 12:33:17 -1.4 C 41 %
3533 30-12-2019 12:43:17 -0.7 C 39 %
3534 30-12-2019 12:53:17 -0.8 C 39 %
3535 30-12-2019 13:03:17 -0.8 C 38 %
3536 30-12-2019 13:13:17 -1 C 40 %
3537 30-12-2019 13:23:17 -1 C 41 %
3538 30-12-2019 13:33:17 -1 C 42 %
3539 30-12-2019 13:43:17 -0.6 C 42 %
3540 30-12-2019 13:53:17 -0.2 C 41 %
3541 30-12-2019 14:03:17 0.3 C 37 %
3542 30-12-2019 14:13:17 0.1 C 35 %
3543 30-12-2019 14:23:17 0.6 C 35 %
3544 30-12-2019 14:33:17 0.5 C 35 %
3545 30-12-2019 14:43:17 1 C 32 %
3546 30-12-2019 14:53:17 0.6 C 35 %
3547 30-12-2019 15:03:17 0.9 C 36 %
3548 30-12-2019 15:13:17 1.1 C 33 %
3549 30-12-2019 15:23:17 0.6 C 35 %
3550 30-12-2019 15:33:18 0.6 C 36 %
Sensor: Nr:Datum:Temp:Feuchte:
Aussen-T/F 3551 30-12-2019 15:43:18 0.7 C 35 %
3552 30-12-2019 15:53:17 1.6 C 32 %
3553 30-12-2019 16:03:18 1.7 C 32 %
3554 30-12-2019 16:13:18 1.9 C 31 %
3555 30-12-2019 16:23:18 1.6 C 33 %
3556 30-12-2019 16:33:17 1.1 C 35 %
3557 30-12-2019 16:43:17 0.8 C 37 %
3558 30-12-2019 16:53:17 0.6 C 40 %
3559 30-12-2019 17:03:17 0.7 C 40 %
3560 30-12-2019 17:13:17 0.7 C 40 %
3561 30-12-2019 17:23:18 0.6 C 40 %
3562 30-12-2019 17:33:17 0.5 C 40 %
3563 30-12-2019 17:43:17 0.5 C 40 %
3564 30-12-2019 17:53:17 0.5 C 37 %
3565 30-12-2019 18:03:17 0.3 C 36 %
3566 30-12-2019 18:13:17 -0.3 C 36 %
3567 30-12-2019 18:23:18 -0.7 C 37 %
3568 30-12-2019 18:33:18 -0.4 C 36 %
3569 30-12-2019 18:43:18 -0.2 C 36 %
3570 30-12-2019 18:53:17 -0.6 C 34 %
3571 30-12-2019 19:03:17 -1.3 C 36 %
3572 30-12-2019 19:13:17 -1 C 36 %
3573 30-12-2019 19:23:18 -1.4 C 36 %
3574 30-12-2019 19:33:17 -1.4 C 39 %
3575 30-12-2019 19:43:17 -0.4 C 33 %
Sensor: Nr:Datum:Temp:Feuchte:
Aussen-T/F 3576 30-12-2019 19:53:18 0 C 32 %
3577 30-12-2019 20:03:17 -0.3 C 31 %
3578 30-12-2019 20:13:17 -1.2 C 32 %
3579 30-12-2019 20:23:17 -1.6 C 35 %
3580 30-12-2019 20:33:17 -1.6 C 36 %
3581 30-12-2019 20:43:17 -1.7 C 36 %
3582 30-12-2019 20:53:17 -1.5 C 37 %
3583 30-12-2019 21:03:17 -1.9 C 37 %
3584 30-12-2019 21:13:17 -0.8 C 35 %
3585 30-12-2019 21:23:17 -1.1 C 35 %
3586 30-12-2019 21:33:17 -0.9 C 35 %
3587 30-12-2019 21:43:17 -0.8 C 36 %
3588 30-12-2019 21:53:17 -1.1 C 33 %
3589 30-12-2019 22:03:17 -1.5 C 35 %
3590 30-12-2019 22:13:17 -1.7 C 35 %
3591 30-12-2019 22:23:17 -1.7 C 35 %
3592 30-12-2019 22:33:17 -2.3 C 35 %
3593 30-12-2019 22:43:17 -1.8 C 35 %
3594 30-12-2019 22:53:17 -2 C 36 %
3595 30-12-2019 23:03:17 -2.3 C 36 %
3596 30-12-2019 23:13:17 -1.5 C 36 %
3597 30-12-2019 23:23:17 -0.9 C 32 %
3598 30-12-2019 23:33:17 -0.3 C 31 %
3599 30-12-2019 23:43:17 -0.9 C 31 %
3600 30-12-2019 23:53:17 -1 C 31 %
Sensor: Nr:Datum:Temp:Feuchte:
Aussen-T/F 3601 31-12-2019 00:03:17 -1.2 C 32 %
3602 31-12-2019 00:13:18 -1.4 C 34 %
3603 31-12-2019 00:23:17 -1.6 C 36 %
3604 31-12-2019 00:33:18 -1.2 C 35 %
3605 31-12-2019 00:43:18 -1.5 C 35 %
3606 31-12-2019 00:53:17 -1.5 C 36 %
3607 31-12-2019 01:03:17 -1.5 C 36 %
3608 31-12-2019 01:13:17 -0.8 C 34 %
3609 31-12-2019 01:23:18 -1.3 C 34 %
3610 31-12-2019 01:33:17 -1.6 C 37 %
3611 31-12-2019 01:43:17 -2 C 37 %
3612 31-12-2019 01:53:17 -2.3 C 38 %
3613 31-12-2019 02:03:17 -2.5 C 40 %
3614 31-12-2019 02:13:17 -2.7 C 40 %
3615 31-12-2019 02:23:18 -2.8 C 41 %
3616 31-12-2019 02:33:17 -3 C 41 %
3617 31-12-2019 02:43:17 -2.9 C 43 %
3618 31-12-2019 02:53:17 -2 C 45 %
3619 31-12-2019 03:03:17 -1.7 C 42 %
3620 31-12-2019 03:13:18 -2 C 40 %
3621 31-12-2019 03:23:17 -2.4 C 40 %
3622 31-12-2019 03:33:18 -2.5 C 41 %
3623 31-12-2019 03:43:18 -2.9 C 41 %
3624 31-12-2019 03:53:17 -2.8 C 42 %
3625 31-12-2019 04:03:17 -2.6 C 43 %
Sensor: Nr:Datum:Temp:Feuchte:
Aussen-T/F 3626 31-12-2019 04:13:17 -3.1 C 42 %
3627 31-12-2019 04:23:17 -3.2 C 42 %
3628 31-12-2019 04:33:17 -3.3 C 42 %
3629 31-12-2019 04:43:18 -3.3 C 42 %
3630 31-12-2019 04:53:17 -3.2 C 43 %
3631 31-12-2019 05:03:17 -3.3 C 42 %
3632 31-12-2019 05:13:17 -3.6 C 42 %
3633 31-12-2019 05:23:17 -3.4 C 43 %
3634 31-12-2019 05:33:17 -3.1 C 44 %
3635 31-12-2019 05:43:17 -3 C 44 %
3636 31-12-2019 05:53:17 -2.9 C 44 %
3637 31-12-2019 06:03:17 -3.1 C 43 %
3638 31-12-2019 06:13:17 -3.3 C 43 %
3639 31-12-2019 06:23:17 -3.2 C 43 %
3640 31-12-2019 06:33:17 -3.3 C 43 %
3641 31-12-2019 06:43:17 -3.4 C 43 %
3642 31-12-2019 06:53:18 -3.2 C 44 %
3643 31-12-2019 07:03:17 -3.2 C 44 %
3644 31-12-2019 07:13:17 -3 C 44 %
3645 31-12-2019 07:23:17 -3.1 C 44 %
3646 31-12-2019 07:33:17 -3 C 44 %
3647 31-12-2019 07:43:17 -2.6 C 45 %
3648 31-12-2019 07:53:18 -2.1 C 45 %
3649 31-12-2019 08:03:17 -2 C 45 %
3650 31-12-2019 08:13:17 -2 C 45 %
Sensor: Nr:Datum:Temp:Feuchte:
Aussen-T/F 3651 31-12-2019 08:23:17 -1.3 C 45 %
3652 31-12-2019 08:33:17 -1 C 44 %
3653 31-12-2019 08:43:17 -1 C 43 %
3654 31-12-2019 08:53:17 -1.1 C 42 %
3655 31-12-2019 09:03:17 -1 C 43 %
3656 31-12-2019 09:13:17 -0.9 C 44 %
3657 31-12-2019 09:23:17 -1.1 C 42 %
3658 31-12-2019 09:33:17 -1.1 C 42 %
3659 31-12-2019 09:43:17 -1.1 C 42 %
3660 31-12-2019 09:53:17 -0.9 C 43 %
3661 31-12-2019 10:03:17 -0.6 C 44 %
3662 31-12-2019 10:13:17 -0.2 C 43 %
3663 31-12-2019 10:23:17 0.1 C 41 %
3664 31-12-2019 10:33:17 0.3 C 40 %
3665 31-12-2019 10:43:17 0.3 C 38 %
3666 31-12-2019 10:53:18 0.5 C 40 %
3667 31-12-2019 11:03:17 0.8 C 41 %
3668 31-12-2019 11:13:17 0.7 C 41 %
3669 31-12-2019 11:23:17 1.2 C 40 %
3670 31-12-2019 11:33:17 1.1 C 38 %
3671 31-12-2019 11:43:17 1.5 C 40 %
3672 31-12-2019 11:53:17 1.5 C 40 %
3673 31-12-2019 12:03:18 1.8 C 31 %
3674 31-12-2019 12:13:18 2.4 C 35 %
3675 31-12-2019 12:23:17 2.6 C 33 %
Sensor: Nr:Datum:Temp:Feuchte:
Aussen-T/F 3676 31-12-2019 12:33:18 2.4 C 32 %
3677 31-12-2019 12:43:18 2.8 C 30 %
3678 31-12-2019 12:53:17 2.3 C 29 %
3679 31-12-2019 13:03:18 2.4 C 28 %
3680 31-12-2019 13:13:18 2.4 C 27 %
3681 31-12-2019 13:23:17 2.8 C 27 %
3682 31-12-2019 13:33:17 2.8 C 26 %
3683 31-12-2019 13:43:17 3.3 C 26 %
3684 31-12-2019 13:53:17 2.9 C 26 %
3685 31-12-2019 14:03:18 2.7 C 27 %
3686 31-12-2019 14:13:18 2.9 C 27 %
3687 31-12-2019 14:23:17 3.1 C 26 %
3688 31-12-2019 14:33:17 3.4 C 26 %
3689 31-12-2019 14:43:17 3.2 C 26 %
3690 31-12-2019 14:53:17 3 C 26 %
3691 31-12-2019 15:03:17 2.8 C 27 %
3692 31-12-2019 15:13:17 2.9 C 27 %
3693 31-12-2019 15:23:18 3 C 27 %
3694 31-12-2019 15:33:17 3 C 27 %
3695 31-12-2019 15:43:17 2.9 C 28 %
3696 31-12-2019 15:53:17 2.7 C 29 %
3697 31-12-2019 16:03:17 2.1 C 30 %
3698 31-12-2019 16:13:17 0.9 C 35 %
3699 31-12-2019 16:23:18 0.6 C 38 %
3700 31-12-2019 16:33:17 0.3 C 40 %
Sensor: Nr:Datum:Temp:Feuchte:
Aussen-T/F 3701 31-12-2019 16:43:17 0.2 C 39 %
3702 31-12-2019 16:53:18 0.2 C 40 %
3703 31-12-2019 17:03:17 -0.1 C 41 %
3704 31-12-2019 17:13:17 -0.4 C 41 %
3705 31-12-2019 17:23:17 -0.3 C 40 %
3706 31-12-2019 17:33:17 -0.3 C 41 %
3707 31-12-2019 17:43:17 -0.6 C 43 %
3708 31-12-2019 17:53:18 -0.7 C 43 %
3709 31-12-2019 18:03:17 -1.1 C 43 %
3710 31-12-2019 18:13:17 -1.2 C 45 %
3711 31-12-2019 18:23:17 -0.9 C 45 %
3712 31-12-2019 18:33:17 -0.8 C 45 %
3713 31-12-2019 18:43:17 -0.4 C 46 %
3714 31-12-2019 18:53:18 -0.4 C 46 %
3715 31-12-2019 19:03:17 -0.3 C 45 %
3716 31-12-2019 19:13:17 -0.1 C 46 %
3717 31-12-2019 19:23:18 0 C 45 %
3718 31-12-2019 19:33:17 0.1 C 45 %
3719 31-12-2019 19:43:17 0.2 C 45 %
3720 31-12-2019 19:53:17 0.4 C 45 %
3721 31-12-2019 20:03:18 0.5 C 45 %
3722 31-12-2019 20:13:18 0.5 C 45 %
3723 31-12-2019 20:23:17 0.4 C 45 %
3724 31-12-2019 20:33:17 0.4 C 45 %
3725 31-12-2019 20:43:17 0.3 C 43 %
Sensor: Nr:Datum:Temp:Feuchte:
Aussen-T/F 3726 31-12-2019 20:53:17 0.2 C 43 %
3727 31-12-2019 21:03:17 0.2 C 43 %
3728 31-12-2019 21:13:17 0.4 C 44 %
3729 31-12-2019 21:23:18 0.4 C 44 %
3730 31-12-2019 21:33:17 0.5 C 44 %
3731 31-12-2019 21:43:17 0.6 C 43 %
3732 31-12-2019 21:53:17 0.5 C 43 %
3733 31-12-2019 22:03:17 0.6 C 42 %
3734 31-12-2019 22:13:17 0.5 C 42 %
3735 31-12-2019 22:23:18 0.2 C 41 %
3736 31-12-2019 22:33:17 0 C 41 %
3737 31-12-2019 22:43:17 -0.2 C 42 %
3738 31-12-2019 22:53:17 -0.4 C 43 %
3739 31-12-2019 23:03:17 -0.3 C 44 %
3740 31-12-2019 23:13:17 -0.1 C 45 %
3741 31-12-2019 23:23:18 0 C 45 %
3742 31-12-2019 23:33:17 0 C 45 %
3743 31-12-2019 23:43:17 0.4 C 45 %
3744 31-12-2019 23:53:18 0.3 C 45 %
3745 01-01-2020 00:03:17 0.4 C 45 %
3746 01-01-2020 00:13:17 0.4 C 45 %
3747 01-01-2020 00:23:17 0.3 C 45 %
3748 01-01-2020 00:33:17 -0.9 C 41 %
3749 01-01-2020 00:43:17 -0.3 C 45 %
3750 01-01-2020 00:53:18 -0.5 C 44 %
Sensor: Nr:Datum:Temp:Feuchte:
Aussen-T/F 3751 01-01-2020 01:03:17 -0.5 C 44 %
3752 01-01-2020 01:13:17 -0.6 C 44 %
3753 01-01-2020 01:23:17 -0.6 C 45 %
3754 01-01-2020 01:33:17 -0.7 C 45 %
3755 01-01-2020 01:43:17 -1.1 C 44 %
3756 01-01-2020 01:53:18 -0.9 C 45 %
3757 01-01-2020 02:03:17 -0.9 C 45 %
3758 01-01-2020 02:13:17 -0.5 C 46 %
3759 01-01-2020 02:23:17 -0.2 C 45 %
3760 01-01-2020 02:33:18 -0.1 C 45 %
3761 01-01-2020 02:43:18 0 C 45 %
3762 01-01-2020 02:53:17 0.1 C 45 %
3763 01-01-2020 03:03:17 0.1 C 45 %
3764 01-01-2020 03:13:18 0.1 C 45 %
3765 01-01-2020 03:23:17 0.2 C 45 %
3766 01-01-2020 03:33:18 0.1 C 45 %
3767 01-01-2020 03:43:18 0.1 C 45 %
3768 01-01-2020 03:53:17 0.1 C 45 %
3769 01-01-2020 04:03:18 0.2 C 45 %
3770 01-01-2020 04:13:18 0.2 C 45 %
3771 01-01-2020 04:23:17 0.3 C 45 %
3772 01-01-2020 04:33:18 0.3 C 45 %
3773 01-01-2020 04:43:18 0.3 C 44 %
3774 01-01-2020 04:53:17 0.3 C 44 %
3775 01-01-2020 05:03:18 0.4 C 44 %
Sensor: Nr:Datum:Temp:Feuchte:
Aussen-T/F 3776 01-01-2020 05:13:18 0.5 C 44 %
3777 01-01-2020 05:23:17 0.4 C 44 %
3778 01-01-2020 05:33:18 0.4 C 44 %
3779 01-01-2020 05:43:18 0.4 C 44 %
3780 01-01-2020 05:53:17 0.4 C 43 %
3781 01-01-2020 06:03:17 0.4 C 43 %
3782 01-01-2020 06:13:17 0.5 C 43 %
3783 01-01-2020 06:23:17 0.4 C 42 %
3784 01-01-2020 06:33:17 0.6 C 42 %
3785 01-01-2020 06:43:17 0.6 C 42 %
3786 01-01-2020 06:53:17 0.6 C 42 %
3787 01-01-2020 07:03:18 0.6 C 41 %
3788 01-01-2020 07:13:18 0.6 C 41 %
3789 01-01-2020 07:23:17 0.6 C 41 %
3790 01-01-2020 07:33:17 0.6 C 41 %
3791 01-01-2020 07:43:17 0.6 C 41 %
3792 01-01-2020 07:53:17 0.6 C 41 %
3793 01-01-2020 08:03:17 0.6 C 41 %
3794 01-01-2020 08:13:17 0.6 C 41 %
3795 01-01-2020 08:23:18 0.7 C 40 %
3796 01-01-2020 08:33:17 0.7 C 40 %
3797 01-01-2020 08:43:17 0.7 C 40 %
3798 01-01-2020 08:53:17 0.8 C 40 %
3799 01-01-2020 09:03:17 0.8 C 40 %
3800 01-01-2020 09:13:17 1.1 C 38 %
Sensor: Nr:Datum:Temp:Feuchte:
Aussen-T/F 3801 01-01-2020 09:23:17 1.3 C 38 %
3802 01-01-2020 09:33:17 1.4 C 37 %
3803 01-01-2020 09:43:17 1.5 C 37 %
3804 01-01-2020 09:53:17 1.7 C 36 %
3805 01-01-2020 10:03:18 1.9 C 36 %
3806 01-01-2020 10:13:18 2 C 34 %
3807 01-01-2020 10:23:17 2.1 C 33 %
3808 01-01-2020 10:33:17 2.2 C 32 %
3809 01-01-2020 10:43:17 2.3 C 32 %
3810 01-01-2020 10:53:17 2.4 C 32 %
3811 01-01-2020 11:03:17 2.4 C 31 %
3812 01-01-2020 11:13:17 2.7 C 31 %
3813 01-01-2020 11:23:18 2.7 C 30 %
3814 01-01-2020 11:33:17 2.7 C 30 %
3815 01-01-2020 11:43:17 2.8 C 30 %
3816 01-01-2020 11:53:18 2.9 C 30 %
3817 01-01-2020 12:03:17 3.2 C 28 %
3818 01-01-2020 12:13:17 3 C 29 %
3819 01-01-2020 12:23:18 2.7 C 30 %
3820 01-01-2020 12:33:17 2.7 C 30 %
3821 01-01-2020 12:43:17 2.5 C 30 %
3822 01-01-2020 12:53:18 2.1 C 32 %
3823 01-01-2020 13:03:17 1.6 C 36 %
3824 01-01-2020 13:13:17 1.6 C 37 %
3825 01-01-2020 13:23:18 1.4 C 37 %
Sensor: Nr:Datum:Temp:Feuchte:
Aussen-T/F 3826 01-01-2020 13:33:17 1.5 C 38 %
3827 01-01-2020 13:43:17 1.5 C 38 %
3828 01-01-2020 13:53:17 1.6 C 39 %
3829 01-01-2020 14:03:17 1.6 C 39 %
3830 01-01-2020 14:13:17 1.6 C 39 %
3831 01-01-2020 14:23:17 1.6 C 40 %
3832 01-01-2020 14:33:17 1.4 C 40 %
3833 01-01-2020 14:43:17 1.3 C 41 %
3834 01-01-2020 14:53:17 1.2 C 41 %
3835 01-01-2020 15:03:17 1.3 C 41 %
3836 01-01-2020 15:13:17 1.2 C 41 %
3837 01-01-2020 15:23:17 1.6 C 41 %
3838 01-01-2020 15:33:17 1.7 C 38 %
3839 01-01-2020 15:43:17 1.1 C 38 %
3840 01-01-2020 15:53:17 0.7 C 40 %
3841 01-01-2020 16:03:17 0.5 C 43 %
3842 01-01-2020 16:13:17 -0.1 C 43 %
3843 01-01-2020 16:23:17 -0.3 C 44 %
3844 01-01-2020 16:33:18 -0.7 C 44 %
3845 01-01-2020 16:43:18 -0.7 C 45 %
3846 01-01-2020 16:53:17 -0.8 C 45 %
3847 01-01-2020 17:03:17 -1 C 45 %
3848 01-01-2020 17:13:17 -1.3 C 45 %
3849 01-01-2020 17:23:18 -1.5 C 45 %
3850 01-01-2020 17:33:17 -1.8 C 45 %
Sensor: Nr:Datum:Temp:Feuchte:
Aussen-T/F 3851 01-01-2020 17:43:17 -1.9 C 45 %
3852 01-01-2020 17:53:18 -1.8 C 45 %
3853 01-01-2020 18:03:17 -1.9 C 45 %
3854 01-01-2020 18:13:17 -1.9 C 45 %
3855 01-01-2020 18:23:17 -2.1 C 45 %
3856 01-01-2020 18:33:17 -2.1 C 45 %
3857 01-01-2020 18:43:18 -2.1 C 45 %
3858 01-01-2020 18:53:17 -2.2 C 45 %
3859 01-01-2020 19:03:17 -2.4 C 45 %
3860 01-01-2020 19:13:18 -2.5 C 45 %
3861 01-01-2020 19:23:17 -2.4 C 45 %
3862 01-01-2020 19:33:17 -2.3 C 45 %
3863 01-01-2020 19:43:17 -2.2 C 45 %
3864 01-01-2020 19:53:17 -2.4 C 45 %
3865 01-01-2020 20:03:17 -2.2 C 45 %
3866 01-01-2020 20:13:17 -2.1 C 45 %
3867 01-01-2020 20:23:18 -2.3 C 45 %
3868 01-01-2020 20:33:17 -2.1 C 45 %
3869 01-01-2020 20:43:17 -2.6 C 43 %
3870 01-01-2020 20:53:17 -2.8 C 43 %
3871 01-01-2020 21:03:17 -2.8 C 43 %
3872 01-01-2020 21:13:17 -3 C 43 %
3873 01-01-2020 21:23:18 -3.1 C 43 %
3874 01-01-2020 21:33:17 -3.1 C 43 %
3875 01-01-2020 21:43:17 -3.2 C 42 %
Sensor: Nr:Datum:Temp:Feuchte:
Aussen-T/F 3876 01-01-2020 21:53:17 -2.8 C 43 %
3877 01-01-2020 22:03:17 -3.1 C 42 %
3878 01-01-2020 22:13:17 -3.2 C 42 %
3879 01-01-2020 22:23:17 -3 C 43 %
3880 01-01-2020 22:33:17 -2.8 C 43 %
3881 01-01-2020 22:43:17 -2.8 C 43 %
3882 01-01-2020 22:53:17 -3.2 C 42 %
3883 01-01-2020 23:03:17 -3.2 C 42 %
3884 01-01-2020 23:13:17 -2.7 C 44 %
3885 01-01-2020 23:23:17 -2.3 C 45 %
3886 01-01-2020 23:33:17 -2.4 C 44 %
3887 01-01-2020 23:43:17 -2.2 C 45 %
3888 01-01-2020 23:53:17 -2.2 C 45 %
3889 02-01-2020 00:03:17 -2.3 C 44 %
3890 02-01-2020 00:13:17 -2.4 C 44 %
3891 02-01-2020 00:23:17 -2.6 C 43 %
3892 02-01-2020 00:33:17 -2.4 C 43 %
3893 02-01-2020 00:43:17 -2.4 C 44 %
3894 02-01-2020 00:53:17 -2.6 C 43 %
3895 02-01-2020 01:03:17 -2.3 C 44 %
3896 02-01-2020 01:13:17 -2.1 C 45 %
3897 02-01-2020 01:23:17 -1.9 C 45 %
3898 02-01-2020 01:33:17 -1.9 C 45 %
3899 02-01-2020 01:43:17 -1.8 C 45 %
3900 02-01-2020 01:53:17 -1.7 C 45 %
Sensor: Nr:Datum:Temp:Feuchte:
Aussen-T/F 3901 02-01-2020 02:03:17 -1.6 C 45 %
3902 02-01-2020 02:13:17 -1.5 C 45 %
3903 02-01-2020 02:23:17 -1.4 C 45 %
3904 02-01-2020 02:33:17 -1.3 C 45 %
3905 02-01-2020 02:43:17 -1.3 C 45 %
3906 02-01-2020 02:53:17 -1.3 C 45 %
3907 02-01-2020 03:03:17 -1.2 C 45 %
3908 02-01-2020 03:13:18 -1.1 C 45 %
3909 02-01-2020 03:23:17 -1.1 C 45 %
3910 02-01-2020 03:33:18 -1 C 45 %
3911 02-01-2020 03:43:18 -0.9 C 45 %
3912 02-01-2020 03:53:17 -0.9 C 45 %
3913 02-01-2020 04:03:18 -0.8 C 45 %
3914 02-01-2020 04:13:18 -0.7 C 45 %
3915 02-01-2020 04:23:17 -0.7 C 45 %
3916 02-01-2020 04:33:17 -0.7 C 45 %
3917 02-01-2020 04:43:17 -0.7 C 45 %
3918 02-01-2020 04:53:17 -0.8 C 45 %
3919 02-01-2020 05:03:17 -0.9 C 45 %
3920 02-01-2020 05:13:17 -0.9 C 45 %
3921 02-01-2020 05:23:18 -0.9 C 45 %
3922 02-01-2020 05:33:17 -0.9 C 45 %
3923 02-01-2020 05:43:17 -0.8 C 44 %
3924 02-01-2020 05:53:18 -0.8 C 44 %
3925 02-01-2020 06:03:17 -0.9 C 44 %
Sensor: Nr:Datum:Temp:Feuchte:
Aussen-T/F 3926 02-01-2020 06:13:17 -0.9 C 43 %
3927 02-01-2020 06:23:17 -0.9 C 43 %
3928 02-01-2020 06:33:18 -0.7 C 42 %
3929 02-01-2020 06:43:18 -0.7 C 41 %
3930 02-01-2020 06:53:17 -0.7 C 40 %
3931 02-01-2020 07:03:18 -0.7 C 40 %
3932 02-01-2020 07:13:18 -0.7 C 40 %
3933 02-01-2020 07:23:17 -0.7 C 39 %
3934 02-01-2020 07:33:17 -0.7 C 39 %
3935 02-01-2020 07:43:17 -0.7 C 40 %
3936 02-01-2020 07:53:17 -0.6 C 41 %
3937 02-01-2020 08:03:18 -0.6 C 41 %
3938 02-01-2020 08:13:18 -0.5 C 41 %
3939 02-01-2020 08:23:17 -0.4 C 41 %
3940 02-01-2020 08:33:17 -0.3 C 40 %
3941 02-01-2020 08:43:17 -0.3 C 41 %
3942 02-01-2020 08:53:17 -0.2 C 42 %
3943 02-01-2020 09:03:17 -0.1 C 42 %
3944 02-01-2020 09:13:17 0.1 C 42 %
3945 02-01-2020 09:23:17 0.1 C 40 %
3946 02-01-2020 09:33:18 0.4 C 38 %
3947 02-01-2020 09:43:18 0.5 C 37 %
3948 02-01-2020 09:53:17 0.4 C 39 %
3949 02-01-2020 10:03:17 0.4 C 40 %
3950 02-01-2020 10:13:18 0.7 C 41 %
Sensor: Nr:Datum:Temp:Feuchte:
Aussen-T/F 3951 02-01-2020 10:23:17 1.1 C 42 %
3952 02-01-2020 10:33:18 1.1 C 39 %
3953 02-01-2020 10:43:18 1.3 C 39 %
3954 02-01-2020 10:53:17 1.5 C 38 %
3955 02-01-2020 11:03:18 1.7 C 38 %
3956 02-01-2020 11:13:18 1.6 C 35 %
3957 02-01-2020 11:23:17 1.9 C 37 %
3958 02-01-2020 11:33:17 2.1 C 36 %
3959 02-01-2020 11:43:17 2.1 C 35 %
3960 02-01-2020 11:53:17 2.1 C 34 %
3961 02-01-2020 12:03:17 2.2 C 34 %
3962 02-01-2020 12:13:17 2.3 C 35 %
3963 02-01-2020 12:23:17 2.3 C 35 %
3964 02-01-2020 12:33:17 2.6 C 34 %
3965 02-01-2020 12:43:17 3 C 35 %
3966 02-01-2020 12:53:17 2.8 C 32 %
3967 02-01-2020 13:03:17 2.9 C 31 %
3968 02-01-2020 13:13:17 3.1 C 30 %
3969 02-01-2020 13:23:17 3.3 C 29 %
3970 02-01-2020 13:33:17 3.6 C 29 %
3971 02-01-2020 13:43:17 3.3 C 29 %
3972 02-01-2020 13:53:18 3.1 C 30 %
3973 02-01-2020 14:03:17 3.4 C 30 %
3974 02-01-2020 14:13:17 3.4 C 30 %
3975 02-01-2020 14:23:18 3.5 C 30 %
Sensor: Nr:Datum:Temp:Feuchte:
Aussen-T/F 3976 02-01-2020 14:33:17 3.4 C 30 %
3977 02-01-2020 14:43:17 3.7 C 30 %
3978 02-01-2020 14:53:17 3.4 C 30 %
3979 02-01-2020 15:03:17 3.1 C 31 %
3980 02-01-2020 15:13:17 3 C 31 %
3981 02-01-2020 15:23:18 2.7 C 32 %
3982 02-01-2020 15:33:17 2.5 C 33 %
3983 02-01-2020 15:43:17 2.5 C 34 %
3984 02-01-2020 15:53:17 2.4 C 35 %
3985 02-01-2020 16:03:17 2.4 C 35 %
3986 02-01-2020 16:13:17 2.3 C 35 %
3987 02-01-2020 16:23:18 2.2 C 36 %
3988 02-01-2020 16:33:17 2.2 C 37 %
3989 02-01-2020 16:43:17 2.3 C 37 %
3990 02-01-2020 16:53:17 2.2 C 37 %
3991 02-01-2020 17:03:17 2.1 C 38 %
3992 02-01-2020 17:13:17 2 C 38 %
3993 02-01-2020 17:23:18 2.1 C 40 %
3994 02-01-2020 17:33:17 2.1 C 40 %
3995 02-01-2020 17:43:17 2.1 C 40 %
3996 02-01-2020 17:53:17 2.1 C 40 %
3997 02-01-2020 18:03:17 2.1 C 40 %
3998 02-01-2020 18:13:17 2.1 C 40 %
3999 02-01-2020 18:23:17 2.1 C 40 %
4000 02-01-2020 18:33:17 2.1 C 40 %
Sensor: Nr:Datum:Temp:Feuchte:
Aussen-T/F 4001 02-01-2020 18:43:18 2.2 C 39 %
4002 02-01-2020 18:53:17 2.3 C 40 %
4003 02-01-2020 19:03:17 2.2 C 40 %
4004 02-01-2020 19:13:18 2.2 C 40 %
4005 02-01-2020 19:23:17 2.3 C 40 %
4006 02-01-2020 19:33:17 2.3 C 40 %
4007 02-01-2020 19:43:18 2.3 C 40 %
4008 02-01-2020 19:53:17 2.3 C 40 %
4009 02-01-2020 20:03:18 2.3 C 40 %
4010 02-01-2020 20:13:18 2.4 C 40 %
4011 02-01-2020 20:23:17 2.5 C 40 %
4012 02-01-2020 20:33:17 2.6 C 40 %
4013 02-01-2020 20:43:17 2.6 C 40 %
4014 02-01-2020 20:53:17 2.5 C 39 %
4015 02-01-2020 21:03:18 2.5 C 40 %
4016 02-01-2020 21:13:18 2.5 C 40 %
4017 02-01-2020 21:23:17 2.5 C 40 %
4018 02-01-2020 21:33:18 2.5 C 40 %
4019 02-01-2020 21:43:18 2.3 C 40 %
4020 02-01-2020 21:53:17 1.9 C 42 %
4021 02-01-2020 22:03:17 2.3 C 43 %
4022 02-01-2020 22:13:17 2.4 C 43 %
4023 02-01-2020 22:23:17 2.5 C 43 %
4024 02-01-2020 22:33:17 2.6 C 43 %
4025 02-01-2020 22:43:18 2.7 C 43 %
Sensor: Nr:Datum:Temp:Feuchte:
Aussen-T/F 4026 02-01-2020 22:53:17 2.7 C 42 %
4027 02-01-2020 23:03:17 2.8 C 42 %
4028 02-01-2020 23:13:17 2.8 C 42 %
4029 02-01-2020 23:23:17 2.8 C 41 %
4030 02-01-2020 23:33:18 2.8 C 42 %
4031 02-01-2020 23:43:18 2.9 C 42 %
4032 02-01-2020 23:53:17 2.8 C 41 %
4033 03-01-2020 00:03:18 2.9 C 42 %
4034 03-01-2020 00:13:18 3 C 41 %
4035 03-01-2020 00:23:17 3.1 C 41 %
4036 03-01-2020 00:33:17 3.2 C 41 %
4037 03-01-2020 00:43:17 3.2 C 41 %
4038 03-01-2020 00:53:17 3.4 C 42 %
4039 03-01-2020 01:03:17 3.4 C 42 %
4040 03-01-2020 01:13:17 3.5 C 42 %
4041 03-01-2020 01:23:18 3.5 C 42 %
4042 03-01-2020 01:33:17 3.5 C 42 %
4043 03-01-2020 01:43:17 3.6 C 42 %
4044 03-01-2020 01:53:18 3.6 C 42 %
4045 03-01-2020 02:03:17 3.7 C 42 %
4046 03-01-2020 02:13:17 3.7 C 42 %
4047 03-01-2020 02:23:17 3.9 C 42 %
4048 03-01-2020 02:33:17 3.7 C 42 %
4049 03-01-2020 02:43:18 3.7 C 43 %
4050 03-01-2020 02:53:17 3.9 C 44 %
Sensor: Nr:Datum:Temp:Feuchte:
Aussen-T/F 4051 03-01-2020 03:03:17 3.8 C 44 %
4052 03-01-2020 03:13:17 3.8 C 44 %
4053 03-01-2020 03:23:17 3.8 C 44 %
4054 03-01-2020 03:33:17 3.9 C 44 %
4055 03-01-2020 03:43:17 3.9 C 44 %
4056 03-01-2020 03:53:18 3.9 C 44 %
4057 03-01-2020 04:03:17 4 C 43 %
4058 03-01-2020 04:13:17 4 C 43 %
4059 03-01-2020 04:23:18 4 C 42 %
4060 03-01-2020 04:33:17 4.1 C 42 %
4061 03-01-2020 04:43:17 4.1 C 42 %
4062 03-01-2020 04:53:17 4.2 C 42 %
4063 03-01-2020 05:03:17 4.2 C 41 %
4064 03-01-2020 05:13:17 4.3 C 40 %
4065 03-01-2020 05:23:17 4.3 C 40 %
4066 03-01-2020 05:33:17 4.4 C 40 %
4067 03-01-2020 05:43:17 4.4 C 40 %
4068 03-01-2020 05:53:17 4.4 C 40 %
4069 03-01-2020 06:03:17 4.4 C 40 %
4070 03-01-2020 06:13:17 4.4 C 40 %
4071 03-01-2020 06:23:18 4.4 C 40 %
4072 03-01-2020 06:33:17 4.7 C 40 %
4073 03-01-2020 06:43:17 5.3 C 40 %
4074 03-01-2020 06:53:18 6.7 C 34 %
4075 03-01-2020 07:03:18 7.1 C 31 %
Sensor: Nr:Datum:Temp:Feuchte:
Aussen-T/F 4076 03-01-2020 07:13:18 7.7 C 30 %
4077 03-01-2020 07:23:17 8 C 29 %
4078 03-01-2020 07:33:17 7.9 C 30 %
4079 03-01-2020 07:43:17 7.8 C 30 %
4080 03-01-2020 07:53:17 7.9 C 29 %
4081 03-01-2020 08:03:18 7.9 C 30 %
4082 03-01-2020 08:13:18 8 C 29 %
4083 03-01-2020 08:23:17 7.9 C 29 %
4084 03-01-2020 08:33:18 7.8 C 29 %
4085 03-01-2020 08:43:18 7.9 C 29 %
4086 03-01-2020 08:53:17 8 C 29 %
4087 03-01-2020 09:03:17 8.2 C 28 %
4088 03-01-2020 09:13:17 8.2 C 28 %
4089 03-01-2020 09:23:17 8.2 C 28 %
4090 03-01-2020 09:33:17 8.4 C 28 %
4091 03-01-2020 09:43:17 8.4 C 27 %
4092 03-01-2020 09:53:17 8.4 C 27 %
4093 03-01-2020 10:03:17 8.6 C 27 %
4094 03-01-2020 10:13:17 8.6 C 27 %
4095 03-01-2020 10:23:17 8.6 C 27 %
4096 03-01-2020 10:33:17 8.6 C 27 %
4097 03-01-2020 10:43:18 8.6 C 27 %
4098 03-01-2020 10:53:17 8.6 C 27 %
4099 03-01-2020 11:03:18 8.3 C 27 %
4100 03-01-2020 11:13:18 8.5 C 27 %
Sensor: Nr:Datum:Temp:Feuchte:
Aussen-T/F 4101 03-01-2020 11:23:18 8.6 C 27 %
4102 03-01-2020 11:33:17 8.9 C 27 %
4103 03-01-2020 11:43:17 8.9 C 27 %
4104 03-01-2020 11:53:17 8.7 C 27 %
4105 03-01-2020 12:03:17 8.6 C 27 %
4106 03-01-2020 12:13:17 8.4 C 27 %
4107 03-01-2020 12:23:17 8.6 C 27 %
4108 03-01-2020 12:33:17 8.7 C 27 %
4109 03-01-2020 12:43:17 8.5 C 27 %
4110 03-01-2020 12:53:17 8.6 C 27 %
4111 03-01-2020 13:03:17 8.5 C 27 %
4112 03-01-2020 13:13:18 8.5 C 28 %
4113 03-01-2020 13:23:17 8.6 C 28 %
4114 03-01-2020 13:33:17 8.8 C 27 %
4115 03-01-2020 13:43:18 8.8 C 28 %
4116 03-01-2020 13:53:17 8.7 C 28 %
4117 03-01-2020 14:03:17 8.7 C 28 %
4118 03-01-2020 14:13:17 8.5 C 28 %
4119 03-01-2020 14:23:18 8.5 C 29 %
4120 03-01-2020 14:33:17 8.5 C 29 %
4121 03-01-2020 14:43:17 8.5 C 29 %
4122 03-01-2020 14:53:17 8.5 C 30 %
4123 03-01-2020 15:03:17 9 C 28 %
4124 03-01-2020 15:13:17 9 C 28 %
4125 03-01-2020 15:23:17 9 C 28 %
Sensor: Nr:Datum:Temp:Feuchte:
Aussen-T/F 4126 03-01-2020 15:33:17 9.1 C 28 %
4127 03-01-2020 15:43:18 9.2 C 28 %
4128 03-01-2020 15:53:17 9 C 28 %
4129 03-01-2020 16:03:17 9 C 28 %
4130 03-01-2020 16:13:17 9 C 29 %
4131 03-01-2020 16:23:17 8.9 C 30 %
4132 03-01-2020 16:33:17 9 C 29 %
4133 03-01-2020 16:43:17 9 C 29 %
4134 03-01-2020 16:53:17 9 C 29 %
4135 03-01-2020 17:03:17 8.6 C 31 %
4136 03-01-2020 17:13:17 8.6 C 31 %
4137 03-01-2020 17:23:17 8.9 C 31 %
4138 03-01-2020 17:33:17 8.8 C 30 %
4139 03-01-2020 17:43:17 8.9 C 30 %
4140 03-01-2020 17:53:17 9 C 30 %
4141 03-01-2020 18:03:17 9 C 30 %
4142 03-01-2020 18:13:18 9.1 C 30 %
4143 03-01-2020 18:23:18 9.3 C 30 %
4144 03-01-2020 18:33:18 9.3 C 30 %
4145 03-01-2020 18:43:18 9.2 C 30 %
4146 03-01-2020 18:53:17 9.3 C 30 %
4147 03-01-2020 19:03:18 9.2 C 30 %
4148 03-01-2020 19:13:18 8.9 C 32 %
4149 03-01-2020 19:23:17 8.9 C 32 %
4150 03-01-2020 19:33:17 9.2 C 31 %
Sensor: Nr:Datum:Temp:Feuchte:
Aussen-T/F 4151 03-01-2020 19:43:17 9.3 C 31 %
4152 03-01-2020 19:53:17 9.2 C 31 %
4153 03-01-2020 20:03:18 9 C 31 %
4154 03-01-2020 20:13:18 8.9 C 35 %
4155 03-01-2020 20:23:17 8.9 C 35 %
4156 03-01-2020 20:33:17 8.8 C 35 %
4157 03-01-2020 20:43:17 8.7 C 36 %
4158 03-01-2020 20:53:18 8.6 C 39 %
4159 03-01-2020 21:03:17 8.2 C 37 %
4160 03-01-2020 21:13:17 7.8 C 35 %
4161 03-01-2020 21:23:17 7.5 C 35 %
4162 03-01-2020 21:33:18 7.4 C 36 %
4163 03-01-2020 21:43:18 7.2 C 35 %
4164 03-01-2020 21:53:17 6.8 C 35 %
4165 03-01-2020 22:03:18 6.8 C 34 %
4166 03-01-2020 22:13:18 6.7 C 35 %
4167 03-01-2020 22:23:17 6.5 C 33 %
4168 03-01-2020 22:33:17 6.4 C 34 %
4169 03-01-2020 22:43:17 6 C 33 %
4170 03-01-2020 22:53:17 6 C 34 %
4171 03-01-2020 23:03:17 5.7 C 35 %
4172 03-01-2020 23:13:17 5.9 C 34 %
4173 03-01-2020 23:23:17 5.8 C 35 %
4174 03-01-2020 23:33:17 5.8 C 33 %
4175 03-01-2020 23:43:17 5.7 C 35 %
Sensor: Nr:Datum:Temp:Feuchte:
Aussen-T/F 4176 03-01-2020 23:53:17 5.8 C 35 %
Sensor: Nr:Datum:Temp:Feuchte:
G-T/H 1 06-12-2019 00:01:18 7.8 C 69 %
2 06-12-2019 00:11:18 7.8 C 69 %
3 06-12-2019 00:21:17 7.8 C 69 %
4 06-12-2019 00:31:17 7.8 C 69 %
5 06-12-2019 00:41:17 7.8 C 69 %
6 06-12-2019 00:51:17 7.7 C 68 %
7 06-12-2019 01:01:17 7.8 C 68 %
8 06-12-2019 01:11:17 7.7 C 68 %
9 06-12-2019 01:21:17 7.7 C 69 %
10 06-12-2019 01:31:18 7.7 C 69 %
11 06-12-2019 01:41:18 7.7 C 69 %
12 06-12-2019 01:51:17 7.7 C 69 %
13 06-12-2019 02:01:17 7.6 C 69 %
14 06-12-2019 02:11:17 7.6 C 69 %
15 06-12-2019 02:21:17 7.6 C 69 %
16 06-12-2019 02:31:17 7.6 C 69 %
17 06-12-2019 02:41:17 7.6 C 69 %
18 06-12-2019 02:51:17 7.6 C 69 %
19 06-12-2019 03:01:18 7.6 C 69 %
20 06-12-2019 03:11:18 7.6 C 69 %
21 06-12-2019 03:21:17 7.6 C 69 %
22 06-12-2019 03:31:17 7.6 C 69 %
23 06-12-2019 03:41:17 7.6 C 69 %
24 06-12-2019 03:51:17 7.5 C 69 %
25 06-12-2019 04:01:17 7.5 C 69 %
Sensor: Nr:Datum:Temp:Feuchte:
G-T/H 26 06-12-2019 04:11:17 7.5 C 69 %
27 06-12-2019 04:21:17 7.5 C 69 %
28 06-12-2019 04:31:17 7.5 C 69 %
29 06-12-2019 04:41:17 7.5 C 69 %
30 06-12-2019 04:51:17 7.5 C 69 %
31 06-12-2019 05:01:17 7.4 C 69 %
32 06-12-2019 05:11:17 7.4 C 69 %
33 06-12-2019 05:21:17 7.4 C 69 %
34 06-12-2019 05:31:18 7.4 C 69 %
35 06-12-2019 05:41:18 7.4 C 69 %
36 06-12-2019 05:51:17 7.4 C 69 %
37 06-12-2019 06:01:17 7.4 C 69 %
38 06-12-2019 06:11:17 7.4 C 69 %
39 06-12-2019 06:21:17 7.4 C 69 %
40 06-12-2019 06:31:17 7.4 C 69 %
41 06-12-2019 06:41:17 7.4 C 69 %
42 06-12-2019 06:51:18 7.4 C 69 %
43 06-12-2019 07:01:17 7.4 C 69 %
44 06-12-2019 07:11:17 7.4 C 69 %
45 06-12-2019 07:21:17 7.4 C 69 %
46 06-12-2019 07:31:17 7.2 C 69 %
47 06-12-2019 07:41:17 7.2 C 68 %
48 06-12-2019 07:51:18 7.3 C 68 %
49 06-12-2019 08:01:17 7.3 C 68 %
50 06-12-2019 08:11:17 7.3 C 69 %
Sensor: Nr:Datum:Temp:Feuchte:
G-T/H 51 06-12-2019 08:21:17 7.3 C 69 %
52 06-12-2019 08:31:17 7.3 C 69 %
53 06-12-2019 08:41:17 7.3 C 69 %
54 06-12-2019 08:51:18 7.3 C 69 %
55 06-12-2019 09:01:17 7.3 C 69 %
56 06-12-2019 09:11:17 7.3 C 69 %
57 06-12-2019 09:21:17 7.3 C 69 %
58 06-12-2019 09:31:17 7.3 C 69 %
59 06-12-2019 09:41:17 7.3 C 69 %
60 06-12-2019 09:51:17 7.3 C 70 %
61 06-12-2019 10:01:17 7.3 C 70 %
62 06-12-2019 10:11:17 7.3 C 70 %
63 06-12-2019 10:21:18 7.3 C 70 %
64 06-12-2019 10:31:17 7.3 C 70 %
65 06-12-2019 10:41:17 7.3 C 70 %
66 06-12-2019 10:51:17 7.3 C 70 %
67 06-12-2019 11:01:18 7.3 C 70 %
68 06-12-2019 11:11:18 7.3 C 70 %
69 06-12-2019 11:21:17 7.4 C 70 %
70 06-12-2019 11:31:17 7.4 C 70 %
71 06-12-2019 11:41:17 7.3 C 70 %
72 06-12-2019 11:51:17 7.3 C 70 %
73 06-12-2019 12:01:17 7.3 C 71 %
74 06-12-2019 12:11:17 7.4 C 71 %
75 06-12-2019 12:21:17 7.4 C 71 %
Sensor: Nr:Datum:Temp:Feuchte:
G-T/H 76 06-12-2019 12:31:18 7.4 C 71 %
77 06-12-2019 12:41:18 7.4 C 71 %
78 06-12-2019 12:51:17 7.4 C 71 %
79 06-12-2019 13:01:17 7.4 C 71 %
80 06-12-2019 13:11:17 7.4 C 71 %
81 06-12-2019 13:21:17 7.4 C 71 %
82 06-12-2019 13:31:18 7.4 C 71 %
83 06-12-2019 13:41:18 7.4 C 71 %
84 06-12-2019 13:51:17 7.4 C 71 %
85 06-12-2019 14:01:17 7.4 C 71 %
86 06-12-2019 14:11:17 7.5 C 71 %
87 06-12-2019 14:21:17 7.5 C 71 %
88 06-12-2019 14:31:18 7.5 C 71 %
89 06-12-2019 14:41:18 7.5 C 72 %
90 06-12-2019 14:51:17 7.5 C 72 %
91 06-12-2019 15:01:17 7.5 C 72 %
92 06-12-2019 15:11:17 7.5 C 72 %
93 06-12-2019 15:21:17 7.5 C 72 %
94 06-12-2019 15:31:17 7.5 C 72 %
95 06-12-2019 15:41:17 7.5 C 72 %
96 06-12-2019 15:51:18 7.5 C 72 %
97 06-12-2019 16:01:18 7.6 C 72 %
98 06-12-2019 16:11:18 7.5 C 72 %
99 06-12-2019 16:21:17 7.5 C 72 %
100 06-12-2019 16:31:17 7.6 C 72 %
Sensor: Nr:Datum:Temp:Feuchte:
G-T/H 101 06-12-2019 16:41:17 7.6 C 72 %
102 06-12-2019 16:51:17 7.6 C 72 %
103 06-12-2019 17:01:17 7.6 C 72 %
104 06-12-2019 17:11:17 7.6 C 72 %
105 06-12-2019 17:21:17 7.6 C 72 %
106 06-12-2019 17:31:18 7.6 C 72 %
107 06-12-2019 17:41:18 7.7 C 72 %
108 06-12-2019 17:51:17 7.7 C 72 %
109 06-12-2019 18:01:17 7.7 C 73 %
110 06-12-2019 18:11:17 7.7 C 73 %
111 06-12-2019 18:21:18 7.7 C 73 %
112 06-12-2019 18:31:17 7.7 C 73 %
113 06-12-2019 18:41:17 7.8 C 73 %
114 06-12-2019 18:51:17 7.8 C 73 %
115 06-12-2019 19:01:17 7.8 C 73 %
116 06-12-2019 19:11:17 7.8 C 73 %
117 06-12-2019 19:21:17 7.8 C 73 %
118 06-12-2019 19:31:17 7.8 C 73 %
119 06-12-2019 19:41:17 7.8 C 73 %
120 06-12-2019 19:51:17 7.8 C 73 %
121 06-12-2019 20:01:17 7.8 C 73 %
122 06-12-2019 20:11:17 7.8 C 73 %
123 06-12-2019 20:21:17 7.8 C 73 %
124 06-12-2019 20:31:17 7.9 C 73 %
125 06-12-2019 20:41:17 7.9 C 73 %
Sensor: Nr:Datum:Temp:Feuchte:
G-T/H 126 06-12-2019 20:51:18 7.9 C 73 %
127 06-12-2019 21:01:17 7.9 C 73 %
128 06-12-2019 21:11:17 7.9 C 73 %
129 06-12-2019 21:21:17 7.9 C 73 %
130 06-12-2019 21:31:17 7.9 C 73 %
131 06-12-2019 21:41:17 7.9 C 73 %
132 06-12-2019 21:51:17 7.9 C 73 %
133 06-12-2019 22:01:17 7.9 C 73 %
134 06-12-2019 22:11:17 7.9 C 74 %
135 06-12-2019 22:21:17 8 C 73 %
136 06-12-2019 22:31:17 8 C 73 %
137 06-12-2019 22:41:17 8 C 73 %
138 06-12-2019 22:51:17 8 C 73 %
139 06-12-2019 23:01:18 8 C 73 %
140 06-12-2019 23:11:18 8 C 73 %
141 06-12-2019 23:21:17 8 C 73 %
142 06-12-2019 23:31:17 8 C 73 %
143 06-12-2019 23:41:17 8.1 C 73 %
144 06-12-2019 23:51:18 7.9 C 74 %
145 07-12-2019 00:01:17 8.1 C 73 %
146 07-12-2019 00:11:17 8.1 C 73 %
147 07-12-2019 00:21:17 8.1 C 73 %
148 07-12-2019 00:31:17 8.2 C 73 %
149 07-12-2019 00:41:17 8.1 C 73 %
150 07-12-2019 00:51:17 8.2 C 73 %
Sensor: Nr:Datum:Temp:Feuchte:
G-T/H 151 07-12-2019 01:01:17 8.2 C 73 %
152 07-12-2019 01:11:17 8.2 C 73 %
153 07-12-2019 01:21:17 8.2 C 73 %
154 07-12-2019 01:31:18 8.2 C 73 %
155 07-12-2019 01:41:18 8.2 C 73 %
156 07-12-2019 01:51:17 8.2 C 73 %
157 07-12-2019 02:01:17 8.3 C 73 %
158 07-12-2019 02:11:17 8.3 C 73 %
159 07-12-2019 02:21:17 8.3 C 74 %
160 07-12-2019 02:31:17 8.3 C 74 %
161 07-12-2019 02:41:17 8.3 C 74 %
162 07-12-2019 02:51:17 8.3 C 74 %
163 07-12-2019 03:01:17 8.3 C 74 %
164 07-12-2019 03:11:17 8.3 C 74 %
165 07-12-2019 03:21:17 8.4 C 74 %
166 07-12-2019 03:31:17 8.4 C 74 %
167 07-12-2019 03:41:17 8.4 C 74 %
168 07-12-2019 03:51:17 8.4 C 74 %
169 07-12-2019 04:01:18 8.4 C 74 %
170 07-12-2019 04:11:18 8.4 C 74 %
171 07-12-2019 04:21:17 8.4 C 74 %
172 07-12-2019 04:31:17 8.4 C 74 %
173 07-12-2019 04:41:17 8.5 C 74 %
174 07-12-2019 04:51:17 8.4 C 74 %
175 07-12-2019 05:01:17 8.4 C 74 %
Sensor: Nr:Datum:Temp:Feuchte:
G-T/H 176 07-12-2019 05:11:17 8.5 C 74 %
177 07-12-2019 05:21:17 8.5 C 74 %
178 07-12-2019 05:31:17 8.5 C 74 %
179 07-12-2019 05:41:17 8.5 C 74 %
180 07-12-2019 05:51:18 8.5 C 74 %
181 07-12-2019 06:01:18 8.5 C 74 %
182 07-12-2019 06:11:18 8.5 C 74 %
183 07-12-2019 06:21:17 8.6 C 74 %
184 07-12-2019 06:31:18 8.6 C 74 %
185 07-12-2019 06:41:18 8.6 C 74 %
186 07-12-2019 06:51:17 8.6 C 74 %
187 07-12-2019 07:01:17 8.6 C 74 %
188 07-12-2019 07:11:17 8.6 C 75 %
189 07-12-2019 07:21:17 8.6 C 75 %
190 07-12-2019 07:31:17 8.6 C 75 %
191 07-12-2019 07:41:17 8.6 C 75 %
192 07-12-2019 07:51:18 8.6 C 75 %
193 07-12-2019 08:01:18 8.6 C 75 %
194 07-12-2019 08:11:18 8.7 C 75 %
195 07-12-2019 08:21:17 8.7 C 75 %
196 07-12-2019 08:31:17 8.7 C 75 %
197 07-12-2019 08:41:17 8.7 C 75 %
198 07-12-2019 08:51:17 8.7 C 75 %
199 07-12-2019 09:01:17 8.7 C 75 %
200 07-12-2019 09:11:17 8.7 C 75 %
Sensor: Nr:Datum:Temp:Feuchte:
G-T/H 201 07-12-2019 09:21:17 8.7 C 75 %
202 07-12-2019 09:31:17 8.8 C 75 %
203 07-12-2019 09:41:17 8.8 C 75 %
204 07-12-2019 09:51:18 8.8 C 75 %
205 07-12-2019 10:01:17 8.8 C 75 %
206 07-12-2019 10:11:17 8.8 C 75 %
207 07-12-2019 10:21:17 8.8 C 75 %
208 07-12-2019 10:31:17 8.8 C 75 %
209 07-12-2019 10:41:17 8.8 C 75 %
210 07-12-2019 10:51:18 8.9 C 75 %
211 07-12-2019 11:01:18 8.9 C 75 %
212 07-12-2019 11:11:18 8.9 C 75 %
213 07-12-2019 11:21:17 8.9 C 75 %
214 07-12-2019 11:31:17 8.9 C 75 %
215 07-12-2019 11:41:17 8.9 C 75 %
216 07-12-2019 11:51:17 9 C 74 %
217 07-12-2019 12:01:17 9.1 C 74 %
218 07-12-2019 12:11:17 9.2 C 74 %
219 07-12-2019 12:21:17 9.2 C 74 %
220 07-12-2019 12:31:18 9.2 C 74 %
221 07-12-2019 12:41:18 9.2 C 74 %
222 07-12-2019 12:51:17 9.2 C 74 %
223 07-12-2019 13:01:17 9.2 C 74 %
224 07-12-2019 13:11:17 9.2 C 74 %
225 07-12-2019 13:21:17 9.2 C 74 %
Sensor: Nr:Datum:Temp:Feuchte:
G-T/H 226 07-12-2019 13:31:17 9.2 C 74 %
227 07-12-2019 13:41:17 9.2 C 74 %
228 07-12-2019 13:51:17 9.2 C 74 %
229 07-12-2019 14:01:17 9.2 C 74 %
230 07-12-2019 14:11:17 9.2 C 74 %
231 07-12-2019 14:21:17 9.2 C 74 %
232 07-12-2019 14:31:18 9.2 C 74 %
233 07-12-2019 14:41:18 9.2 C 74 %
234 07-12-2019 14:51:17 9.2 C 74 %
235 07-12-2019 15:01:17 9.3 C 74 %
236 07-12-2019 15:11:17 9.3 C 74 %
237 07-12-2019 15:21:17 9.2 C 74 %
238 07-12-2019 15:31:17 9.3 C 75 %
239 07-12-2019 15:41:17 9.3 C 75 %
240 07-12-2019 15:51:17 9.3 C 75 %
241 07-12-2019 16:01:17 9.3 C 75 %
242 07-12-2019 16:11:17 9.3 C 75 %
243 07-12-2019 16:21:18 9.3 C 75 %
244 07-12-2019 16:31:17 9.3 C 75 %
245 07-12-2019 16:41:18 9.3 C 75 %
246 07-12-2019 16:51:17 9.3 C 75 %
247 07-12-2019 17:01:17 9.4 C 75 %
248 07-12-2019 17:11:17 9.4 C 75 %
249 07-12-2019 17:21:17 9.3 C 75 %
250 07-12-2019 17:31:18 9.4 C 75 %
Sensor: Nr:Datum:Temp:Feuchte:
G-T/H 251 07-12-2019 17:41:18 9.4 C 75 %
252 07-12-2019 17:51:17 9.4 C 75 %
253 07-12-2019 18:01:18 9.4 C 75 %
254 07-12-2019 18:11:18 9.4 C 75 %
255 07-12-2019 18:21:17 9.5 C 75 %
256 07-12-2019 18:31:17 9.5 C 75 %
257 07-12-2019 18:41:17 9.5 C 75 %
258 07-12-2019 18:51:17 9.5 C 75 %
259 07-12-2019 19:01:17 9.5 C 75 %
260 07-12-2019 19:11:17 9.5 C 75 %
261 07-12-2019 19:21:17 9.5 C 75 %
262 07-12-2019 19:31:17 9.5 C 75 %
263 07-12-2019 19:41:17 9.6 C 75 %
264 07-12-2019 19:51:17 9.5 C 75 %
265 07-12-2019 20:01:18 9.5 C 75 %
266 07-12-2019 20:11:18 9.5 C 75 %
267 07-12-2019 20:21:17 9.6 C 75 %
268 07-12-2019 20:31:17 9.6 C 75 %
269 07-12-2019 20:41:17 9.6 C 75 %
270 07-12-2019 20:51:17 9.6 C 75 %
271 07-12-2019 21:01:17 9.6 C 75 %
272 07-12-2019 21:11:17 9.6 C 75 %
273 07-12-2019 21:21:17 9.6 C 75 %
274 07-12-2019 21:31:17 9.6 C 75 %
275 07-12-2019 21:41:17 9.6 C 75 %
Sensor: Nr:Datum:Temp:Feuchte:
G-T/H 276 07-12-2019 21:51:17 9.6 C 75 %
277 07-12-2019 22:01:17 9.6 C 75 %
278 07-12-2019 22:11:17 9.6 C 75 %
279 07-12-2019 22:21:17 9.7 C 75 %
280 07-12-2019 22:31:18 9.7 C 75 %
281 07-12-2019 22:41:18 9.6 C 75 %
282 07-12-2019 22:51:17 9.7 C 75 %
283 07-12-2019 23:01:17 9.7 C 75 %
284 07-12-2019 23:11:17 9.7 C 75 %
285 07-12-2019 23:21:17 9.7 C 75 %
286 07-12-2019 23:31:17 9.7 C 75 %
287 07-12-2019 23:41:17 9.7 C 75 %
288 07-12-2019 23:51:18 9.7 C 75 %
289 08-12-2019 00:01:17 9.7 C 75 %
290 08-12-2019 00:11:17 9.7 C 75 %
291 08-12-2019 00:21:17 9.7 C 75 %
292 08-12-2019 00:31:18 9.7 C 75 %
293 08-12-2019 00:41:18 9.7 C 75 %
294 08-12-2019 00:51:17 9.7 C 75 %
295 08-12-2019 01:01:18 9.7 C 75 %
296 08-12-2019 01:11:18 9.8 C 75 %
297 08-12-2019 01:21:17 9.8 C 76 %
298 08-12-2019 01:31:17 9.8 C 76 %
299 08-12-2019 01:41:17 9.8 C 76 %
300 08-12-2019 01:51:18 9.8 C 76 %
Sensor: Nr:Datum:Temp:Feuchte:
G-T/H 301 08-12-2019 02:01:17 9.8 C 76 %
302 08-12-2019 02:11:17 9.8 C 75 %
303 08-12-2019 02:21:17 9.8 C 75 %
304 08-12-2019 02:31:17 9.8 C 75 %
305 08-12-2019 02:41:18 9.8 C 75 %
306 08-12-2019 02:51:17 9.8 C 75 %
307 08-12-2019 03:01:17 9.8 C 75 %
308 08-12-2019 03:11:17 9.8 C 75 %
309 08-12-2019 03:21:17 9.8 C 75 %
310 08-12-2019 03:31:17 9.8 C 76 %
311 08-12-2019 03:41:17 9.8 C 75 %
312 08-12-2019 03:51:17 9.9 C 76 %
313 08-12-2019 04:01:17 9.8 C 75 %
314 08-12-2019 04:11:18 9.9 C 75 %
315 08-12-2019 04:21:17 9.9 C 76 %
316 08-12-2019 04:31:17 9.9 C 75 %
317 08-12-2019 04:41:17 9.9 C 76 %
318 08-12-2019 04:51:17 9.9 C 76 %
319 08-12-2019 05:01:17 9.9 C 75 %
320 08-12-2019 05:11:17 9.9 C 76 %
321 08-12-2019 05:21:17 9.9 C 76 %
322 08-12-2019 05:31:17 9.9 C 76 %
323 08-12-2019 05:41:17 9.9 C 76 %
324 08-12-2019 05:51:17 9.9 C 76 %
325 08-12-2019 06:01:17 10 C 74 %
Sensor: Nr:Datum:Temp:Feuchte:
G-T/H 326 08-12-2019 06:11:18 10 C 74 %
327 08-12-2019 06:21:17 10 C 74 %
328 08-12-2019 06:31:17 10 C 74 %
329 08-12-2019 06:41:17 10 C 74 %
330 08-12-2019 06:51:17 10 C 74 %
331 08-12-2019 07:01:18 10 C 74 %
332 08-12-2019 07:11:18 10 C 74 %
333 08-12-2019 07:21:17 10 C 74 %
334 08-12-2019 07:31:17 10 C 74 %
335 08-12-2019 07:41:17 10 C 74 %
336 08-12-2019 07:51:17 10 C 74 %
337 08-12-2019 08:01:17 10 C 74 %
338 08-12-2019 08:11:17 10 C 74 %
339 08-12-2019 08:21:17 10 C 74 %
340 08-12-2019 08:31:17 10 C 74 %
341 08-12-2019 08:41:17 10.1 C 74 %
342 08-12-2019 08:51:17 10.1 C 74 %
343 08-12-2019 09:01:17 10.1 C 74 %
344 08-12-2019 09:11:17 10.1 C 74 %
345 08-12-2019 09:21:17 10.1 C 74 %
346 08-12-2019 09:31:17 10.1 C 74 %
347 08-12-2019 09:41:17 10.1 C 74 %
348 08-12-2019 09:51:17 10.1 C 74 %
349 08-12-2019 10:01:17 10.1 C 74 %
350 08-12-2019 10:11:17 10.1 C 75 %
Sensor: Nr:Datum:Temp:Feuchte:
G-T/H 351 08-12-2019 10:21:17 10.1 C 75 %
352 08-12-2019 10:31:17 10.1 C 75 %
353 08-12-2019 10:41:17 10.1 C 75 %
354 08-12-2019 10:51:17 10.2 C 75 %
355 08-12-2019 11:01:17 10.2 C 75 %
356 08-12-2019 11:11:17 10.2 C 75 %
357 08-12-2019 11:21:17 10.2 C 75 %
358 08-12-2019 11:31:17 10.2 C 75 %
359 08-12-2019 11:41:17 10.2 C 75 %
360 08-12-2019 11:51:17 10.2 C 75 %
361 08-12-2019 12:01:18 10.2 C 75 %
362 08-12-2019 12:11:18 10.2 C 75 %
363 08-12-2019 12:21:17 10.3 C 75 %
364 08-12-2019 12:31:17 10.3 C 75 %
365 08-12-2019 12:41:17 10.3 C 75 %
366 08-12-2019 12:51:17 10.3 C 75 %
367 08-12-2019 13:01:18 10.3 C 75 %
368 08-12-2019 13:11:18 10.3 C 75 %
369 08-12-2019 13:21:17 10.3 C 75 %
370 08-12-2019 13:31:17 10.3 C 75 %
371 08-12-2019 13:41:17 10.4 C 75 %
372 08-12-2019 13:51:17 10.4 C 75 %
373 08-12-2019 14:01:17 10.4 C 75 %
374 08-12-2019 14:11:17 10.4 C 75 %
375 08-12-2019 14:21:17 10.4 C 75 %
Sensor: Nr:Datum:Temp:Feuchte:
G-T/H 376 08-12-2019 14:31:18 10.4 C 75 %
377 08-12-2019 14:41:18 10.4 C 75 %
378 08-12-2019 14:51:17 10.4 C 75 %
379 08-12-2019 15:01:18 10.5 C 75 %
380 08-12-2019 15:11:18 10.5 C 75 %
381 08-12-2019 15:21:18 10.5 C 75 %
382 08-12-2019 15:31:18 10.5 C 75 %
383 08-12-2019 15:41:18 10.5 C 75 %
384 08-12-2019 15:51:17 10.5 C 75 %
385 08-12-2019 16:01:17 10.6 C 75 %
386 08-12-2019 16:11:17 10.6 C 75 %
387 08-12-2019 16:21:18 10.6 C 75 %
388 08-12-2019 16:31:18 10.6 C 76 %
389 08-12-2019 16:41:18 10.6 C 76 %
390 08-12-2019 16:51:17 10.6 C 76 %
391 08-12-2019 17:01:17 10.6 C 76 %
392 08-12-2019 17:11:17 10.6 C 76 %
393 08-12-2019 17:21:17 10.6 C 76 %
394 08-12-2019 17:31:17 10.6 C 76 %
395 08-12-2019 17:41:17 10.6 C 76 %
396 08-12-2019 17:51:17 10.6 C 76 %
397 08-12-2019 18:01:17 10.6 C 76 %
398 08-12-2019 18:11:17 10.6 C 76 %
399 08-12-2019 18:21:17 10.6 C 76 %
400 08-12-2019 18:31:18 10.6 C 76 %
Sensor: Nr:Datum:Temp:Feuchte:
G-T/H 401 08-12-2019 18:41:18 10.7 C 76 %
402 08-12-2019 18:51:17 10.7 C 76 %
403 08-12-2019 19:01:17 10.7 C 76 %
404 08-12-2019 19:11:17 10.7 C 76 %
405 08-12-2019 19:21:17 10.7 C 76 %
406 08-12-2019 19:31:17 10.7 C 76 %
407 08-12-2019 19:41:17 10.7 C 76 %
408 08-12-2019 19:51:18 10.7 C 76 %
409 08-12-2019 20:01:17 10.7 C 76 %
410 08-12-2019 20:11:17 10.7 C 76 %
411 08-12-2019 20:21:17 10.7 C 76 %
412 08-12-2019 20:31:17 10.7 C 76 %
413 08-12-2019 20:41:17 10.7 C 76 %
414 08-12-2019 20:51:17 10.7 C 76 %
415 08-12-2019 21:01:18 10.7 C 76 %
416 08-12-2019 21:11:18 10.7 C 76 %
417 08-12-2019 21:21:17 10.7 C 76 %
418 08-12-2019 21:31:17 10.7 C 76 %
419 08-12-2019 21:41:17 10.7 C 76 %
420 08-12-2019 21:51:18 10.7 C 76 %
421 08-12-2019 22:01:17 10.7 C 75 %
422 08-12-2019 22:11:17 10.7 C 76 %
423 08-12-2019 22:21:17 10.7 C 75 %
424 08-12-2019 22:31:17 10.7 C 75 %
425 08-12-2019 22:41:17 10.7 C 75 %
Sensor: Nr:Datum:Temp:Feuchte:
G-T/H 426 08-12-2019 22:51:17 10.7 C 75 %
427 08-12-2019 23:01:17 10.7 C 75 %
428 08-12-2019 23:11:17 10.7 C 75 %
429 08-12-2019 23:21:17 10.7 C 75 %
430 08-12-2019 23:31:18 10.7 C 75 %
431 08-12-2019 23:41:18 10.7 C 75 %
432 08-12-2019 23:51:17 10.7 C 75 %
433 09-12-2019 00:01:18 10.7 C 75 %
434 09-12-2019 00:11:18 10.7 C 75 %
435 09-12-2019 00:21:17 10.7 C 75 %
436 09-12-2019 00:31:17 10.7 C 75 %
437 09-12-2019 00:41:17 10.7 C 75 %
438 09-12-2019 00:51:17 10.7 C 75 %
439 09-12-2019 01:01:17 10.7 C 75 %
440 09-12-2019 01:11:17 10.7 C 75 %
441 09-12-2019 01:21:18 10.7 C 75 %
442 09-12-2019 01:31:17 10.7 C 75 %
443 09-12-2019 01:41:17 10.7 C 75 %
444 09-12-2019 01:51:17 10.7 C 75 %
445 09-12-2019 02:01:17 10.7 C 75 %
446 09-12-2019 02:11:17 10.7 C 75 %
447 09-12-2019 02:21:17 10.7 C 75 %
448 09-12-2019 02:31:18 10.7 C 75 %
449 09-12-2019 02:41:18 10.7 C 75 %
450 09-12-2019 02:51:18 10.7 C 75 %
Sensor: Nr:Datum:Temp:Feuchte:
G-T/H 451 09-12-2019 03:01:17 10.6 C 75 %
452 09-12-2019 03:11:17 10.7 C 74 %
453 09-12-2019 03:21:17 10.6 C 74 %
454 09-12-2019 03:31:17 10.6 C 74 %
455 09-12-2019 03:41:17 10.6 C 74 %
456 09-12-2019 03:51:17 10.6 C 74 %
457 09-12-2019 04:01:17 10.6 C 74 %
458 09-12-2019 04:11:17 10.6 C 74 %
459 09-12-2019 04:21:18 10.6 C 74 %
460 09-12-2019 04:31:18 10.6 C 74 %
461 09-12-2019 04:41:18 10.6 C 74 %
462 09-12-2019 04:51:17 10.6 C 74 %
463 09-12-2019 05:01:17 10.6 C 74 %
464 09-12-2019 05:11:17 10.6 C 74 %
465 09-12-2019 05:21:17 10.6 C 74 %
466 09-12-2019 05:31:17 10.6 C 74 %
467 09-12-2019 05:41:18 10.5 C 74 %
468 09-12-2019 05:51:17 10.5 C 74 %
469 09-12-2019 06:01:17 10.5 C 74 %
470 09-12-2019 06:11:17 10.5 C 74 %
471 09-12-2019 06:21:17 10.5 C 74 %
472 09-12-2019 06:31:17 10.5 C 74 %
473 09-12-2019 06:41:17 10.5 C 74 %
474 09-12-2019 06:51:18 10.5 C 74 %
475 09-12-2019 07:01:17 10.5 C 74 %
Sensor: Nr:Datum:Temp:Feuchte:
G-T/H 476 09-12-2019 07:11:18 10.5 C 74 %
477 09-12-2019 07:21:17 10.5 C 74 %
478 09-12-2019 07:31:17 10.5 C 74 %
479 09-12-2019 07:41:17 10.5 C 74 %
480 09-12-2019 07:51:18 10.4 C 74 %
481 09-12-2019 08:01:17 10.4 C 74 %
482 09-12-2019 08:11:17 10.5 C 74 %
483 09-12-2019 08:21:17 10.5 C 74 %
484 09-12-2019 08:31:17 10.4 C 74 %
485 09-12-2019 08:41:17 10.5 C 74 %
486 09-12-2019 08:51:17 10.4 C 74 %
487 09-12-2019 09:01:17 10.4 C 74 %
488 09-12-2019 09:11:17 10.4 C 74 %
489 09-12-2019 09:21:17 10.4 C 74 %
490 09-12-2019 09:31:17 10.4 C 74 %
491 09-12-2019 09:41:17 10.4 C 74 %
492 09-12-2019 09:51:17 10.4 C 74 %
493 09-12-2019 10:01:17 10.4 C 74 %
494 09-12-2019 10:11:17 10.4 C 74 %
495 09-12-2019 10:21:17 10.4 C 74 %
496 09-12-2019 10:31:18 10.4 C 74 %
497 09-12-2019 10:41:18 10.4 C 74 %
498 09-12-2019 10:51:17 10.4 C 74 %
499 09-12-2019 11:01:17 10.4 C 74 %
500 09-12-2019 11:11:17 10.4 C 74 %
Sensor: Nr:Datum:Temp:Feuchte:
G-T/H 501 09-12-2019 11:21:17 10.4 C 74 %
502 09-12-2019 11:31:18 10.4 C 74 %
503 09-12-2019 11:41:18 10.4 C 74 %
504 09-12-2019 11:51:17 10.4 C 74 %
505 09-12-2019 12:01:17 10.4 C 74 %
506 09-12-2019 12:11:17 10.4 C 74 %
507 09-12-2019 12:21:18 </